Wetterdaten: Dienstag, 05.09.2017
Datum Zeit Temp. A. Pool Temp. Feuchte A. Luftdruck Regen Wind Richtung Richtung Sonnenschein ET UV Solar Taupunkt Windchill Windben Empfang
05.09.2017 00:00 11,3 C 18,9 C 90 % 1019,5 hPa 0,0 l/m 4,3 km/h (1 Bft) S 177 0 min 0,000 mm 0,0 UV-I 0 W/m 9,7 C 11,3 C 8,0 km/h (2 Bft) 98,00 %
05.09.2017 00:02 11,3 C 18,9 C 90 % 1019,5 hPa 0,0 l/m 4,3 km/h (1 Bft) S-SW 196 0 min 0,000 mm 0,0 UV-I 0 W/m 9,7 C 11,3 C 8,0 km/h (2 Bft) 95,56 %
05.09.2017 00:04 11,3 C 18,9 C 90 % 1019,4 hPa 0,0 l/m 4,1 km/h (1 Bft) S 188 0 min 0,000 mm 0,0 UV-I 0 W/m 9,7 C 11,3 C 8,0 km/h (2 Bft) 97,37 %
05.09.2017 00:06 11,3 C 18,9 C 90 % 1019,5 hPa 0,0 l/m 4,4 km/h (1 Bft) S 188 0 min 0,000 mm 0,0 UV-I 0 W/m 9,7 C 11,3 C 6,4 km/h (2 Bft) 96,00 %
05.09.2017 00:08 11,3 C 18,9 C 90 % 1019,5 hPa 0,0 l/m 4,5 km/h (1 Bft) S 187 0 min 0,000 mm 0,0 UV-I 0 W/m 9,7 C 11,3 C 8,0 km/h (2 Bft) 97,87 %
05.09.2017 00:10 11,3 C 18,9 C 90 % 1019,5 hPa 0,0 l/m 4,5 km/h (1 Bft) S-SW 209 0 min 0,000 mm 0,0 UV-I 0 W/m 9,7 C 11,3 C 8,0 km/h (2 Bft) 97,87 %
05.09.2017 00:12 11,3 C 18,9 C 90 % 1019,5 hPa 0,0 l/m 5,4 km/h (1 Bft) S 191 0 min 0,000 mm 0,0 UV-I 0 W/m 9,7 C 11,3 C 8,0 km/h (2 Bft) 93,62 %
05.09.2017 00:14 11,3 C 18,9 C 90 % 1019,5 hPa 0,0 l/m 4,8 km/h (1 Bft) S 189 0 min 0,000 mm 0,0 UV-I 0 W/m 9,7 C 11,3 C 8,0 km/h (2 Bft) 93,62 %
05.09.2017 00:16 11,2 C 18,9 C 90 % 1019,5 hPa 0,0 l/m 4,6 km/h (1 Bft) S 186 0 min 0,000 mm 0,0 UV-I 0 W/m 9,6 C 11,2 C 8,0 km/h (2 Bft) 96,00 %
05.09.2017 00:18 11,2 C 18,9 C 90 % 1019,5 hPa 0,0 l/m 4,8 km/h (1 Bft) S-SW 205 0 min 0,000 mm 0,0 UV-I 0 W/m 9,6 C 11,2 C 8,0 km/h (2 Bft) 97,87 %
05.09.2017 00:20 11,2 C 18,9 C 90 % 1019,6 hPa 0,0 l/m 5,2 km/h (1 Bft) S-SW 192 0 min 0,000 mm 0,0 UV-I 0 W/m 9,6 C 11,2 C 8,0 km/h (2 Bft) 97,87 %
05.09.2017 00:22 11,2 C 18,9 C 90 % 1019,6 hPa 0,0 l/m 4,9 km/h (1 Bft) S-SW 192 0 min 0,000 mm 0,0 UV-I 0 W/m 9,6 C 11,2 C 8,0 km/h (2 Bft) 97,87 %
05.09.2017 00:24 11,1 C 18,9 C 90 % 1019,7 hPa 0,0 l/m 5,5 km/h (1 Bft) S-SW 199 0 min 0,000 mm 0,0 UV-I 0 W/m 9,5 C 11,1 C 8,0 km/h (2 Bft) 97,87 %
05.09.2017 00:26 11,1 C 18,9 C 90 % 1019,7 hPa 0,0 l/m 4,8 km/h (1 Bft) S-SW 194 0 min 0,000 mm 0,0 UV-I 0 W/m 9,5 C 11,1 C 6,4 km/h (2 Bft) 95,74 %
05.09.2017 00:28 11,1 C 18,9 C 90 % 1019,8 hPa 0,0 l/m 4,3 km/h (1 Bft) S 180 0 min 0,000 mm 0,0 UV-I 0 W/m 9,5 C 11,1 C 6,4 km/h (2 Bft) 97,56 %
05.09.2017 00:30 11,1 C 18,9 C 90 % 1019,7 hPa 0,0 l/m 4,7 km/h (1 Bft) S 186 0 min 0,000 mm 0,0 UV-I 0 W/m 9,5 C 11,1 C 8,0 km/h (2 Bft) 97,87 %
05.09.2017 00:32 11,0 C 18,9 C 90 % 1019,8 hPa 0,0 l/m 4,1 km/h (1 Bft) S-SW 196 0 min 0,000 mm 0,0 UV-I 0 W/m 9,4 C 11,0 C 6,4 km/h (2 Bft) 93,62 %
05.09.2017 00:34 11,0 C 18,9 C 90 % 1019,8 hPa 0,0 l/m 5,1 km/h (1 Bft) S-SW 196 0 min 0,000 mm 0,0 UV-I 0 W/m 9,4 C 11,0 C 8,0 km/h (2 Bft) 100,00 %
05.09.2017 00:36 11,0 C 18,9 C 90 % 1019,7 hPa 0,0 l/m 4,6 km/h (1 Bft) S-SW 196 0 min 0,000 mm 0,0 UV-I 0 W/m 9,4 C 11,0 C 8,0 km/h (2 Bft) 97,87 %
05.09.2017 00:38 10,9 C 18,9 C 90 % 1019,8 hPa 0,0 l/m 4,8 km/h (1 Bft) S-SW 205 0 min 0,000 mm 0,0 UV-I 0 W/m 9,3 C 10,9 C 8,0 km/h (2 Bft) 100,00 %
05.09.2017 00:40 10,9 C 18,9 C 90 % 1019,8 hPa 0,0 l/m 5,2 km/h (1 Bft) S-SW 200 0 min 0,000 mm 0,0 UV-I 0 W/m 9,3 C 10,9 C 6,4 km/h (2 Bft) 100,00 %
05.09.2017 00:42 10,9 C 18,9 C 90 % 1019,8 hPa 0,0 l/m 4,6 km/h (1 Bft) S 189 0 min 0,000 mm 0,0 UV-I 0 W/m 9,3 C 10,9 C 6,4 km/h (2 Bft) 98,00 %
05.09.2017 00:44 10,9 C 18,9 C 90 % 1019,8 hPa 0,0 l/m 4,8 km/h (1 Bft) S 188 0 min 0,000 mm 0,0 UV-I 0 W/m 9,3 C 10,9 C 6,4 km/h (2 Bft) 100,00 %
05.09.2017 00:46 10,9 C 18,9 C 90 % 1019,8 hPa 0,0 l/m 3,6 km/h (1 Bft) S-SW 193 0 min 0,000 mm 0,0 UV-I 0 W/m 9,3 C 10,9 C 9,7 km/h (2 Bft) 97,87 %
05.09.2017 00:48 10,9 C 18,9 C 90 % 1019,8 hPa 0,0 l/m 4,2 km/h (1 Bft) S 186 0 min 0,000 mm 0,0 UV-I 0 W/m 9,3 C 10,9 C 6,4 km/h (2 Bft) 100,00 %
05.09.2017 00:50 10,8 C 18,9 C 90 % 1019,8 hPa 0,0 l/m 3,8 km/h (1 Bft) S 187 0 min 0,000 mm 0,0 UV-I 0 W/m 9,2 C 10,8 C 4,8 km/h (1 Bft) 97,87 %
05.09.2017 00:52 10,8 C 18,9 C 90 % 1019,8 hPa 0,0 l/m 4,5 km/h (1 Bft) S-SW 200 0 min 0,000 mm 0,0 UV-I 0 W/m 9,2 C 10,8 C 6,4 km/h (2 Bft) 97,87 %
05.09.2017 00:54 10,8 C 18,9 C 91 % 1019,8 hPa 0,0 l/m 3,6 km/h (1 Bft) S-SW 198 0 min 0,000 mm 0,0 UV-I 0 W/m 9,4 C 10,8 C 6,4 km/h (2 Bft) 100,00 %
05.09.2017 00:56 10,8 C 18,9 C 91 % 1019,8 hPa 0,0 l/m 4,9 km/h (1 Bft) S-SW 198 0 min 0,000 mm 0,0 UV-I 0 W/m 9,4 C 10,8 C 8,0 km/h (2 Bft) 95,74 %
05.09.2017 00:58 10,8 C 18,9 C 91 % 1019,9 hPa 0,0 l/m 4,3 km/h (1 Bft) S-SW 198 0 min 0,000 mm 0,0 UV-I 0 W/m 9,4 C 10,8 C 6,4 km/h (2 Bft) 97,87 %
05.09.2017 01:00 10,8 C 18,9 C 91 % 1019,8 hPa 0,0 l/m 3,9 km/h (1 Bft) S-SW 199 0 min 0,000 mm 0,0 UV-I 0 W/m 9,4 C 10,8 C 6,4 km/h (2 Bft) 97,87 %
05.09.2017 01:02 10,8 C 18,9 C 91 % 1019,9 hPa 0,0 l/m 3,7 km/h (1 Bft) S-SW 199 0 min 0,000 mm 0,0 UV-I 0 W/m 9,4 C 10,8 C 6,4 km/h (2 Bft) 97,87 %
05.09.2017 01:04 10,8 C 18,9 C 91 % 1019,9 hPa 0,0 l/m 4,1 km/h (1 Bft) S 182 0 min 0,000 mm 0,0 UV-I 0 W/m 9,4 C 10,8 C 4,8 km/h (1 Bft) 97,87 %
05.09.2017 01:06 10,8 C 18,9 C 91 % 1019,8 hPa 0,0 l/m 3,5 km/h (1 Bft) S 177 0 min 0,000 mm 0,0 UV-I 0 W/m 9,4 C 10,8 C 6,4 km/h (2 Bft) 100,00 %
05.09.2017 01:08 10,8 C 18,9 C 91 % 1019,9 hPa 0,0 l/m 3,3 km/h (1 Bft) S 182 0 min 0,000 mm 0,0 UV-I 0 W/m 9,4 C 10,8 C 6,4 km/h (2 Bft) 100,00 %
05.09.2017 01:10 10,8 C 18,9 C 91 % 1019,8 hPa 0,0 l/m 4,7 km/h (1 Bft) S 182 0 min 0,000 mm 0,0 UV-I 0 W/m 9,4 C 10,8 C 6,4 km/h (2 Bft) 100,00 %
05.09.2017 01:12 10,8 C 18,9 C 91 % 1019,8 hPa 0,0 l/m 4,9 km/h (1 Bft) S 184 0 min 0,000 mm 0,0 UV-I 0 W/m 9,4 C 10,8 C 6,4 km/h (2 Bft) 100,00 %
05.09.2017 01:14 10,8 C 18,9 C 91 % 1019,9 hPa 0,0 l/m 4,0 km/h (1 Bft) S 190 0 min 0,000 mm 0,0 UV-I 0 W/m 9,4 C 10,8 C 6,4 km/h (2 Bft) 97,87 %
05.09.2017 01:16 10,8 C 18,9 C 91 % 1019,8 hPa 0,0 l/m 4,8 km/h (1 Bft) S-SW 198 0 min 0,000 mm 0,0 UV-I 0 W/m 9,4 C 10,8 C 6,4 km/h (2 Bft) 97,92 %
05.09.2017 01:18 10,8 C 18,9 C 91 % 1019,8 hPa 0,0 l/m 4,6 km/h (1 Bft) S-SW 198 0 min 0,000 mm 0,0 UV-I 0 W/m 9,4 C 10,8 C 6,4 km/h (2 Bft) 97,87 %
05.09.2017 01:20 10,8 C 18,9 C 91 % 1019,8 hPa 0,0 l/m 4,2 km/h (1 Bft) S-SW 198 0 min 0,000 mm 0,0 UV-I 0 W/m 9,4 C 10,8 C 6,4 km/h (2 Bft) 100,00 %
05.09.2017 01:22 10,7 C 18,9 C 91 % 1019,8 hPa 0,0 l/m 4,1 km/h (1 Bft) S-SW 198 0 min 0,000 mm 0,0 UV-I 0 W/m 9,3 C 10,7 C 6,4 km/h (2 Bft) 100,00 %
05.09.2017 01:24 10,7 C 18,9 C 91 % 1019,8 hPa 0,0 l/m 4,6 km/h (1 Bft) S-SW 198 0 min 0,000 mm 0,0 UV-I 0 W/m 9,3 C 10,7 C 6,4 km/h (2 Bft) 100,00 %
05.09.2017 01:26 10,7 C 18,9 C 91 % 1019,9 hPa 0,0 l/m 4,5 km/h (1 Bft) S-SW 198 0 min 0,000 mm 0,0 UV-I 0 W/m 9,3 C 10,7 C 6,4 km/h (2 Bft) 100,00 %
05.09.2017 01:28 10,7 C 18,9 C 91 % 1019,9 hPa 0,0 l/m 4,5 km/h (1 Bft) S-SW 198 0 min 0,000 mm 0,0 UV-I 0 W/m 9,3 C 10,7 C 6,4 km/h (2 Bft) 100,00 %
05.09.2017 01:30 10,7 C 18,9 C 91 % 1019,9 hPa 0,0 l/m 4,7 km/h (1 Bft) S-SW 198 0 min 0,000 mm 0,0 UV-I 0 W/m 9,3 C 10,7 C 6,4 km/h (2 Bft) 100,00 %
05.09.2017 01:32 10,7 C 18,9 C 91 % 1019,9 hPa 0,0 l/m 3,4 km/h (1 Bft) S-SW 198 0 min 0,000 mm 0,0 UV-I 0 W/m 9,3 C 10,7 C 4,8 km/h (1 Bft) 100,00 %
05.09.2017 01:34 10,7 C 18,9 C 91 % 1019,9 hPa 0,0 l/m 2,8 km/h (1 Bft) S-SW 198 0 min 0,000 mm 0,0 UV-I 0 W/m 9,3 C 10,7 C 4,8 km/h (1 Bft) 100,00 %
05.09.2017 01:36 10,7 C 18,9 C 91 % 1019,9 hPa 0,0 l/m 3,7 km/h (1 Bft) S-SW 198 0 min 0,000 mm 0,0 UV-I 0 W/m 9,3 C 10,7 C 6,4 km/h (2 Bft) 97,87 %
05.09.2017 01:38 10,7 C 18,9 C 91 % 1019,9 hPa 0,0 l/m 3,0 km/h (1 Bft) S 177 0 min 0,000 mm 0,0 UV-I 0 W/m 9,3 C 10,7 C 4,8 km/h (1 Bft) 95,74 %
05.09.2017 01:40 10,7 C 18,9 C 91 % 1019,9 hPa 0,0 l/m 4,0 km/h (1 Bft) S 187 0 min 0,000 mm 0,0 UV-I 0 W/m 9,3 C 10,7 C 6,4 km/h (2 Bft) 97,87 %
05.09.2017 01:42 10,6 C 18,9 C 91 % 1019,9 hPa 0,0 l/m 3,8 km/h (1 Bft) S 188 0 min 0,000 mm 0,0 UV-I 0 W/m 9,2 C 10,6 C 6,4 km/h (2 Bft) 97,87 %
05.09.2017 01:44 10,6 C 18,9 C 91 % 1019,8 hPa 0,0 l/m 3,2 km/h (1 Bft) S 188 0 min 0,000 mm 0,0 UV-I 0 W/m 9,2 C 10,6 C 4,8 km/h (1 Bft) 98,00 %
05.09.2017 01:46 10,6 C 18,9 C 91 % 1019,8 hPa 0,0 l/m 4,1 km/h (1 Bft) S-SW 198 0 min 0,000 mm 0,0 UV-I 0 W/m 9,2 C 10,6 C 8,0 km/h (2 Bft) 95,74 %
05.09.2017 01:48 10,7 C 18,9 C 92 % 1019,8 hPa 0,0 l/m 2,4 km/h (1 Bft) S-SW 198 0 min 0,000 mm 0,0 UV-I 0 W/m 9,5 C 10,7 C 4,8 km/h (1 Bft) 97,87 %
05.09.2017 01:50 10,6 C 18,9 C 92 % 1019,8 hPa 0,0 l/m 5,0 km/h (1 Bft) S 189 0 min 0,000 mm 0,0 UV-I 0 W/m 9,4 C 10,6 C 8,0 km/h (2 Bft) 100,00 %
05.09.2017 01:52 10,6 C 18,9 C 92 % 1019,9 hPa 0,0 l/m 5,0 km/h (1 Bft) S-SW 196 0 min 0,000 mm 0,0 UV-I 0 W/m 9,4 C 10,6 C 8,0 km/h (2 Bft) 96,00 %
05.09.2017 01:54 10,6 C 18,9 C 92 % 1019,9 hPa 0,0 l/m 4,2 km/h (1 Bft) S 189 0 min 0,000 mm 0,0 UV-I 0 W/m 9,4 C 10,6 C 6,4 km/h (2 Bft) 97,87 %
05.09.2017 01:56 10,6 C 18,9 C 92 % 1019,9 hPa 0,0 l/m 3,8 km/h (1 Bft) S 189 0 min 0,000 mm 0,0 UV-I 0 W/m 9,4 C 10,6 C 6,4 km/h (2 Bft) 96,00 %
05.09.2017 01:58 10,6 C 18,9 C 92 % 1019,9 hPa 0,0 l/m 4,1 km/h (1 Bft) S 189 0 min 0,000 mm 0,0 UV-I 0 W/m 9,4 C 10,6 C 6,4 km/h (2 Bft) 96,00 %
05.09.2017 02:00 10,6 C 18,9 C 92 % 1019,9 hPa 0,0 l/m 4,7 km/h (1 Bft) S 189 0 min 0,000 mm 0,0 UV-I 0 W/m 9,4 C 10,6 C 8,0 km/h (2 Bft) 95,74 %
05.09.2017 02:02 10,6 C 18,9 C 92 % 1020,0 hPa 0,0 l/m 4,2 km/h (1 Bft) S 189 0 min 0,000 mm 0,0 UV-I 0 W/m 9,4 C 10,6 C 4,8 km/h (1 Bft) 95,74 %
05.09.2017 02:04 10,6 C 18,9 C 92 % 1020,0 hPa 0,0 l/m 4,2 km/h (1 Bft) S 189 0 min 0,000 mm 0,0 UV-I 0 W/m 9,4 C 10,6 C 6,4 km/h (2 Bft) 95,74 %
05.09.2017 02:06 10,6 C 18,9 C 92 % 1020,0 hPa 0,0 l/m 3,6 km/h (1 Bft) S 189 0 min 0,000 mm 0,0 UV-I 0 W/m 9,4 C 10,6 C 4,8 km/h (1 Bft) 92,11 %
05.09.2017 02:08 10,5 C 18,9 C 92 % 1020,0 hPa 0,0 l/m 3,7 km/h (1 Bft) S 189 0 min 0,000 mm 0,0 UV-I 0 W/m 9,3 C 10,5 C 6,4 km/h (2 Bft) 95,74 %
05.09.2017 02:10 10,5 C 18,9 C 92 % 1020,0 hPa 0,0 l/m 4,0 km/h (1 Bft) S 189 0 min 0,000 mm 0,0 UV-I 0 W/m 9,3 C 10,5 C 6,4 km/h (2 Bft) 95,74 %
05.09.2017 02:12 10,5 C 18,9 C 92 % 1020,0 hPa 0,0 l/m 4,0 km/h (1 Bft) S 189 0 min 0,000 mm 0,0 UV-I 0 W/m 9,3 C 10,5 C 4,8 km/h (1 Bft) 91,49 %
05.09.2017 02:14 10,4 C 18,9 C 92 % 1020,0 hPa 0,0 l/m 4,4 km/h (1 Bft) S 190 0 min 0,000 mm 0,0 UV-I 0 W/m 9,2 C 10,4 C 6,4 km/h (2 Bft) 94,00 %
05.09.2017 02:16 10,4 C 18,9 C 92 % 1019,9 hPa 0,0 l/m 3,7 km/h (1 Bft) S 189 0 min 0,000 mm 0,0 UV-I 0 W/m 9,2 C 10,4 C 6,4 km/h (2 Bft) 91,49 %
05.09.2017 02:18 10,4 C 18,9 C 92 % 1019,9 hPa 0,0 l/m 3,6 km/h (1 Bft) S 189 0 min 0,000 mm 0,0 UV-I 0 W/m 9,2 C 10,4 C 4,8 km/h (1 Bft) 95,74 %
05.09.2017 02:20 10,4 C 18,9 C 92 % 1020,0 hPa 0,0 l/m 3,8 km/h (1 Bft) S 189 0 min 0,000 mm 0,0 UV-I 0 W/m 9,2 C 10,4 C 4,8 km/h (1 Bft) 95,74 %
05.09.2017 02:22 10,4 C 18,9 C 92 % 1020,0 hPa 0,0 l/m 3,7 km/h (1 Bft) S 189 0 min 0,000 mm 0,0 UV-I 0 W/m 9,2 C 10,4 C 4,8 km/h (1 Bft) 95,74 %
05.09.2017 02:24 10,4 C 18,9 C 92 % 1019,9 hPa 0,0 l/m 2,9 km/h (1 Bft) S 189 0 min 0,000 mm 0,0 UV-I 0 W/m 9,2 C 10,4 C 4,8 km/h (1 Bft) 93,62 %
05.09.2017 02:26 10,4 C 18,9 C 92 % 1019,9 hPa 0,0 l/m 3,6 km/h (1 Bft) S 189 0 min 0,000 mm 0,0 UV-I 0 W/m 9,2 C 10,4 C 4,8 km/h (1 Bft) 95,74 %
05.09.2017 02:28 10,4 C 18,9 C 92 % 1019,9 hPa 0,0 l/m 3,2 km/h (1 Bft) S 189 0 min 0,000 mm 0,0 UV-I 0 W/m 9,2 C 10,4 C 4,8 km/h (1 Bft) 94,34 %
05.09.2017 02:30 10,4 C 18,9 C 92 % 1019,9 hPa 0,0 l/m 0,8 km/h (0 Bft) S 189 0 min 0,000 mm 0,0 UV-I 0 W/m 9,2 C 10,4 C 3,2 km/h (1 Bft) 97,22 %
05.09.2017 02:32 10,4 C 18,9 C 92 % 1020,0 hPa 0,0 l/m 1,6 km/h (1 Bft) S 189 0 min 0,000 mm 0,0 UV-I 0 W/m 9,2 C 10,4 C 3,2 km/h (1 Bft) 95,83 %
05.09.2017 02:34 10,4 C 18,9 C 92 % 1020,0 hPa 0,0 l/m 2,6 km/h (1 Bft) S 189 0 min 0,000 mm 0,0 UV-I 0 W/m 9,2 C 10,4 C 3,2 km/h (1 Bft) 100,00 %
05.09.2017 02:36 10,4 C 18,9 C 92 % 1020,0 hPa 0,0 l/m 1,7 km/h (1 Bft) S 189 0 min 0,000 mm 0,0 UV-I 0 W/m 9,2 C 10,4 C 3,2 km/h (1 Bft) 97,87 %
05.09.2017 02:38 10,4 C 18,9 C 92 % 1020,0 hPa 0,0 l/m 0,7 km/h (0 Bft) S 189 0 min 0,000 mm 0,0 UV-I 0 W/m 9,2 C 10,4 C 1,6 km/h (1 Bft) 97,87 %
05.09.2017 02:40 10,4 C 18,9 C 92 % 1020,0 hPa 0,0 l/m 1,2 km/h (1 Bft) S 189 0 min 0,000 mm 0,0 UV-I 0 W/m 9,2 C 10,4 C 3,2 km/h (1 Bft) 97,87 %
05.09.2017 02:42 10,4 C 18,9 C 92 % 1020,0 hPa 0,0 l/m 1,6 km/h (1 Bft) S 189 0 min 0,000 mm 0,0 UV-I 0 W/m 9,2 C 10,4 C 3,2 km/h (1 Bft) 100,00 %
05.09.2017 02:44 10,4 C 18,9 C 92 % 1019,9 hPa 0,0 l/m 2,8 km/h (1 Bft) S 189 0 min 0,000 mm 0,0 UV-I 0 W/m 9,2 C 10,4 C 4,8 km/h (1 Bft) 100,00 %
05.09.2017 02:46 10,3 C 18,9 C 92 % 1019,9 hPa 0,0 l/m 1,9 km/h (1 Bft) S 189 0 min 0,000 mm 0,0 UV-I 0 W/m 9,1 C 10,3 C 3,2 km/h (1 Bft) 100,00 %
05.09.2017 02:48 10,3 C 18,9 C 92 % 1019,9 hPa 0,0 l/m 2,8 km/h (1 Bft) S 189 0 min 0,000 mm 0,0 UV-I 0 W/m 9,1 C 10,3 C 4,8 km/h (1 Bft) 97,14 %
05.09.2017 02:50 10,3 C 18,9 C 92 % 1019,9 hPa 0,0 l/m 2,5 km/h (1 Bft) S 189 0 min 0,000 mm 0,0 UV-I 0 W/m 9,1 C 10,3 C 4,8 km/h (1 Bft) 100,00 %
05.09.2017 02:52 10,3 C 18,9 C 92 % 1020,0 hPa 0,0 l/m 1,2 km/h (1 Bft) S 189 0 min 0,000 mm 0,0 UV-I 0 W/m 9,1 C 10,3 C 3,2 km/h (1 Bft) 100,00 %
05.09.2017 02:54 10,3 C 18,9 C 92 % 1020,0 hPa 0,0 l/m 2,3 km/h (1 Bft) S 189 0 min 0,000 mm 0,0 UV-I 0 W/m 9,1 C 10,3 C 3,2 km/h (1 Bft) 97,87 %
05.09.2017 02:56 10,3 C 18,9 C 92 % 1020,0 hPa 0,0 l/m 2,0 km/h (1 Bft) S 189 0 min 0,000 mm 0,0 UV-I 0 W/m 9,1 C 10,3 C 3,2 km/h (1 Bft) 100,00 %
05.09.2017 02:58 10,3 C 18,9 C 92 % 1020,0 hPa 0,0 l/m 2,4 km/h (1 Bft) S 189 0 min 0,000 mm 0,0 UV-I 0 W/m 9,1 C 10,3 C 4,8 km/h (1 Bft) 98,39 %
05.09.2017 03:00 10,3 C 18,9 C 93 % 1019,9 hPa 0,0 l/m 1,8 km/h (1 Bft) S 189 0 min 0,000 mm 0,0 UV-I 0 W/m 9,2 C 10,3 C 3,2 km/h (1 Bft) 97,87 %
05.09.2017 03:02 10,2 C 18,9 C 93 % 1019,9 hPa 0,0 l/m 0,4 km/h (0 Bft) S 189 0 min 0,000 mm 0,0 UV-I 0 W/m 9,1 C 10,2 C 1,6 km/h (1 Bft) 100,00 %
05.09.2017 03:04 10,2 C 18,9 C 92 % 1019,9 hPa 0,0 l/m 1,1 km/h (1 Bft) S 189 0 min 0,000 mm 0,0 UV-I 0 W/m 9,0 C 10,2 C 3,2 km/h (1 Bft) 100,00 %
05.09.2017 03:06 10,2 C 18,9 C 92 % 1019,9 hPa 0,0 l/m 1,8 km/h (1 Bft) S 189 0 min 0,000 mm 0,0 UV-I 0 W/m 9,0 C 10,2 C 3,2 km/h (1 Bft) 100,00 %
05.09.2017 03:08 10,2 C 18,9 C 92 % 1019,9 hPa 0,0 l/m 0,8 km/h (0 Bft) S 189 0 min 0,000 mm 0,0 UV-I 0 W/m 9,0 C 10,2 C 1,6 km/h (1 Bft) 97,87 %
05.09.2017 03:10 10,1 C 18,9 C 93 % 1019,9 hPa 0,0 l/m 1,1 km/h (1 Bft) S 189 0 min 0,000 mm 0,0 UV-I 0 W/m 9,0 C 10,1 C 1,6 km/h (1 Bft) 97,87 %
05.09.2017 03:12 10,1 C 18,9 C 93 % 1019,9 hPa 0,0 l/m 0,6 km/h (0 Bft) S 189 0 min 0,000 mm 0,0 UV-I 0 W/m 9,0 C 10,1 C 1,6 km/h (1 Bft) 100,00 %
05.09.2017 03:14 10,1 C 18,9 C 93 % 1019,9 hPa 0,0 l/m 0,1 km/h (0 Bft) S 189 0 min 0,000 mm 0,0 UV-I 0 W/m 9,0 C 10,1 C 1,6 km/h (1 Bft) 97,87 %
05.09.2017 03:16 10,1 C 18,9 C 93 % 1019,9 hPa 0,0 l/m 0,3 km/h (0 Bft) S 189 0 min 0,000 mm 0,0 UV-I 0 W/m 9,0 C 10,1 C 1,6 km/h (1 Bft) 100,00 %
05.09.2017 03:18 10,1 C 18,9 C 93 % 1019,8 hPa 0,0 l/m 0,0 km/h (0 Bft) S 189 0 min 0,000 mm 0,0 UV-I 0 W/m 9,0 C 10,1 C 0,0 km/h (0 Bft) 97,87 %
05.09.2017 03:20 10,0 C 18,9 C 93 % 1019,8 hPa 0,0 l/m 0,0 km/h (0 Bft) S 189 0 min 0,000 mm 0,0 UV-I 0 W/m 8,9 C 10,0 C 0,0 km/h (0 Bft) 100,00 %
05.09.2017 03:22 10,0 C 18,9 C 93 % 1019,9 hPa 0,0 l/m 0,0 km/h (0 Bft) S 189 0 min 0,000 mm 0,0 UV-I 0 W/m 8,9 C 10,0 C 0,0 km/h (0 Bft) 100,00 %
05.09.2017 03:24 9,9 C 18,9 C 93 % 1019,8 hPa 0,0 l/m 0,0 km/h (0 Bft) S 189 0 min 0,000 mm 0,0 UV-I 0 W/m 8,8 C 9,9 C 0,0 km/h (0 Bft) 97,87 %
05.09.2017 03:26 9,9 C 18,9 C 93 % 1019,8 hPa 0,0 l/m 0,0 km/h (0 Bft) S 189 0 min 0,000 mm 0,0 UV-I 0 W/m 8,8 C 9,9 C 0,0 km/h (0 Bft) 100,00 %
05.09.2017 03:28 9,9 C 18,9 C 93 % 1019,8 hPa 0,0 l/m 0,0 km/h (0 Bft) S 189 0 min 0,000 mm 0,0 UV-I 0 W/m 8,8 C 9,9 C 0,0 km/h (0 Bft) 100,00 %
05.09.2017 03:30 9,9 C 18,9 C 93 % 1019,8 hPa 0,0 l/m 0,0 km/h (0 Bft) S 189 0 min 0,000 mm 0,0 UV-I 0 W/m 8,8 C 9,9 C 0,0 km/h (0 Bft) 97,87 %
05.09.2017 03:32 9,8 C 18,9 C 93 % 1019,7 hPa 0,0 l/m 0,0 km/h (0 Bft) S 189 0 min 0,000 mm 0,0 UV-I 0 W/m 8,7 C 9,8 C 0,0 km/h (0 Bft) 100,00 %
05.09.2017 03:34 9,8 C 18,9 C 93 % 1019,7 hPa 0,0 l/m 0,0 km/h (0 Bft) S 189 0 min 0,000 mm 0,0 UV-I 0 W/m 8,7 C 9,8 C 1,6 km/h (1 Bft) 97,87 %
05.09.2017 03:36 9,8 C 18,9 C 93 % 1019,8 hPa 0,0 l/m 0,4 km/h (0 Bft) S 189 0 min 0,000 mm 0,0 UV-I 0 W/m 8,7 C 9,8 C 3,2 km/h (1 Bft) 100,00 %
05.09.2017 03:38 9,8 C 18,9 C 93 % 1019,7 hPa 0,0 l/m 1,6 km/h (1 Bft) S 189 0 min 0,000 mm 0,0 UV-I 0 W/m 8,7 C 9,8 C 3,2 km/h (1 Bft) 98,00 %
05.09.2017 03:40 9,7 C 18,9 C 93 % 1019,6 hPa 0,0 l/m 2,1 km/h (1 Bft) S 189 0 min 0,000 mm 0,0 UV-I 0 W/m 8,6 C 9,7 C 3,2 km/h (1 Bft) 100,00 %
05.09.2017 03:42 9,7 C 18,9 C 93 % 1019,6 hPa 0,0 l/m 2,3 km/h (1 Bft) S 189 0 min 0,000 mm 0,0 UV-I 0 W/m 8,6 C 9,7 C 3,2 km/h (1 Bft) 100,00 %
05.09.2017 03:44 9,6 C 18,9 C 93 % 1019,7 hPa 0,0 l/m 1,9 km/h (1 Bft) S 189 0 min 0,000 mm 0,0 UV-I 0 W/m 8,5 C 9,6 C 3,2 km/h (1 Bft) 100,00 %
05.09.2017 03:46 9,5 C 18,9 C 93 % 1019,7 hPa 0,0 l/m 1,4 km/h (1 Bft) S 189 0 min 0,000 mm 0,0 UV-I 0 W/m 8,4 C 9,5 C 3,2 km/h (1 Bft) 97,87 %
05.09.2017 03:48 9,4 C 18,9 C 93 % 1019,7 hPa 0,0 l/m 0,5 km/h (0 Bft) S 189 0 min 0,000 mm 0,0 UV-I 0 W/m 8,3 C 9,4 C 1,6 km/h (1 Bft) 97,87 %
05.09.2017 03:50 9,3 C 18,9 C 93 % 1019,8 hPa 0,0 l/m 0,0 km/h (0 Bft) S 189 0 min 0,000 mm 0,0 UV-I 0 W/m 8,2 C 9,3 C 0,0 km/h (0 Bft) 97,87 %
05.09.2017 03:52 9,3 C 18,9 C 93 % 1019,7 hPa 0,0 l/m 0,0 km/h (0 Bft) S 189 0 min 0,000 mm 0,0 UV-I 0 W/m 8,2 C 9,3 C 0,0 km/h (0 Bft) 100,00 %
05.09.2017 03:54 9,3 C 18,9 C 93 % 1019,8 hPa 0,0 l/m 0,0 km/h (0 Bft) S 189 0 min 0,000 mm 0,0 UV-I 0 W/m 8,2 C 9,3 C 0,0 km/h (0 Bft) 95,83 %
05.09.2017 03:56 9,3 C 18,9 C 93 % 1019,8 hPa 0,0 l/m 0,0 km/h (0 Bft) S 189 0 min 0,000 mm 0,0 UV-I 0 W/m 8,2 C 9,3 C 0,0 km/h (0 Bft) 97,87 %
05.09.2017 03:58 9,2 C 18,9 C 94 % 1019,8 hPa 0,0 l/m 0,0 km/h (0 Bft) S 189 0 min 0,000 mm 0,0 UV-I 0 W/m 8,3 C 9,2 C 1,6 km/h (1 Bft) 100,00 %
05.09.2017 04:00 9,2 C 18,9 C 94 % 1019,8 hPa 0,0 l/m 2,0 km/h (1 Bft) S 189 0 min 0,000 mm 0,0 UV-I 0 W/m 8,3 C 9,2 C 3,2 km/h (1 Bft) 98,00 %
05.09.2017 04:02 9,2 C 18,9 C 94 % 1019,7 hPa 0,0 l/m 0,9 km/h (0 Bft) S 189 0 min 0,000 mm 0,0 UV-I 0 W/m 8,3 C 9,2 C 1,6 km/h (1 Bft) 97,06 %
05.09.2017 04:04 9,2 C 18,9 C 94 % 1019,7 hPa 0,0 l/m 0,8 km/h (0 Bft) S 189 0 min 0,000 mm 0,0 UV-I 0 W/m 8,3 C 9,2 C 1,6 km/h (1 Bft) 95,74 %
05.09.2017 04:06 9,1 C 18,9 C 94 % 1019,7 hPa 0,0 l/m 1,2 km/h (1 Bft) S 189 0 min 0,000 mm 0,0 UV-I 0 W/m 8,2 C 9,1 C 3,2 km/h (1 Bft) 98,11 %
05.09.2017 04:08 9,1 C 18,9 C 94 % 1019,6 hPa 0,0 l/m 1,6 km/h (1 Bft) S 189 0 min 0,000 mm 0,0 UV-I 0 W/m 8,2 C 9,1 C 3,2 km/h (1 Bft) 95,74 %
05.09.2017 04:10 9,1 C 18,9 C 94 % 1019,6 hPa 0,0 l/m 2,2 km/h (1 Bft) S 189 0 min 0,000 mm 0,0 UV-I 0 W/m 8,2 C 9,1 C 3,2 km/h (1 Bft) 97,87 %
05.09.2017 04:12 9,0 C 18,9 C 94 % 1019,6 hPa 0,0 l/m 2,0 km/h (1 Bft) S 189 0 min 0,000 mm 0,0 UV-I 0 W/m 8,1 C 9,0 C 4,8 km/h (1 Bft) 95,74 %
05.09.2017 04:14 8,9 C 18,9 C 94 % 1019,6 hPa 0,0 l/m 0,9 km/h (0 Bft) S 189 0 min 0,000 mm 0,0 UV-I 0 W/m 8,0 C 8,9 C 3,2 km/h (1 Bft) 95,74 %
05.09.2017 04:16 8,9 C 18,9 C 94 % 1019,7 hPa 0,0 l/m 1,6 km/h (1 Bft) S 189 0 min 0,000 mm 0,0 UV-I 0 W/m 8,0 C 8,9 C 3,2 km/h (1 Bft) 97,87 %
05.09.2017 04:18 8,9 C 18,9 C 94 % 1019,7 hPa 0,0 l/m 0,7 km/h (0 Bft) S 189 0 min 0,000 mm 0,0 UV-I 0 W/m 8,0 C 8,9 C 3,2 km/h (1 Bft) 97,87 %
05.09.2017 04:20 8,9 C 18,9 C 94 % 1019,7 hPa 0,0 l/m 0,0 km/h (0 Bft) S 189 0 min 0,000 mm 0,0 UV-I 0 W/m 8,0 C 8,9 C 0,0 km/h (0 Bft) 97,87 %
05.09.2017 04:22 8,9 C 18,9 C 94 % 1019,7 hPa 0,0 l/m 0,0 km/h (0 Bft) S 189 0 min 0,000 mm 0,0 UV-I 0 W/m 8,0 C 8,9 C 0,0 km/h (0 Bft) 97,87 %
05.09.2017 04:24 8,9 C 18,9 C 95 % 1019,7 hPa 0,0 l/m 0,0 km/h (0 Bft) S 189 0 min 0,000 mm 0,0 UV-I 0 W/m 8,1 C 8,9 C 0,0 km/h (0 Bft) 97,87 %
05.09.2017 04:26 9,1 C 18,9 C 95 % 1019,7 hPa 0,0 l/m 0,0 km/h (0 Bft) S 189 0 min 0,000 mm 0,0 UV-I 0 W/m 8,3 C 9,1 C 0,0 km/h (0 Bft) 95,74 %
05.09.2017 04:28 9,1 C 18,9 C 95 % 1019,7 hPa 0,0 l/m 0,0 km/h (0 Bft) S 189 0 min 0,000 mm 0,0 UV-I 0 W/m 8,3 C 9,1 C 0,0 km/h (0 Bft) 100,00 %
05.09.2017 04:30 9,1 C 18,9 C 95 % 1019,7 hPa 0,0 l/m 0,0 km/h (0 Bft) S 189 0 min 0,000 mm 0,0 UV-I 0 W/m 8,3 C 9,1 C 0,0 km/h (0 Bft) 97,87 %
05.09.2017 04:32 9,1 C 18,9 C 95 % 1019,7 hPa 0,0 l/m 0,1 km/h (0 Bft) S 189 0 min 0,000 mm 0,0 UV-I 0 W/m 8,3 C 9,1 C 1,6 km/h (1 Bft) 93,62 %
05.09.2017 04:34 9,1 C 18,9 C 95 % 1019,7 hPa 0,0 l/m 2,1 km/h (1 Bft) S 189 0 min 0,000 mm 0,0 UV-I 0 W/m 8,3 C 9,1 C 3,2 km/h (1 Bft) 97,87 %
05.09.2017 04:36 9,0 C 18,9 C 95 % 1019,6 hPa 0,0 l/m 1,9 km/h (1 Bft) S 189 0 min 0,000 mm 0,0 UV-I 0 W/m 8,2 C 9,0 C 3,2 km/h (1 Bft) 100,00 %
05.09.2017 04:38 8,9 C 18,9 C 95 % 1019,6 hPa 0,0 l/m 1,2 km/h (1 Bft) S 189 0 min 0,000 mm 0,0 UV-I 0 W/m 8,1 C 8,9 C 3,2 km/h (1 Bft) 100,00 %
05.09.2017 04:40 8,9 C 18,3 C 95 % 1019,6 hPa 0,0 l/m 1,1 km/h (1 Bft) S 189 0 min 0,000 mm 0,0 UV-I 0 W/m 8,1 C 8,9 C 3,2 km/h (1 Bft) 100,00 %
05.09.2017 04:42 8,9 C 18,9 C 95 % 1019,6 hPa 0,0 l/m 2,1 km/h (1 Bft) S 189 0 min 0,000 mm 0,0 UV-I 0 W/m 8,1 C 8,9 C 3,2 km/h (1 Bft) 100,00 %
05.09.2017 04:44 8,8 C 18,3 C 95 % 1019,6 hPa 0,0 l/m 1,9 km/h (1 Bft) S 189 0 min 0,000 mm 0,0 UV-I 0 W/m 8,0 C 8,8 C 4,8 km/h (1 Bft) 95,74 %
05.09.2017 04:46 8,8 C 18,3 C 94 % 1019,6 hPa 0,0 l/m 1,5 km/h (1 Bft) S 189 0 min 0,000 mm 0,0 UV-I 0 W/m 7,9 C 8,8 C 3,2 km/h (1 Bft) 95,74 %
05.09.2017 04:48 8,7 C 18,3 C 94 % 1019,6 hPa 0,0 l/m 1,5 km/h (1 Bft) S 189 0 min 0,000 mm 0,0 UV-I 0 W/m 7,8 C 8,7 C 3,2 km/h (1 Bft) 98,00 %
05.09.2017 04:50 8,7 C 18,3 C 95 % 1019,6 hPa 0,0 l/m 1,9 km/h (1 Bft) S 189 0 min 0,000 mm 0,0 UV-I 0 W/m 7,9 C 8,7 C 4,8 km/h (1 Bft) 98,00 %
05.09.2017 04:52 8,7 C 18,3 C 95 % 1019,6 hPa 0,0 l/m 1,8 km/h (1 Bft) S 189 0 min 0,000 mm 0,0 UV-I 0 W/m 7,9 C 8,7 C 4,8 km/h (1 Bft) 97,37 %
05.09.2017 04:54 8,7 C 18,3 C 95 % 1019,6 hPa 0,0 l/m 0,7 km/h (0 Bft) S 189 0 min 0,000 mm 0,0 UV-I 0 W/m 7,9 C 8,7 C 3,2 km/h (1 Bft) 95,74 %
05.09.2017 04:56 8,7 C 18,3 C 95 % 1019,6 hPa 0,0 l/m 2,4 km/h (1 Bft) S 189 0 min 0,000 mm 0,0 UV-I 0 W/m 7,9 C 8,7 C 4,8 km/h (1 Bft) 98,00 %
05.09.2017 04:58 8,7 C 18,3 C 95 % 1019,6 hPa 0,0 l/m 1,7 km/h (1 Bft) S 189 0 min 0,000 mm 0,0 UV-I 0 W/m 7,9 C 8,7 C 3,2 km/h (1 Bft) 93,62 %
05.09.2017 05:00 8,6 C 18,3 C 95 % 1019,5 hPa 0,0 l/m 1,7 km/h (1 Bft) S 189 0 min 0,000 mm 0,0 UV-I 0 W/m 7,8 C 8,6 C 3,2 km/h (1 Bft) 98,00 %
05.09.2017 05:02 8,6 C 18,3 C 95 % 1019,6 hPa 0,0 l/m 2,8 km/h (1 Bft) S 189 0 min 0,000 mm 0,0 UV-I 0 W/m 7,8 C 8,6 C 4,8 km/h (1 Bft) 95,74 %
05.09.2017 05:04 8,6 C 18,3 C 95 % 1019,6 hPa 0,0 l/m 2,6 km/h (1 Bft) S 189 0 min 0,000 mm 0,0 UV-I 0 W/m 7,8 C 8,6 C 3,2 km/h (1 Bft) 97,87 %
05.09.2017 05:06 8,6 C 18,3 C 95 % 1019,6 hPa 0,0 l/m 2,1 km/h (1 Bft) S 189 0 min 0,000 mm 0,0 UV-I 0 W/m 7,8 C 8,6 C 4,8 km/h (1 Bft) 97,87 %
05.09.2017 05:08 8,7 C 18,3 C 95 % 1019,6 hPa 0,0 l/m 1,7 km/h (1 Bft) S 189 0 min 0,000 mm 0,0 UV-I 0 W/m 7,9 C 8,7 C 3,2 km/h (1 Bft) 97,87 %
05.09.2017 05:10 8,7 C 18,3 C 95 % 1019,6 hPa 0,0 l/m 1,4 km/h (1 Bft) S 189 0 min 0,000 mm 0,0 UV-I 0 W/m 7,9 C 8,7 C 1,6 km/h (1 Bft) 97,87 %
05.09.2017 05:12 8,7 C 18,3 C 95 % 1019,7 hPa 0,0 l/m 1,0 km/h (0 Bft) S 189 0 min 0,000 mm 0,0 UV-I 0 W/m 7,9 C 8,7 C 1,6 km/h (1 Bft) 97,87 %
05.09.2017 05:14 8,7 C 18,3 C 95 % 1019,6 hPa 0,0 l/m 2,2 km/h (1 Bft) S 189 0 min 0,000 mm 0,0 UV-I 0 W/m 7,9 C 8,7 C 3,2 km/h (1 Bft) 97,92 %
05.09.2017 05:16 8,8 C 18,3 C 95 % 1019,6 hPa 0,0 l/m 2,7 km/h (1 Bft) S 189 0 min 0,000 mm 0,0 UV-I 0 W/m 8,0 C 8,8 C 3,2 km/h (1 Bft) 97,87 %
05.09.2017 05:18 8,8 C 18,3 C 95 % 1019,7 hPa 0,0 l/m 2,4 km/h (1 Bft) S 189 0 min 0,000 mm 0,0 UV-I 0 W/m 8,0 C 8,8 C 3,2 km/h (1 Bft) 95,74 %
05.09.2017 05:20 8,8 C 18,3 C 95 % 1019,7 hPa 0,0 l/m 2,4 km/h (1 Bft) S 189 0 min 0,000 mm 0,0 UV-I 0 W/m 8,0 C 8,8 C 3,2 km/h (1 Bft) 97,87 %
05.09.2017 05:22 8,8 C 18,3 C 95 % 1019,7 hPa 0,0 l/m 1,3 km/h (1 Bft) S 189 0 min 0,000 mm 0,0 UV-I 0 W/m 8,0 C 8,8 C 3,2 km/h (1 Bft) 97,87 %
05.09.2017 05:24 8,8 C 18,3 C 95 % 1019,8 hPa 0,0 l/m 0,7 km/h (0 Bft) S 189 0 min 0,000 mm 0,0 UV-I 0 W/m 8,0 C 8,8 C 3,2 km/h (1 Bft) 97,14 %
05.09.2017 05:26 8,8 C 18,3 C 95 % 1019,8 hPa 0,0 l/m 0,0 km/h (0 Bft) S 189 0 min 0,000 mm 0,0 UV-I 0 W/m 8,0 C 8,8 C 0,0 km/h (0 Bft) 95,74 %
05.09.2017 05:28 8,8 C 18,3 C 95 % 1019,7 hPa 0,0 l/m 0,0 km/h (0 Bft) S 189 0 min 0,000 mm 0,0 UV-I 0 W/m 8,0 C 8,8 C 0,0 km/h (0 Bft) 96,00 %
05.09.2017 05:30 8,8 C 18,3 C 95 % 1019,7 hPa 0,0 l/m 0,0 km/h (0 Bft) S 189 0 min 0,000 mm 0,0 UV-I 0 W/m 8,0 C 8,8 C 1,6 km/h (1 Bft) 97,87 %
05.09.2017 05:32 8,7 C 18,3 C 95 % 1019,7 hPa 0,0 l/m 0,0 km/h (0 Bft) S 189 0 min 0,000 mm 0,0 UV-I 0 W/m 7,9 C 8,7 C 0,0 km/h (0 Bft) 97,87 %
05.09.2017 05:34 8,7 C 18,3 C 95 % 1019,8 hPa 0,0 l/m 0,3 km/h (0 Bft) S 189 0 min 0,000 mm 0,0 UV-I 0 W/m 7,9 C 8,7 C 1,6 km/h (1 Bft) 100,00 %
05.09.2017 05:36 8,7 C 18,3 C 95 % 1019,7 hPa 0,0 l/m 0,0 km/h (0 Bft) S 189 0 min 0,000 mm 0,0 UV-I 0 W/m 7,9 C 8,7 C 1,6 km/h (1 Bft) 100,00 %
05.09.2017 05:38 8,6 C 18,3 C 95 % 1019,7 hPa 0,0 l/m 0,0 km/h (0 Bft) S 189 0 min 0,000 mm 0,0 UV-I 0 W/m 7,8 C 8,6 C 0,0 km/h (0 Bft) 100,00 %
05.09.2017 05:40 8,6 C 18,3 C 95 % 1019,7 hPa 0,0 l/m 0,0 km/h (0 Bft) S 189 0 min 0,000 mm 0,0 UV-I 0 W/m 7,8 C 8,6 C 0,0 km/h (0 Bft) 93,62 %
05.09.2017 05:42 8,6 C 18,3 C 95 % 1019,7 hPa 0,0 l/m 0,0 km/h (0 Bft) S 189 0 min 0,000 mm 0,0 UV-I 0 W/m 7,8 C 8,6 C 0,0 km/h (0 Bft) 100,00 %
05.09.2017 05:44 8,6 C 18,3 C 95 % 1019,8 hPa 0,0 l/m 0,0 km/h (0 Bft) S 189 0 min 0,000 mm 0,0 UV-I 0 W/m 7,8 C 8,6 C 0,0 km/h (0 Bft) 100,00 %
05.09.2017 05:46 8,6 C 18,3 C 95 % 1019,8 hPa 0,0 l/m 0,0 km/h (0 Bft) S 189 0 min 0,000 mm 0,0 UV-I 0 W/m 7,8 C 8,6 C 0,0 km/h (0 Bft) 100,00 %
05.09.2017 05:48 8,7 C 18,3 C 95 % 1019,8 hPa 0,0 l/m 0,0 km/h (0 Bft) S 189 0 min 0,000 mm 0,0 UV-I 0 W/m 7,9 C 8,7 C 0,0 km/h (0 Bft) 100,00 %
05.09.2017 05:50 8,7 C 18,3 C 95 % 1019,8 hPa 0,0 l/m 0,0 km/h (0 Bft) S 189 0 min 0,000 mm 0,0 UV-I 0 W/m 7,9 C 8,7 C 0,0 km/h (0 Bft) 97,87 %
05.09.2017 05:52 8,6 C 18,3 C 95 % 1019,8 hPa 0,0 l/m 0,0 km/h (0 Bft) S 189 0 min 0,000 mm 0,0 UV-I 0 W/m 7,8 C 8,6 C 0,0 km/h (0 Bft) 100,00 %
05.09.2017 05:54 8,6 C 18,3 C 95 % 1019,8 hPa 0,0 l/m 0,0 km/h (0 Bft) S 189 0 min 0,000 mm 0,0 UV-I 0 W/m 7,8 C 8,6 C 0,0 km/h (0 Bft) 100,00 %
05.09.2017 05:56 8,5 C 18,3 C 95 % 1019,9 hPa 0,0 l/m 0,0 km/h (0 Bft) S 189 0 min 0,000 mm 0,0 UV-I 0 W/m 7,7 C 8,5 C 0,0 km/h (0 Bft) 97,87 %
05.09.2017 05:58 8,5 C 18,3 C 95 % 1019,9 hPa 0,0 l/m 0,0 km/h (0 Bft) S 189 0 min 0,000 mm 0,0 UV-I 0 W/m 7,7 C 8,5 C 0,0 km/h (0 Bft) 100,00 %
05.09.2017 06:00 8,5 C 18,3 C 95 % 1019,9 hPa 0,0 l/m 0,5 km/h (0 Bft) S 189 0 min 0,000 mm 0,0 UV-I 0 W/m 7,7 C 8,5 C 1,6 km/h (1 Bft) 100,00 %
05.09.2017 06:02 8,5 C 18,3 C 95 % 1020,0 hPa 0,0 l/m 1,7 km/h (1 Bft) S 189 0 min 0,000 mm 0,0 UV-I 0 W/m 7,7 C 8,5 C 3,2 km/h (1 Bft) 100,00 %
05.09.2017 06:04 8,4 C 18,3 C 95 % 1020,0 hPa 0,0 l/m 2,0 km/h (1 Bft) S 189 0 min 0,000 mm 0,0 UV-I 0 W/m 7,6 C 8,4 C 3,2 km/h (1 Bft) 100,00 %
05.09.2017 06:06 8,4 C 18,3 C 95 % 1020,0 hPa 0,0 l/m 2,1 km/h (1 Bft) S 189 0 min 0,000 mm 0,0 UV-I 0 W/m 7,6 C 8,4 C 3,2 km/h (1 Bft) 100,00 %
05.09.2017 06:08 8,4 C 18,3 C 95 % 1020,1 hPa 0,0 l/m 1,2 km/h (1 Bft) S 189 0 min 0,000 mm 0,0 UV-I 0 W/m 7,6 C 8,4 C 3,2 km/h (1 Bft) 95,74 %
05.09.2017 06:10 8,3 C 18,3 C 95 % 1020,2 hPa 0,0 l/m 0,5 km/h (0 Bft) S 189 0 min 0,000 mm 0,0 UV-I 0 W/m 7,5 C 8,3 C 1,6 km/h (1 Bft) 97,87 %
05.09.2017 06:12 8,3 C 18,3 C 95 % 1020,3 hPa 0,0 l/m 0,1 km/h (0 Bft) S 189 0 min 0,000 mm 0,0 UV-I 0 W/m 7,5 C 8,3 C 1,6 km/h (1 Bft) 95,74 %
05.09.2017 06:14 8,3 C 18,3 C 95 % 1020,2 hPa 0,0 l/m 0,3 km/h (0 Bft) S 189 0 min 0,000 mm 0,0 UV-I 0 W/m 7,5 C 8,3 C 1,6 km/h (1 Bft) 96,00 %
05.09.2017 06:16 8,3 C 18,3 C 95 % 1020,3 hPa 0,0 l/m 0,4 km/h (0 Bft) S 189 0 min 0,000 mm 0,0 UV-I 5 W/m 7,5 C 8,3 C 1,6 km/h (1 Bft) 97,87 %
05.09.2017 06:18 8,3 C 18,3 C 95 % 1020,3 hPa 0,0 l/m 0,6 km/h (0 Bft) S 189 0 min 0,000 mm 0,0 UV-I 5 W/m 7,5 C 8,3 C 1,6 km/h (1 Bft) 95,74 %
05.09.2017 06:20 8,2 C 18,3 C 95 % 1020,3 hPa 0,0 l/m 0,6 km/h (0 Bft) S 189 0 min 0,000 mm 0,0 UV-I 5 W/m 7,4 C 8,2 C 3,2 km/h (1 Bft) 97,87 %
05.09.2017 06:22 8,2 C 18,3 C 95 % 1020,3 hPa 0,0 l/m 0,6 km/h (0 Bft) S 189 0 min 0,000 mm 0,0 UV-I 5 W/m 7,4 C 8,2 C 1,6 km/h (1 Bft) 97,87 %
05.09.2017 06:24 8,2 C 18,3 C 95 % 1020,3 hPa 0,0 l/m 1,4 km/h (1 Bft) S 189 0 min 0,000 mm 0,0 UV-I 7 W/m 7,4 C 8,2 C 3,2 km/h (1 Bft) 97,87 %
05.09.2017 06:26 8,2 C 18,3 C 95 % 1020,3 hPa 0,0 l/m 0,4 km/h (0 Bft) S 189 0 min 0,000 mm 0,0 UV-I 7 W/m 7,4 C 8,2 C 1,6 km/h (1 Bft) 94,44 %
05.09.2017 06:28 8,2 C 18,3 C 95 % 1020,3 hPa 0,0 l/m 0,2 km/h (0 Bft) S 189 0 min 0,000 mm 0,0 UV-I 7 W/m 7,4 C 8,2 C 1,6 km/h (1 Bft) 98,00 %
05.09.2017 06:30 8,2 C 18,3 C 95 % 1020,3 hPa 0,0 l/m 0,7 km/h (0 Bft) S 189 0 min 0,000 mm 0,0 UV-I 9 W/m 7,4 C 8,2 C 1,6 km/h (1 Bft) 97,87 %
05.09.2017 06:32 8,2 C 18,3 C 95 % 1020,3 hPa 0,0 l/m 1,3 km/h (1 Bft) S 189 0 min 0,000 mm 0,0 UV-I 10 W/m 7,4 C 8,2 C 3,2 km/h (1 Bft) 97,87 %
05.09.2017 06:34 8,2 C 18,3 C 95 % 1020,3 hPa 0,0 l/m 2,5 km/h (1 Bft) S 189 0 min 0,000 mm 0,0 UV-I 11 W/m 7,4 C 8,2 C 3,2 km/h (1 Bft) 96,00 %
05.09.2017 06:36 8,2 C 18,3 C 95 % 1020,2 hPa 0,0 l/m 2,1 km/h (1 Bft) S 189 0 min 0,000 mm 0,0 UV-I 11 W/m 7,4 C 8,2 C 4,8 km/h (1 Bft) 98,00 %
05.09.2017 06:38 8,1 C 18,3 C 95 % 1020,3 hPa 0,0 l/m 1,5 km/h (1 Bft) S 189 2 min 0,000 mm 0,0 UV-I 12 W/m 7,3 C 8,1 C 3,2 km/h (1 Bft) 95,74 %
05.09.2017 06:40 8,1 C 18,3 C 95 % 1020,2 hPa 0,0 l/m 1,4 km/h (1 Bft) S 189 0 min 0,000 mm 0,0 UV-I 12 W/m 7,3 C 8,1 C 3,2 km/h (1 Bft) 97,87 %
05.09.2017 06:42 8,1 C 18,3 C 95 % 1020,3 hPa 0,0 l/m 1,0 km/h (0 Bft) S 189 0 min 0,000 mm 0,0 UV-I 15 W/m 7,3 C 8,1 C 4,8 km/h (1 Bft) 97,87 %
05.09.2017 06:44 8,1 C 18,3 C 96 % 1020,3 hPa 0,0 l/m 1,9 km/h (1 Bft) S 189 2 min 0,000 mm 0,0 UV-I 19 W/m 7,5 C 8,1 C 4,8 km/h (1 Bft) 96,00 %
05.09.2017 06:46 8,1 C 18,3 C 96 % 1020,3 hPa 0,0 l/m 0,8 km/h (0 Bft) S 189 2 min 0,000 mm 0,0 UV-I 24 W/m 7,5 C 8,1 C 1,6 km/h (1 Bft) 100,00 %
05.09.2017 06:48 8,2 C 18,3 C 96 % 1020,3 hPa 0,0 l/m 2,6 km/h (1 Bft) S 189 2 min 0,000 mm 0,0 UV-I 28 W/m 7,6 C 8,2 C 4,8 km/h (1 Bft) 100,00 %
05.09.2017 06:50 8,2 C 18,3 C 96 % 1020,4 hPa 0,0 l/m 4,5 km/h (1 Bft) S 189 2 min 0,000 mm 0,0 UV-I 31 W/m 7,6 C 8,2 C 6,4 km/h (2 Bft) 96,00 %
05.09.2017 06:52 8,3 C 18,3 C 96 % 1020,4 hPa 0,0 l/m 3,1 km/h (1 Bft) S 189 2 min 0,000 mm 0,0 UV-I 33 W/m 7,7 C 8,3 C 4,8 km/h (1 Bft) 100,00 %
05.09.2017 06:54 8,4 C 18,3 C 96 % 1020,3 hPa 0,0 l/m 2,9 km/h (1 Bft) S 189 2 min 0,000 mm 0,0 UV-I 37 W/m 7,8 C 8,4 C 4,8 km/h (1 Bft) 100,00 %
05.09.2017 06:56 8,4 C 18,3 C 96 % 1020,4 hPa 0,0 l/m 1,5 km/h (1 Bft) S 189 2 min 0,000 mm 0,0 UV-I 39 W/m 7,8 C 8,4 C 4,8 km/h (1 Bft) 100,00 %
05.09.2017 06:58 8,4 C 18,3 C 96 % 1020,4 hPa 0,0 l/m 3,0 km/h (1 Bft) S 189 2 min 0,000 mm 0,0 UV-I 44 W/m 7,8 C 8,4 C 6,4 km/h (2 Bft) 100,00 %
05.09.2017 07:00 8,5 C 18,3 C 96 % 1020,4 hPa 0,0 l/m 3,2 km/h (1 Bft) S 189 2 min 0,000 mm 0,0 UV-I 47 W/m 7,9 C 8,5 C 4,8 km/h (1 Bft) 97,87 %
05.09.2017 07:02 8,6 C 18,3 C 96 % 1020,4 hPa 0,0 l/m 2,0 km/h (1 Bft) S 189 2 min 0,000 mm 0,0 UV-I 50 W/m 8,0 C 8,6 C 4,8 km/h (1 Bft) 100,00 %
05.09.2017 07:04 8,7 C 18,3 C 96 % 1020,4 hPa 0,0 l/m 1,2 km/h (1 Bft) S 189 2 min 0,000 mm 0,0 UV-I 53 W/m 8,1 C 8,7 C 3,2 km/h (1 Bft) 100,00 %
05.09.2017 07:06 8,8 C 18,3 C 96 % 1020,4 hPa 0,0 l/m 1,8 km/h (1 Bft) S 189 2 min 0,000 mm 0,0 UV-I 56 W/m 8,2 C 8,8 C 4,8 km/h (1 Bft) 100,00 %
05.09.2017 07:08 8,8 C 18,3 C 96 % 1020,4 hPa 0,0 l/m 0,9 km/h (0 Bft) S 189 2 min 0,000 mm 0,0 UV-I 59 W/m 8,2 C 8,8 C 1,6 km/h (1 Bft) 100,00 %
05.09.2017 07:10 8,9 C 18,3 C 96 % 1020,4 hPa 0,0 l/m 0,9 km/h (0 Bft) S 189 2 min 0,000 mm 0,0 UV-I 62 W/m 8,3 C 8,9 C 3,2 km/h (1 Bft) 97,87 %
05.09.2017 07:12 9,0 C 18,3 C 96 % 1020,4 hPa 0,0 l/m 2,2 km/h (1 Bft) S 189 2 min 0,000 mm 0,0 UV-I 65 W/m 8,4 C 9,0 C 4,8 km/h (1 Bft) 100,00 %
05.09.2017 07:14 9,1 C 18,3 C 96 % 1020,5 hPa 0,0 l/m 2,4 km/h (1 Bft) S-SW 208 2 min 0,000 mm 0,0 UV-I 70 W/m 8,5 C 9,1 C 4,8 km/h (1 Bft) 100,00 %
05.09.2017 07:16 9,2 C 18,3 C 96 % 1020,5 hPa 0,0 l/m 1,5 km/h (1 Bft) S-SW 206 2 min 0,000 mm 0,0 UV-I 74 W/m 8,6 C 9,2 C 4,8 km/h (1 Bft) 100,00 %
05.09.2017 07:18 9,3 C 18,3 C 96 % 1020,5 hPa 0,0 l/m 3,3 km/h (1 Bft) S-SW 205 2 min 0,000 mm 0,0 UV-I 78 W/m 8,7 C 9,3 C 4,8 km/h (1 Bft) 97,87 %
05.09.2017 07:20 9,4 C 18,3 C 96 % 1020,5 hPa 0,0 l/m 2,4 km/h (1 Bft) S 188 2 min 0,000 mm 0,0 UV-I 82 W/m 8,8 C 9,4 C 6,4 km/h (2 Bft) 100,00 %
05.09.2017 07:22 9,4 C 18,3 C 96 % 1020,6 hPa 0,0 l/m 2,2 km/h (1 Bft) S-SW 194 2 min 0,000 mm 0,0 UV-I 86 W/m 8,8 C 9,4 C 4,8 km/h (1 Bft) 97,87 %
05.09.2017 07:24 9,6 C 18,3 C 96 % 1020,6 hPa 0,0 l/m 3,0 km/h (1 Bft) S-SW 194 2 min 0,000 mm 0,0 UV-I 92 W/m 9,0 C 9,6 C 6,4 km/h (2 Bft) 97,87 %
05.09.2017 07:26 9,6 C 18,3 C 96 % 1020,6 hPa 0,0 l/m 2,8 km/h (1 Bft) S 183 2 min 0,000 mm 0,0 UV-I 98 W/m 9,0 C 9,6 C 4,8 km/h (1 Bft) 100,00 %
05.09.2017 07:28 9,7 C 18,3 C 96 % 1020,6 hPa 0,0 l/m 1,6 km/h (1 Bft) S 183 2 min 0,000 mm 0,0 UV-I 102 W/m 9,1 C 9,7 C 3,2 km/h (1 Bft) 97,87 %
05.09.2017 07:30 9,7 C 18,3 C 95 % 1020,6 hPa 0,0 l/m 1,4 km/h (1 Bft) S 183 2 min 0,000 mm 0,0 UV-I 107 W/m 8,9 C 9,7 C 3,2 km/h (1 Bft) 100,00 %
05.09.2017 07:32 9,8 C 18,3 C 95 % 1020,6 hPa 0,0 l/m 1,9 km/h (1 Bft) S 183 2 min 0,000 mm 0,0 UV-I 112 W/m 9,0 C 9,8 C 4,8 km/h (1 Bft) 95,83 %
05.09.2017 07:34 9,8 C 18,3 C 96 % 1020,7 hPa 0,0 l/m 2,0 km/h (1 Bft) S 183 2 min 0,000 mm 0,0 UV-I 116 W/m 9,2 C 9,8 C 4,8 km/h (1 Bft) 100,00 %
05.09.2017 07:36 9,9 C 18,3 C 95 % 1020,7 hPa 0,0 l/m 1,8 km/h (1 Bft) S 183 2 min 0,000 mm 0,0 UV-I 120 W/m 9,1 C 9,9 C 4,8 km/h (1 Bft) 100,00 %
05.09.2017 07:38 9,9 C 18,3 C 95 % 1020,7 hPa 0,0 l/m 1,6 km/h (1 Bft) S 183 2 min 0,000 mm 0,0 UV-I 124 W/m 9,1 C 9,9 C 4,8 km/h (1 Bft) 100,00 %
05.09.2017 07:40 10,1 C 18,3 C 95 % 1020,7 hPa 0,0 l/m 3,0 km/h (1 Bft) S 183 2 min 0,000 mm 0,0 UV-I 127 W/m 9,3 C 10,1 C 4,8 km/h (1 Bft) 100,00 %
05.09.2017 07:42 10,2 C 18,3 C 95 % 1020,7 hPa 0,0 l/m 3,1 km/h (1 Bft) S 183 2 min 0,000 mm 0,0 UV-I 131 W/m 9,4 C 10,2 C 6,4 km/h (2 Bft) 97,30 %
05.09.2017 07:44 10,2 C 18,3 C 95 % 1020,7 hPa 0,0 l/m 2,1 km/h (1 Bft) S 183 2 min 0,000 mm 0,0 UV-I 135 W/m 9,4 C 10,2 C 4,8 km/h (1 Bft) 100,00 %
05.09.2017 07:46 10,3 C 18,3 C 95 % 1020,7 hPa 0,0 l/m 1,7 km/h (1 Bft) S 183 2 min 0,000 mm 0,0 UV-I 138 W/m 9,5 C 10,3 C 4,8 km/h (1 Bft) 97,87 %
05.09.2017 07:48 10,3 C 18,3 C 95 % 1020,7 hPa 0,0 l/m 1,0 km/h (0 Bft) S 183 2 min 0,000 mm 0,0 UV-I 143 W/m 9,5 C 10,3 C 3,2 km/h (1 Bft) 95,74 %
05.09.2017 07:50 10,4 C 18,3 C 94 % 1020,7 hPa 0,0 l/m 1,3 km/h (1 Bft) S 183 2 min 0,000 mm 0,0 UV-I 148 W/m 9,5 C 10,4 C 3,2 km/h (1 Bft) 93,62 %
05.09.2017 07:52 10,5 C 18,3 C 94 % 1020,7 hPa 0,0 l/m 0,7 km/h (0 Bft) S 183 2 min 0,000 mm 0,0 UV-I 154 W/m 9,6 C 10,5 C 3,2 km/h (1 Bft) 95,74 %
05.09.2017 07:54 10,6 C 18,3 C 94 % 1020,7 hPa 0,0 l/m 0,5 km/h (0 Bft) S 183 2 min 0,000 mm 0,0 UV-I 159 W/m 9,7 C 10,6 C 1,6 km/h (1 Bft) 97,87 %
05.09.2017 07:56 10,7 C 18,3 C 94 % 1020,7 hPa 0,0 l/m 1,5 km/h (1 Bft) S 183 2 min 0,000 mm 0,0 UV-I 165 W/m 9,8 C 10,7 C 3,2 km/h (1 Bft) 95,74 %
05.09.2017 07:58 10,8 C 18,3 C 94 % 1020,8 hPa 0,0 l/m 2,1 km/h (1 Bft) S 184 2 min 0,000 mm 0,0 UV-I 174 W/m 9,9 C 10,8 C 4,8 km/h (1 Bft) 97,87 %
05.09.2017 08:00 10,9 C 18,3 C 93 % 1020,8 hPa 0,0 l/m 3,7 km/h (1 Bft) S-SW 205 2 min 0,051 mm 0,0 UV-I 179 W/m 9,8 C 10,9 C 6,4 km/h (2 Bft) 97,87 %
05.09.2017 08:02 11,1 C 18,3 C 93 % 1020,8 hPa 0,0 l/m 3,2 km/h (1 Bft) S-SW 205 2 min 0,000 mm 0,0 UV-I 188 W/m 10,0 C 11,1 C 4,8 km/h (1 Bft) 97,87 %
05.09.2017 08:04 11,1 C 18,3 C 93 % 1020,8 hPa 0,0 l/m 3,3 km/h (1 Bft) W-SW 240 2 min 0,000 mm 0,0 UV-I 194 W/m 10,0 C 11,1 C 6,4 km/h (2 Bft) 97,87 %
05.09.2017 08:06 11,2 C 18,3 C 92 % 1020,8 hPa 0,0 l/m 5,0 km/h (1 Bft) W-SW 238 2 min 0,000 mm 0,0 UV-I 201 W/m 9,9 C 11,2 C 6,4 km/h (2 Bft) 97,87 %
05.09.2017 08:08 11,3 C 18,3 C 92 % 1020,8 hPa 0,0 l/m 5,8 km/h (2 Bft) SW 219 2 min 0,000 mm 0,0 UV-I 208 W/m 10,0 C 11,3 C 6,4 km/h (2 Bft) 98,00 %
05.09.2017 08:10 11,4 C 18,3 C 92 % 1020,8 hPa 0,0 l/m 5,7 km/h (1 Bft) SW 214 2 min 0,000 mm 0,0 UV-I 214 W/m 10,1 C 11,4 C 8,0 km/h (2 Bft) 95,74 %
05.09.2017 08:12 11,4 C 18,3 C 91 % 1020,7 hPa 0,0 l/m 6,4 km/h (2 Bft) S-SW 211 2 min 0,000 mm 0,0 UV-I 224 W/m 10,0 C 11,4 C 8,0 km/h (2 Bft) 98,00 %
05.09.2017 08:14 11,6 C 18,3 C 92 % 1020,7 hPa 0,0 l/m 5,1 km/h (1 Bft) SW 229 2 min 0,000 mm 0,0 UV-I 233 W/m 10,3 C 11,6 C 8,0 km/h (2 Bft) 97,87 %
05.09.2017 08:16 11,7 C 18,3 C 91 % 1020,7 hPa 0,0 l/m 5,7 km/h (1 Bft) SW 236 2 min 0,000 mm 0,0 UV-I 239 W/m 10,3 C 11,7 C 9,7 km/h (2 Bft) 100,00 %
05.09.2017 08:18 11,8 C 18,3 C 91 % 1020,7 hPa 0,0 l/m 5,4 km/h (1 Bft) S-SW 206 2 min 0,000 mm 0,2 UV-I 246 W/m 10,4 C 11,8 C 8,0 km/h (2 Bft) 93,44 %
05.09.2017 08:20 11,8 C 18,3 C 91 % 1020,7 hPa 0,0 l/m 5,4 km/h (1 Bft) S-SW 206 2 min 0,000 mm 0,5 UV-I 253 W/m 10,4 C 11,8 C 8,0 km/h (2 Bft) 96,23 %
05.09.2017 08:22 11,9 C 18,3 C 91 % 1020,7 hPa 0,0 l/m 6,3 km/h (2 Bft) S-SW 206 2 min 0,000 mm 0,5 UV-I 258 W/m 10,5 C 11,9 C 8,0 km/h (2 Bft) 93,62 %
05.09.2017 08:24 12,0 C 18,3 C 90 % 1020,7 hPa 0,0 l/m 5,6 km/h (1 Bft) SW 233 2 min 0,000 mm 0,5 UV-I 264 W/m 10,4 C 12,0 C 8,0 km/h (2 Bft) 95,74 %
05.09.2017 08:26 12,1 C 18,3 C 90 % 1020,6 hPa 0,0 l/m 5,0 km/h (1 Bft) W-SW 250 2 min 0,000 mm 0,5 UV-I 272 W/m 10,5 C 12,1 C 8,0 km/h (2 Bft) 92,86 %
05.09.2017 08:28 12,2 C 18,3 C 90 % 1020,6 hPa 0,0 l/m 4,5 km/h (1 Bft) SW 234 2 min 0,000 mm 0,5 UV-I 279 W/m 10,6 C 12,2 C 8,0 km/h (2 Bft) 95,74 %
05.09.2017 08:30 12,3 C 18,3 C 90 % 1020,5 hPa 0,0 l/m 4,8 km/h (1 Bft) SW 233 2 min 0,000 mm 0,6 UV-I 286 W/m 10,7 C 12,3 C 9,7 km/h (2 Bft) 95,74 %
05.09.2017 08:32 12,4 C 18,3 C 89 % 1020,5 hPa 0,0 l/m 4,7 km/h (1 Bft) SW 215 2 min 0,000 mm 0,6 UV-I 290 W/m 10,6 C 12,4 C 8,0 km/h (2 Bft) 94,00 %
05.09.2017 08:34 12,6 C 18,3 C 89 % 1020,5 hPa 0,0 l/m 4,5 km/h (1 Bft) S-SW 200 2 min 0,000 mm 0,6 UV-I 297 W/m 10,8 C 12,6 C 6,4 km/h (2 Bft) 93,62 %
05.09.2017 08:36 12,7 C 18,3 C 88 % 1020,6 hPa 0,0 l/m 5,4 km/h (1 Bft) SW 228 2 min 0,000 mm 0,6 UV-I 302 W/m 10,8 C 12,7 C 8,0 km/h (2 Bft) 97,87 %
05.09.2017 08:38 12,8 C 18,3 C 88 % 1020,5 hPa 0,0 l/m 6,1 km/h (2 Bft) SW 234 2 min 0,000 mm 0,7 UV-I 310 W/m 10,9 C 12,8 C 8,0 km/h (2 Bft) 97,87 %
05.09.2017 08:40 13,0 C 18,3 C 87 % 1020,5 hPa 0,0 l/m 4,0 km/h (1 Bft) W-SW 244 2 min 0,000 mm 0,7 UV-I 316 W/m 10,9 C 13,0 C 6,4 km/h (2 Bft) 95,74 %
05.09.2017 08:42 13,1 C 18,3 C 87 % 1020,6 hPa 0,0 l/m 4,4 km/h (1 Bft) W-SW 252 2 min 0,000 mm 0,7 UV-I 325 W/m 11,0 C 13,1 C 8,0 km/h (2 Bft) 97,87 %
05.09.2017 08:44 13,2 C 18,3 C 87 % 1020,6 hPa 0,0 l/m 4,3 km/h (1 Bft) S 180 2 min 0,000 mm 0,7 UV-I 334 W/m 11,1 C 13,2 C 6,4 km/h (2 Bft) 96,00 %
05.09.2017 08:46 13,3 C 18,3 C 87 % 1020,6 hPa 0,0 l/m 4,9 km/h (1 Bft) W-SW 246 2 min 0,000 mm 0,7 UV-I 338 W/m 11,2 C 13,3 C 8,0 km/h (2 Bft) 97,87 %
05.09.2017 08:48 13,4 C 18,3 C 87 % 1020,6 hPa 0,0 l/m 5,6 km/h (1 Bft) W-SW 257 2 min 0,000 mm 0,8 UV-I 336 W/m 11,3 C 13,4 C 9,7 km/h (2 Bft) 95,74 %
05.09.2017 08:50 13,6 C 18,3 C 86 % 1020,6 hPa 0,0 l/m 6,5 km/h (2 Bft) W-SW 243 2 min 0,000 mm 0,8 UV-I 333 W/m 11,3 C 13,6 C 11,3 km/h (2 Bft) 100,00 %
05.09.2017 08:52 13,6 C 18,3 C 86 % 1020,6 hPa 0,0 l/m 6,5 km/h (2 Bft) SW 222 2 min 0,000 mm 0,8 UV-I 342 W/m 11,3 C 13,6 C 9,7 km/h (2 Bft) 95,74 %
05.09.2017 08:54 13,7 C 18,3 C 86 % 1020,6 hPa 0,0 l/m 7,2 km/h (2 Bft) S-SW 207 2 min 0,000 mm 0,8 UV-I 350 W/m 11,4 C 13,2 C 9,7 km/h (2 Bft) 95,74 %
05.09.2017 08:56 13,8 C 18,3 C 85 % 1020,6 hPa 0,0 l/m 9,8 km/h (2 Bft) W-SW 241 2 min 0,000 mm 0,9 UV-I 358 W/m 11,3 C 11,9 C 14,5 km/h (3 Bft) 100,00 %
05.09.2017 08:58 13,8 C 18,3 C 84 % 1020,5 hPa 0,0 l/m 7,3 km/h (2 Bft) SW 217 2 min 0,000 mm 0,9 UV-I 362 W/m 11,1 C 13,3 C 11,3 km/h (2 Bft) 100,00 %
05.09.2017 09:00 13,8 C 18,3 C 84 % 1020,5 hPa 0,0 l/m 7,1 km/h (2 Bft) W-SW 237 2 min 0,152 mm 0,9 UV-I 367 W/m 11,1 C 13,4 C 11,3 km/h (2 Bft) 100,00 %
05.09.2017 09:02 13,8 C 18,3 C 84 % 1020,4 hPa 0,0 l/m 7,0 km/h (2 Bft) W-SW 241 2 min 0,000 mm 0,9 UV-I 370 W/m 11,1 C 13,4 C 12,9 km/h (3 Bft) 100,00 %
05.09.2017 09:04 13,9 C 18,3 C 84 % 1020,5 hPa 0,0 l/m 7,2 km/h (2 Bft) SW 229 2 min 0,000 mm 1,0 UV-I 375 W/m 11,2 C 13,4 C 12,9 km/h (3 Bft) 95,74 %
05.09.2017 09:06 14,0 C 18,3 C 84 % 1020,5 hPa 0,0 l/m 7,6 km/h (2 Bft) SW 225 2 min 0,000 mm 1,0 UV-I 385 W/m 11,3 C 13,3 C 12,9 km/h (3 Bft) 97,92 %
05.09.2017 09:08 14,1 C 18,3 C 84 % 1020,5 hPa 0,0 l/m 7,9 km/h (2 Bft) W-SW 241 2 min 0,000 mm 1,0 UV-I 391 W/m 11,4 C 13,2 C 11,3 km/h (2 Bft) 100,00 %
05.09.2017 09:10 14,2 C 18,3 C 84 % 1020,5 hPa 0,0 l/m 6,6 km/h (2 Bft) W-SW 242 2 min 0,000 mm 1,1 UV-I 396 W/m 11,5 C 14,1 C 9,7 km/h (2 Bft) 100,00 %
05.09.2017 09:12 14,2 C 18,3 C 84 % 1020,4 hPa 0,0 l/m 6,5 km/h (2 Bft) S-SW 211 2 min 0,000 mm 1,1 UV-I 402 W/m 11,5 C 14,2 C 9,7 km/h (2 Bft) 97,87 %
05.09.2017 09:14 14,3 C 18,3 C 84 % 1020,4 hPa 0,0 l/m 6,1 km/h (2 Bft) W-SW 250 2 min 0,000 mm 1,1 UV-I 406 W/m 11,6 C 14,3 C 9,7 km/h (2 Bft) 97,87 %
05.09.2017 09:16 14,4 C 18,3 C 84 % 1020,4 hPa 0,0 l/m 6,3 km/h (2 Bft) W-SW 257 2 min 0,000 mm 1,1 UV-I 411 W/m 11,7 C 14,4 C 11,3 km/h (2 Bft) 100,00 %
05.09.2017 09:18 14,6 C 18,3 C 83 % 1020,4 hPa 0,0 l/m 5,9 km/h (2 Bft) SW 236 2 min 0,000 mm 1,2 UV-I 416 W/m 11,7 C 14,6 C 11,3 km/h (2 Bft) 100,00 %
05.09.2017 09:20 14,7 C 18,3 C 84 % 1020,3 hPa 0,0 l/m 7,0 km/h (2 Bft) SW 223 2 min 0,000 mm 1,2 UV-I 422 W/m 12,0 C 14,4 C 9,7 km/h (2 Bft) 97,87 %
05.09.2017 09:22 14,8 C 18,3 C 83 % 1020,2 hPa 0,0 l/m 4,8 km/h (1 Bft) S-SW 209 2 min 0,000 mm 1,2 UV-I 427 W/m 11,9 C 14,8 C 8,0 km/h (2 Bft) 97,87 %
05.09.2017 09:24 14,8 C 18,3 C 83 % 1020,2 hPa 0,0 l/m 6,6 km/h (2 Bft) SW 214 2 min 0,000 mm 1,3 UV-I 431 W/m 11,9 C 14,7 C 9,7 km/h (2 Bft) 97,87 %
05.09.2017 09:26 14,9 C 18,3 C 82 % 1020,3 hPa 0,0 l/m 9,4 km/h (2 Bft) W-SW 250 2 min 0,000 mm 1,3 UV-I 437 W/m 11,9 C 13,3 C 14,5 km/h (3 Bft) 100,00 %
05.09.2017 09:28 15,0 C 18,3 C 82 % 1020,3 hPa 0,0 l/m 6,8 km/h (2 Bft) W-SW 247 2 min 0,000 mm 1,3 UV-I 441 W/m 12,0 C 14,8 C 11,3 km/h (2 Bft) 97,87 %
05.09.2017 09:30 15,1 C 18,3 C 81 % 1020,3 hPa 0,0 l/m 7,8 km/h (2 Bft) W-SW 238 2 min 0,000 mm 1,3 UV-I 446 W/m 11,9 C 14,3 C 12,9 km/h (3 Bft) 100,00 %
05.09.2017 09:32 15,2 C 18,3 C 81 % 1020,4 hPa 0,0 l/m 6,7 km/h (2 Bft) S-SW 209 2 min 0,000 mm 1,4 UV-I 451 W/m 12,0 C 15,0 C 9,7 km/h (2 Bft) 100,00 %
05.09.2017 09:34 15,3 C 18,3 C 81 % 1020,4 hPa 0,0 l/m 8,2 km/h (2 Bft) SW 231 2 min 0,000 mm 1,4 UV-I 459 W/m 12,1 C 14,3 C 12,9 km/h (3 Bft) 100,00 %
05.09.2017 09:36 15,5 C 18,3 C 81 % 1020,4 hPa 0,0 l/m 7,7 km/h (2 Bft) S-SW 205 2 min 0,000 mm 1,5 UV-I 463 W/m 12,3 C 14,8 C 12,9 km/h (3 Bft) 100,00 %
05.09.2017 09:38 15,6 C 18,3 C 80 % 1020,5 hPa 0,0 l/m 8,0 km/h (2 Bft) W-SW 243 2 min 0,000 mm 1,5 UV-I 465 W/m 12,2 C 14,7 C 12,9 km/h (3 Bft) 100,00 %
05.09.2017 09:40 15,6 C 18,3 C 80 % 1020,5 hPa 0,0 l/m 5,4 km/h (1 Bft) W-SW 242 2 min 0,000 mm 1,5 UV-I 475 W/m 12,2 C 15,6 C 8,0 km/h (2 Bft) 97,87 %
05.09.2017 09:42 15,6 C 18,3 C 78 % 1020,6 hPa 0,0 l/m 10,1 km/h (2 Bft) SW 234 2 min 0,000 mm 1,5 UV-I 479 W/m 11,8 C 13,7 C 17,7 km/h (3 Bft) 100,00 %
05.09.2017 09:44 15,6 C 18,3 C 78 % 1020,6 hPa 0,0 l/m 9,0 km/h (2 Bft) SW 227 2 min 0,000 mm 1,6 UV-I 483 W/m 11,8 C 14,2 C 14,5 km/h (3 Bft) 100,00 %
05.09.2017 09:46 15,7 C 18,3 C 78 % 1020,6 hPa 0,0 l/m 8,8 km/h (2 Bft) W-SW 257 2 min 0,000 mm 1,6 UV-I 489 W/m 11,9 C 14,4 C 12,9 km/h (3 Bft) 100,00 %
05.09.2017 09:48 15,8 C 18,3 C 79 % 1020,6 hPa 0,0 l/m 9,0 km/h (2 Bft) W-SW 255 2 min 0,000 mm 1,6 UV-I 484 W/m 12,2 C 14,5 C 12,9 km/h (3 Bft) 97,92 %
05.09.2017 09:50 15,9 C 18,3 C 78 % 1020,7 hPa 0,0 l/m 5,6 km/h (1 Bft) W-SW 244 2 min 0,000 mm 1,7 UV-I 502 W/m 12,1 C 15,9 C 9,7 km/h (2 Bft) 100,00 %
05.09.2017 09:52 16,0 C 18,3 C 78 % 1020,6 hPa 0,0 l/m 4,1 km/h (1 Bft) W-SW 245 2 min 0,000 mm 1,7 UV-I 511 W/m 12,2 C 16,0 C 6,4 km/h (2 Bft) 100,00 %
05.09.2017 09:54 16,2 C 18,3 C 77 % 1020,6 hPa 0,0 l/m 6,4 km/h (2 Bft) W-SW 238 2 min 0,000 mm 1,8 UV-I 526 W/m 12,2 C 16,2 C 9,7 km/h (2 Bft) 100,00 %
05.09.2017 09:56 16,3 C 18,3 C 77 % 1020,6 hPa 0,0 l/m 5,3 km/h (1 Bft) W-SW 238 2 min 0,000 mm 1,8 UV-I 540 W/m 12,3 C 16,3 C 11,3 km/h (2 Bft) 100,00 %
05.09.2017 09:58 16,4 C 18,3 C 77 % 1020,6 hPa 0,0 l/m 4,2 km/h (1 Bft) W 277 2 min 0,000 mm 1,9 UV-I 536 W/m 12,4 C 16,4 C 6,4 km/h (2 Bft) 100,00 %
05.09.2017 10:00 16,6 C 18,3 C 78 % 1020,5 hPa 0,0 l/m 6,4 km/h (2 Bft) SW 215 2 min 0,254 mm 1,9 UV-I 532 W/m 12,7 C 16,6 C 11,3 km/h (2 Bft) 100,00 %
05.09.2017 10:02 16,7 C 18,3 C 76 % 1020,5 hPa 0,0 l/m 5,3 km/h (1 Bft) W-SW 239 2 min 0,000 mm 2,0 UV-I 540 W/m 12,4 C 16,7 C 9,7 km/h (2 Bft) 100,00 %
05.09.2017 10:04 16,6 C 18,3 C 76 % 1020,5 hPa 0,0 l/m 7,3 km/h (2 Bft) W 268 2 min 0,000 mm 2,0 UV-I 541 W/m 12,3 C 16,1 C 11,3 km/h (2 Bft) 98,00 %
05.09.2017 10:06 16,6 C 18,3 C 75 % 1020,6 hPa 0,0 l/m 6,9 km/h (2 Bft) W 262 2 min 0,000 mm 2,0 UV-I 543 W/m 12,1 C 16,3 C 12,9 km/h (3 Bft) 96,00 %
05.09.2017 10:08 16,6 C 18,3 C 75 % 1020,6 hPa 0,0 l/m 9,9 km/h (2 Bft) W 262 2 min 0,000 mm 2,1 UV-I 551 W/m 12,1 C 14,9 C 14,5 km/h (3 Bft) 100,00 %
05.09.2017 10:10 16,6 C 18,3 C 75 % 1020,5 hPa 0,0 l/m 9,4 km/h (2 Bft) W-SW 251 2 min 0,000 mm 2,1 UV-I 546 W/m 12,1 C 15,1 C 16,1 km/h (3 Bft) 98,00 %
05.09.2017 10:12 16,6 C 18,3 C 75 % 1020,5 hPa 0,0 l/m 8,9 km/h (2 Bft) W 264 2 min 0,000 mm 2,1 UV-I 547 W/m 12,1 C 15,4 C 16,1 km/h (3 Bft) 93,62 %
05.09.2017 10:14 16,6 C 18,3 C 76 % 1020,5 hPa 0,0 l/m 7,8 km/h (2 Bft) W 280 2 min 0,000 mm 2,1 UV-I 577 W/m 12,3 C 15,9 C 11,3 km/h (2 Bft) 97,87 %
05.09.2017 10:16 16,7 C 18,3 C 76 % 1020,6 hPa 0,0 l/m 6,3 km/h (2 Bft) SW 228 2 min 0,000 mm 2,2 UV-I 585 W/m 12,4 C 16,7 C 9,7 km/h (2 Bft) 98,00 %
05.09.2017 10:18 16,8 C 18,3 C 76 % 1020,5 hPa 0,0 l/m 6,6 km/h (2 Bft) SW 220 2 min 0,000 mm 2,2 UV-I 575 W/m 12,5 C 16,7 C 11,3 km/h (2 Bft) 95,74 %
05.09.2017 10:20 16,9 C 18,3 C 77 % 1020,6 hPa 0,0 l/m 5,2 km/h (1 Bft) W-SW 254 2 min 0,000 mm 2,0 UV-I 522 W/m 12,8 C 16,9 C 12,9 km/h (3 Bft) 97,87 %
05.09.2017 10:22 17,0 C 18,3 C 76 % 1020,5 hPa 0,0 l/m 4,0 km/h (1 Bft) W 261 2 min 0,000 mm 2,0 UV-I 383 W/m 12,7 C 17,0 C 6,4 km/h (2 Bft) 95,74 %
05.09.2017 10:24 16,8 C 18,3 C 75 % 1020,6 hPa 0,0 l/m 7,4 km/h (2 Bft) W-SW 254 2 min 0,000 mm 1,7 UV-I 346 W/m 12,3 C 16,3 C 17,7 km/h (3 Bft) 97,92 %
05.09.2017 10:26 16,7 C 18,3 C 75 % 1020,6 hPa 0,0 l/m 7,9 km/h (2 Bft) W 265 0 min 0,000 mm 1,5 UV-I 289 W/m 12,2 C 15,9 C 11,3 km/h (2 Bft) 97,87 %
05.09.2017 10:28 16,5 C 18,3 C 75 % 1020,6 hPa 0,0 l/m 7,3 km/h (2 Bft) W 271 0 min 0,000 mm 1,5 UV-I 257 W/m 12,1 C 16,0 C 12,9 km/h (3 Bft) 93,62 %
05.09.2017 10:30 16,3 C 18,3 C 76 % 1020,6 hPa 0,0 l/m 7,6 km/h (2 Bft) W 265 0 min 0,000 mm 1,6 UV-I 259 W/m 12,1 C 15,7 C 12,9 km/h (3 Bft) 97,56 %
05.09.2017 10:32 16,3 C 18,3 C 77 % 1020,6 hPa 0,0 l/m 6,2 km/h (2 Bft) W 263 0 min 0,000 mm 1,8 UV-I 265 W/m 12,3 C 16,3 C 11,3 km/h (2 Bft) 97,87 %
05.09.2017 10:34 16,3 C 18,3 C 77 % 1020,6 hPa 0,0 l/m 5,0 km/h (1 Bft) W-SW 239 0 min 0,000 mm 1,9 UV-I 288 W/m 12,3 C 16,3 C 9,7 km/h (2 Bft) 97,87 %
05.09.2017 10:36 16,4 C 18,3 C 78 % 1020,6 hPa 0,0 l/m 3,8 km/h (1 Bft) SW 234 0 min 0,000 mm 2,2 UV-I 301 W/m 12,6 C 16,4 C 6,4 km/h (2 Bft) 95,74 %
05.09.2017 10:38 16,6 C 18,3 C 78 % 1020,6 hPa 0,0 l/m 8,4 km/h (2 Bft) S-SW 192 0 min 0,000 mm 2,1 UV-I 279 W/m 12,7 C 15,6 C 14,5 km/h (3 Bft) 100,00 %
05.09.2017 10:40 16,7 C 18,3 C 77 % 1020,6 hPa 0,0 l/m 8,0 km/h (2 Bft) W 275 0 min 0,000 mm 2,5 UV-I 241 W/m 12,6 C 15,9 C 14,5 km/h (3 Bft) 100,00 %
05.09.2017 10:42 16,7 C 18,9 C 76 % 1020,6 hPa 0,0 l/m 7,4 km/h (2 Bft) W 281 0 min 0,000 mm 2,6 UV-I 286 W/m 12,4 C 16,2 C 12,9 km/h (3 Bft) 97,87 %
05.09.2017 10:44 16,8 C 18,3 C 75 % 1020,6 hPa 0,0 l/m 6,5 km/h (2 Bft) W-SW 246 2 min 0,000 mm 2,3 UV-I 533 W/m 12,3 C 16,8 C 11,3 km/h (2 Bft) 100,00 %
05.09.2017 10:46 16,9 C 18,9 C 76 % 1020,6 hPa 0,0 l/m 3,8 km/h (1 Bft) W 279 2 min 0,000 mm 2,7 UV-I 655 W/m 12,6 C 16,9 C 11,3 km/h (2 Bft) 100,00 %
05.09.2017 10:48 17,1 C 18,9 C 76 % 1020,6 hPa 0,0 l/m 6,7 km/h (2 Bft) S-SW 211 2 min 0,000 mm 2,8 UV-I 645 W/m 12,8 C 17,0 C 12,9 km/h (3 Bft) 100,00 %
05.09.2017 10:50 17,2 C 18,9 C 74 % 1020,6 hPa 0,0 l/m 5,8 km/h (2 Bft) W-SW 241 2 min 0,000 mm 2,9 UV-I 650 W/m 12,5 C 17,2 C 11,3 km/h (2 Bft) 100,00 %
05.09.2017 10:52 17,3 C 18,9 C 76 % 1020,6 hPa 0,0 l/m 4,2 km/h (1 Bft) N-NW 329 2 min 0,000 mm 3,0 UV-I 653 W/m 13,0 C 17,3 C 6,4 km/h (2 Bft) 100,00 %
05.09.2017 10:54 17,3 C 18,9 C 75 % 1020,6 hPa 0,0 l/m 1,8 km/h (1 Bft) W-NW 292 2 min 0,000 mm 3,0 UV-I 653 W/m 12,8 C 17,3 C 3,2 km/h (1 Bft) 97,87 %
05.09.2017 10:56 17,4 C 18,9 C 76 % 1020,6 hPa 0,0 l/m 4,9 km/h (1 Bft) W-SW 257 2 min 0,000 mm 3,1 UV-I 683 W/m 13,1 C 17,4 C 11,3 km/h (2 Bft) 100,00 %
05.09.2017 10:58 17,5 C 18,9 C 75 % 1020,6 hPa 0,0 l/m 7,7 km/h (2 Bft) SW 236 2 min 0,000 mm 2,6 UV-I 557 W/m 13,0 C 16,9 C 12,9 km/h (3 Bft) 100,00 %
05.09.2017 11:00 17,4 C 18,9 C 74 % 1020,6 hPa 0,0 l/m 8,0 km/h (2 Bft) W-SW 245 2 min 0,280 mm 3,1 UV-I 388 W/m 12,7 C 16,6 C 12,9 km/h (3 Bft) 95,74 %
05.09.2017 11:02 17,2 C 18,9 C 73 % 1020,5 hPa 0,0 l/m 6,6 km/h (2 Bft) NW 325 2 min 0,000 mm 2,7 UV-I 689 W/m 12,3 C 17,1 C 11,3 km/h (2 Bft) 100,00 %
05.09.2017 11:04 17,1 C 18,9 C 76 % 1020,5 hPa 0,0 l/m 5,3 km/h (1 Bft) W 269 2 min 0,000 mm 3,2 UV-I 691 W/m 12,8 C 17,1 C 11,3 km/h (2 Bft) 100,00 %
05.09.2017 11:06 17,2 C 18,9 C 74 % 1020,4 hPa 0,0 l/m 6,5 km/h (2 Bft) W-SW 249 2 min 0,000 mm 3,0 UV-I 702 W/m 12,5 C 17,2 C 11,3 km/h (2 Bft) 100,00 %
05.09.2017 11:08 17,2 C 18,9 C 74 % 1020,4 hPa 0,0 l/m 5,6 km/h (1 Bft) SW 218 2 min 0,000 mm 3,3 UV-I 727 W/m 12,5 C 17,2 C 11,3 km/h (2 Bft) 100,00 %
05.09.2017 11:10 17,6 C 18,9 C 77 % 1020,4 hPa 0,0 l/m 3,3 km/h (1 Bft) NO 44 2 min 0,000 mm 3,4 UV-I 740 W/m 13,5 C 17,6 C 8,0 km/h (2 Bft) 100,00 %
05.09.2017 11:12 17,8 C 18,9 C 74 % 1020,4 hPa 0,0 l/m 3,9 km/h (1 Bft) W-SW 238 2 min 0,000 mm 3,4 UV-I 731 W/m 13,1 C 17,8 C 14,5 km/h (3 Bft) 100,00 %
05.09.2017 11:14 17,8 C 18,9 C 72 % 1020,4 hPa 0,0 l/m 9,4 km/h (2 Bft) W 279 2 min 0,000 mm 3,5 UV-I 715 W/m 12,7 C 16,4 C 14,5 km/h (3 Bft) 95,74 %
05.09.2017 11:16 17,9 C 18,9 C 75 % 1020,4 hPa 0,0 l/m 3,4 km/h (1 Bft) NW 309 2 min 0,000 mm 3,5 UV-I 706 W/m 13,4 C 17,9 C 6,4 km/h (2 Bft) 98,00 %
05.09.2017 11:18 18,1 C 18,9 C 73 % 1020,4 hPa 0,0 l/m 7,4 km/h (2 Bft) SW 227 2 min 0,000 mm 3,5 UV-I 709 W/m 13,2 C 17,6 C 11,3 km/h (2 Bft) 98,00 %
05.09.2017 11:20 18,3 C 18,9 C 73 % 1020,4 hPa 0,0 l/m 8,9 km/h (2 Bft) S-SW 192 2 min 0,000 mm 3,6 UV-I 729 W/m 13,4 C 17,2 C 14,5 km/h (3 Bft) 100,00 %
05.09.2017 11:22 18,3 C 18,9 C 71 % 1020,4 hPa 0,0 l/m 3,1 km/h (1 Bft) SW 218 2 min 0,000 mm 3,7 UV-I 747 W/m 12,9 C 18,3 C 6,4 km/h (2 Bft) 100,00 %
05.09.2017 11:24 18,4 C 18,9 C 73 % 1020,4 hPa 0,0 l/m 3,2 km/h (1 Bft) SW 214 2 min 0,000 mm 3,7 UV-I 783 W/m 13,5 C 18,4 C 8,0 km/h (2 Bft) 100,00 %
05.09.2017 11:26 18,6 C 18,9 C 72 % 1020,5 hPa 0,0 l/m 4,8 km/h (1 Bft) W-SW 245 2 min 0,000 mm 3,8 UV-I 824 W/m 13,4 C 18,6 C 9,7 km/h (2 Bft) 100,00 %
05.09.2017 11:28 18,6 C 18,9 C 73 % 1020,5 hPa 0,0 l/m 3,2 km/h (1 Bft) N 5 2 min 0,000 mm 3,7 UV-I 828 W/m 13,7 C 18,6 C 8,0 km/h (2 Bft) 97,87 %
05.09.2017 11:30 18,6 C 18,9 C 72 % 1020,4 hPa 0,0 l/m 3,6 km/h (1 Bft) N-NO 32 2 min 0,000 mm 2,8 UV-I 840 W/m 13,4 C 18,6 C 8,0 km/h (2 Bft) 100,00 %
05.09.2017 11:32 18,4 C 18,9 C 73 % 1020,5 hPa 0,0 l/m 4,2 km/h (1 Bft) W-NW 301 0 min 0,000 mm 2,3 UV-I 324 W/m 13,5 C 18,4 C 12,9 km/h (3 Bft) 100,00 %
05.09.2017 11:34 18,2 C 18,9 C 73 % 1020,5 hPa 0,0 l/m 3,0 km/h (1 Bft) NW 304 0 min 0,000 mm 2,1 UV-I 307 W/m 13,3 C 18,2 C 6,4 km/h (2 Bft) 97,87 %
05.09.2017 11:36 17,9 C 18,9 C 75 % 1020,5 hPa 0,0 l/m 2,3 km/h (1 Bft) N-NO 19 0 min 0,000 mm 2,1 UV-I 318 W/m 13,4 C 17,9 C 4,8 km/h (1 Bft) 96,15 %
05.09.2017 11:38 17,8 C 18,9 C 75 % 1020,5 hPa 0,0 l/m 1,2 km/h (1 Bft) N-NO 33 0 min 0,000 mm 1,7 UV-I 277 W/m 13,3 C 17,8 C 3,2 km/h (1 Bft) 97,87 %
05.09.2017 11:40 17,8 C 18,9 C 75 % 1020,5 hPa 0,0 l/m 2,4 km/h (1 Bft) N 10 0 min 0,000 mm 1,5 UV-I 217 W/m 13,3 C 17,8 C 6,4 km/h (2 Bft) 93,62 %
05.09.2017 11:42 17,7 C 18,9 C 75 % 1020,5 hPa 0,0 l/m 3,5 km/h (1 Bft) N-NW 339 0 min 0,000 mm 1,7 UV-I 234 W/m 13,2 C 17,7 C 6,4 km/h (2 Bft) 93,62 %
05.09.2017 11:44 17,7 C 18,9 C 74 % 1020,5 hPa 0,0 l/m 1,5 km/h (1 Bft) NW 325 0 min 0,000 mm 1,7 UV-I 265 W/m 13,0 C 17,7 C 4,8 km/h (1 Bft) 93,62 %
05.09.2017 11:46 17,7 C 18,9 C 73 % 1020,5 hPa 0,0 l/m 3,9 km/h (1 Bft) SW 229 0 min 0,000 mm 1,9 UV-I 270 W/m 12,8 C 17,7 C 9,7 km/h (2 Bft) 97,92 %
05.09.2017 11:48 17,8 C 18,9 C 73 % 1020,5 hPa 0,0 l/m 6,5 km/h (2 Bft) W 273 0 min 0,000 mm 2,2 UV-I 324 W/m 12,9 C 17,8 C 14,5 km/h (3 Bft) 97,14 %
05.09.2017 11:50 17,9 C 18,9 C 73 % 1020,5 hPa 0,0 l/m 6,7 km/h (2 Bft) W-SW 238 0 min 0,000 mm 2,2 UV-I 337 W/m 13,0 C 17,8 C 12,9 km/h (3 Bft) 96,00 %
05.09.2017 11:52 18,0 C 18,9 C 71 % 1020,5 hPa 0,0 l/m 6,3 km/h (2 Bft) W-SW 256 0 min 0,000 mm 2,0 UV-I 308 W/m 12,7 C 18,0 C 9,7 km/h (2 Bft) 97,87 %
05.09.2017 11:54 18,0 C 18,9 C 71 % 1020,5 hPa 0,0 l/m 6,1 km/h (2 Bft) W-SW 244 0 min 0,000 mm 2,0 UV-I 306 W/m 12,7 C 18,0 C 12,9 km/h (3 Bft) 91,49 %
05.09.2017 11:56 18,1 C 18,9 C 71 % 1020,5 hPa 0,0 l/m 3,5 km/h (1 Bft) SW 225 0 min 0,000 mm 2,4 UV-I 378 W/m 12,8 C 18,1 C 6,4 km/h (2 Bft) 98,00 %
05.09.2017 11:58 18,3 C 18,9 C 70 % 1020,5 hPa 0,0 l/m 3,7 km/h (1 Bft) W-NW 294 0 min 0,000 mm 1,8 UV-I 308 W/m 12,7 C 18,3 C 6,4 km/h (2 Bft) 96,00 %
05.09.2017 12:00 18,3 C 18,9 C 69 % 1020,5 hPa 0,0 l/m 3,7 km/h (1 Bft) NW 306 0 min 0,000 mm 1,4 UV-I 266 W/m 12,5 C 18,3 C 6,4 km/h (2 Bft) 93,62 %
05.09.2017 12:02 18,2 C 18,9 C 70 % 1020,5 hPa 0,0 l/m 5,5 km/h (1 Bft) W 277 0 min 0,304 mm 1,5 UV-I 258 W/m 12,6 C 18,2 C 9,7 km/h (2 Bft) 95,74 %
05.09.2017 12:04 18,2 C 18,9 C 71 % 1020,5 hPa 0,0 l/m 1,3 km/h (1 Bft) N-NW 333 0 min 0,000 mm 2,0 UV-I 308 W/m 12,9 C 18,2 C 6,4 km/h (2 Bft) 93,62 %
05.09.2017 12:06 18,2 C 18,9 C 72 % 1020,5 hPa 0,0 l/m 2,2 km/h (1 Bft) S-SW 212 0 min 0,000 mm 2,1 UV-I 307 W/m 13,1 C 18,2 C 6,4 km/h (2 Bft) 95,74 %
05.09.2017 12:08 18,3 C 18,9 C 72 % 1020,5 hPa 0,0 l/m 6,7 km/h (2 Bft) W 271 0 min 0,000 mm 2,4 UV-I 311 W/m 13,2 C 18,2 C 14,5 km/h (3 Bft) 95,74 %
05.09.2017 12:10 18,4 C 18,9 C 71 % 1020,5 hPa 0,0 l/m 7,5 km/h (2 Bft) SW 227 0 min 0,000 mm 3,2 UV-I 359 W/m 13,0 C 17,9 C 14,5 km/h (3 Bft) 91,49 %
05.09.2017 12:12 18,4 C 18,9 C 69 % 1020,5 hPa 0,0 l/m 6,3 km/h (2 Bft) SW 233 0 min 0,000 mm 2,8 UV-I 315 W/m 12,6 C 18,4 C 12,9 km/h (3 Bft) 94,74 %
05.09.2017 12:14 18,4 C 18,9 C 70 % 1020,5 hPa 0,0 l/m 6,8 km/h (2 Bft) W 263 0 min 0,000 mm 2,8 UV-I 243 W/m 12,8 C 18,2 C 14,5 km/h (3 Bft) 93,62 %
05.09.2017 12:16 18,4 C 18,9 C 69 % 1020,4 hPa 0,0 l/m 8,0 km/h (2 Bft) W 278 0 min 0,000 mm 3,2 UV-I 214 W/m 12,6 C 17,7 C 12,9 km/h (3 Bft) 96,00 %
05.09.2017 12:18 18,4 C 18,9 C 69 % 1020,4 hPa 0,0 l/m 7,2 km/h (2 Bft) N 5 0 min 0,000 mm 3,6 UV-I 368 W/m 12,6 C 18,0 C 11,3 km/h (2 Bft) 95,74 %
05.09.2017 12:20 18,6 C 18,9 C 71 % 1020,3 hPa 0,0 l/m 3,0 km/h (1 Bft) W-SW 248 2 min 0,000 mm 4,2 UV-I 912 W/m 13,2 C 18,6 C 4,8 km/h (1 Bft) 94,00 %
05.09.2017 12:22 19,1 C 18,9 C 70 % 1020,4 hPa 0,0 l/m 5,5 km/h (1 Bft) SW 232 2 min 0,000 mm 4,6 UV-I 978 W/m 13,5 C 19,1 C 11,3 km/h (2 Bft) 93,75 %
05.09.2017 12:24 19,5 C 18,9 C 69 % 1020,3 hPa 0,0 l/m 7,7 km/h (2 Bft) S-SW 194 2 min 0,000 mm 4,6 UV-I 982 W/m 13,7 C 18,9 C 12,9 km/h (3 Bft) 95,74 %
05.09.2017 12:26 19,7 C 18,9 C 66 % 1020,3 hPa 0,0 l/m 10,8 km/h (2 Bft) W-SW 252 2 min 0,000 mm 4,3 UV-I 969 W/m 13,2 C 18,0 C 17,7 km/h (3 Bft) 94,00 %
05.09.2017 12:28 19,8 C 18,9 C 66 % 1020,3 hPa 0,0 l/m 9,5 km/h (2 Bft) NO 47 2 min 0,000 mm 3,3 UV-I 944 W/m 13,3 C 18,6 C 19,3 km/h (3 Bft) 95,74 %
05.09.2017 12:30 19,6 C 18,9 C 69 % 1020,3 hPa 0,0 l/m 4,6 km/h (1 Bft) W-SW 250 2 min 0,000 mm 2,1 UV-I 575 W/m 13,8 C 19,6 C 6,4 km/h (2 Bft) 94,74 %
05.09.2017 12:32 19,3 C 18,9 C 67 % 1020,3 hPa 0,0 l/m 5,5 km/h (1 Bft) W 271 0 min 0,000 mm 2,1 UV-I 254 W/m 13,0 C 19,3 C 16,1 km/h (3 Bft) 95,74 %
05.09.2017 12:34 19,1 C 18,9 C 69 % 1020,3 hPa 0,0 l/m 5,4 km/h (1 Bft) SW 219 0 min 0,000 mm 2,2 UV-I 257 W/m 13,3 C 19,1 C 14,5 km/h (3 Bft) 95,74 %
05.09.2017 12:36 18,8 C 18,9 C 68 % 1020,4 hPa 0,0 l/m 6,8 km/h (2 Bft) W 271 0 min 0,000 mm 2,2 UV-I 256 W/m 12,8 C 18,6 C 14,5 km/h (3 Bft) 97,92 %
05.09.2017 12:38 18,6 C 18,9 C 69 % 1020,3 hPa 0,0 l/m 4,0 km/h (1 Bft) W-NW 300 0 min 0,000 mm 2,3 UV-I 282 W/m 12,8 C 18,6 C 8,0 km/h (2 Bft) 96,00 %
05.09.2017 12:40 18,4 C 18,9 C 70 % 1020,3 hPa 0,0 l/m 5,2 km/h (1 Bft) W 262 0 min 0,000 mm 2,6 UV-I 273 W/m 12,8 C 18,4 C 12,9 km/h (3 Bft) 95,74 %
05.09.2017 12:42 18,4 C 18,9 C 69 % 1020,2 hPa 0,0 l/m 5,1 km/h (1 Bft) SW 232 0 min 0,000 mm 3,5 UV-I 305 W/m 12,6 C 18,4 C 9,7 km/h (2 Bft) 95,74 %
05.09.2017 12:44 18,7 C 18,9 C 70 % 1020,2 hPa 0,0 l/m 4,6 km/h (1 Bft) SW 228 2 min 0,000 mm 3,4 UV-I 859 W/m 13,1 C 18,7 C 11,3 km/h (2 Bft) 97,87 %
05.09.2017 12:46 18,9 C 18,9 C 70 % 1020,2 hPa 0,0 l/m 4,8 km/h (1 Bft) W-NW 294 2 min 0,000 mm 4,0 UV-I 858 W/m 13,3 C 18,9 C 9,7 km/h (2 Bft) 97,87 %
05.09.2017 12:48 19,0 C 18,9 C 68 % 1020,1 hPa 0,0 l/m 5,8 km/h (2 Bft) W 268 2 min 0,000 mm 3,7 UV-I 822 W/m 13,0 C 19,0 C 9,7 km/h (2 Bft) 95,74 %
05.09.2017 12:50 19,1 C 18,9 C 68 % 1020,1 hPa 0,0 l/m 6,2 km/h (2 Bft) W-SW 250 0 min 0,000 mm 2,6 UV-I 297 W/m 13,1 C 19,1 C 14,5 km/h (3 Bft) 96,00 %
05.09.2017 12:52 19,1 C 18,9 C 68 % 1020,1 hPa 0,0 l/m 9,5 km/h (2 Bft) W 263 0 min 0,000 mm 2,7 UV-I 324 W/m 13,1 C 17,8 C 16,1 km/h (3 Bft) 97,87 %
05.09.2017 12:54 19,0 C 18,9 C 68 % 1020,2 hPa 0,0 l/m 7,4 km/h (2 Bft) W-SW 254 2 min 0,000 mm 3,2 UV-I 427 W/m 13,0 C 18,6 C 12,9 km/h (3 Bft) 100,00 %
05.09.2017 12:56 19,0 C 18,9 C 68 % 1020,1 hPa 0,0 l/m 9,4 km/h (2 Bft) SW 234 2 min 0,000 mm 3,3 UV-I 438 W/m 13,0 C 17,8 C 16,1 km/h (3 Bft) 96,88 %
05.09.2017 12:58 19,2 C 18,9 C 69 % 1020,1 hPa 0,0 l/m 9,9 km/h (2 Bft) SW 232 2 min 0,000 mm 3,8 UV-I 462 W/m 13,4 C 17,8 C 14,5 km/h (3 Bft) 95,74 %
05.09.2017 13:00 19,3 C 18,9 C 66 % 1020,1 hPa 0,0 l/m 8,4 km/h (2 Bft) SW 215 2 min 0,305 mm 3,3 UV-I 462 W/m 12,8 C 18,5 C 16,1 km/h (3 Bft) 97,92 %
05.09.2017 13:02 19,4 C 18,9 C 68 % 1020,0 hPa 0,0 l/m 11,2 km/h (2 Bft) W-SW 240 2 min 0,000 mm 3,3 UV-I 430 W/m 13,3 C 17,6 C 19,3 km/h (3 Bft) 97,87 %
05.09.2017 13:04 19,4 C 18,9 C 64 % 1020,1 hPa 0,0 l/m 11,0 km/h (2 Bft) W-SW 240 2 min 0,000 mm 4,5 UV-I 636 W/m 12,4 C 17,6 C 17,7 km/h (3 Bft) 97,87 %
05.09.2017 13:06 19,5 C 18,9 C 64 % 1019,9 hPa 0,0 l/m 11,0 km/h (2 Bft) W 279 2 min 0,000 mm 4,6 UV-I 941 W/m 12,5 C 17,8 C 19,3 km/h (3 Bft) 97,87 %
05.09.2017 13:08 19,7 C 18,9 C 65 % 1019,9 hPa 0,0 l/m 6,8 km/h (2 Bft) W 273 2 min 0,000 mm 3,9 UV-I 940 W/m 12,9 C 19,5 C 16,1 km/h (3 Bft) 98,00 %
05.09.2017 13:10 19,8 C 18,9 C 68 % 1019,9 hPa 0,0 l/m 4,0 km/h (1 Bft) W-SW 250 2 min 0,000 mm 3,9 UV-I 940 W/m 13,7 C 19,8 C 8,0 km/h (2 Bft) 97,37 %
05.09.2017 13:12 19,9 C 18,9 C 64 % 1019,9 hPa 0,0 l/m 9,6 km/h (2 Bft) W-SW 257 2 min 0,000 mm 3,4 UV-I 940 W/m 12,9 C 18,7 C 20,9 km/h (4 Bft) 100,00 %
05.09.2017 13:14 19,8 C 18,9 C 63 % 1019,9 hPa 0,0 l/m 11,2 km/h (2 Bft) W 273 2 min 0,000 mm 2,1 UV-I 740 W/m 12,5 C 18,0 C 22,5 km/h (4 Bft) 100,00 %
05.09.2017 13:16 19,5 C 18,9 C 63 % 1019,9 hPa 0,0 l/m 13,7 km/h (3 Bft) W-SW 254 0 min 0,000 mm 1,7 UV-I 196 W/m 12,3 C 17,0 C 19,3 km/h (3 Bft) 100,00 %
05.09.2017 13:18 19,2 C 18,9 C 64 % 1019,9 hPa 0,0 l/m 13,6 km/h (3 Bft) S-SW 205 0 min 0,000 mm 2,5 UV-I 274 W/m 12,2 C 16,6 C 19,3 km/h (3 Bft) 100,00 %
05.09.2017 13:20 19,2 C 18,9 C 67 % 1019,8 hPa 0,0 l/m 11,6 km/h (2 Bft) SW 236 2 min 0,000 mm 4,1 UV-I 761 W/m 12,9 C 17,2 C 16,1 km/h (3 Bft) 100,00 %
05.09.2017 13:22 19,4 C 18,9 C 66 % 1019,8 hPa 0,0 l/m 12,0 km/h (2 Bft) W-SW 252 2 min 0,000 mm 4,1 UV-I 946 W/m 12,9 C 17,3 C 17,7 km/h (3 Bft) 100,00 %
05.09.2017 13:24 19,4 C 18,9 C 66 % 1019,8 hPa 0,0 l/m 9,9 km/h (2 Bft) W-SW 248 2 min 0,000 mm 4,0 UV-I 653 W/m 12,9 C 18,0 C 17,7 km/h (3 Bft) 100,00 %
05.09.2017 13:26 19,3 C 18,9 C 66 % 1019,9 hPa 0,0 l/m 8,0 km/h (2 Bft) W 262 2 min 0,000 mm 4,5 UV-I 485 W/m 12,8 C 18,6 C 17,7 km/h (3 Bft) 97,87 %
05.09.2017 13:28 19,4 C 18,9 C 66 % 1019,8 hPa 0,0 l/m 4,3 km/h (1 Bft) W 269 2 min 0,000 mm 4,6 UV-I 752 W/m 12,9 C 19,4 C 8,0 km/h (2 Bft) 100,00 %
05.09.2017 13:30 19,7 C 18,9 C 66 % 1019,8 hPa 0,0 l/m 5,6 km/h (1 Bft) W 260 2 min 0,000 mm 4,6 UV-I 797 W/m 13,2 C 19,7 C 9,7 km/h (2 Bft) 97,87 %
05.09.2017 13:32 19,8 C 18,9 C 64 % 1019,8 hPa 0,0 l/m 9,5 km/h (2 Bft) W 259 2 min 0,000 mm 4,5 UV-I 820 W/m 12,8 C 18,6 C 16,1 km/h (3 Bft) 100,00 %
05.09.2017 13:34 19,8 C 18,9 C 65 % 1019,8 hPa 0,0 l/m 12,5 km/h (3 Bft) W 268 2 min 0,000 mm 3,8 UV-I 822 W/m 13,0 C 17,7 C 20,9 km/h (4 Bft) 100,00 %
05.09.2017 13:36 19,7 C 18,9 C 65 % 1019,9 hPa 0,0 l/m 14,3 km/h (3 Bft) W 261 0 min 0,000 mm 3,1 UV-I 303 W/m 12,9 C 17,1 C 19,3 km/h (3 Bft) 100,00 %
05.09.2017 13:38 19,4 C 18,9 C 64 % 1019,7 hPa 0,0 l/m 11,6 km/h (2 Bft) W-NW 302 0 min 0,000 mm 2,9 UV-I 309 W/m 12,4 C 17,5 C 16,1 km/h (3 Bft) 100,00 %
05.09.2017 13:40 19,3 C 18,9 C 65 % 1019,7 hPa 0,0 l/m 9,4 km/h (2 Bft) W-SW 254 2 min 0,000 mm 2,9 UV-I 422 W/m 12,6 C 18,1 C 16,1 km/h (3 Bft) 100,00 %
05.09.2017 13:42 19,3 C 18,9 C 66 % 1019,7 hPa 0,0 l/m 5,2 km/h (1 Bft) SW 225 2 min 0,000 mm 3,4 UV-I 436 W/m 12,8 C 19,3 C 6,4 km/h (2 Bft) 100,00 %
05.09.2017 13:44 19,5 C 18,9 C 66 % 1019,7 hPa 0,0 l/m 6,3 km/h (2 Bft) S 180 0 min 0,000 mm 2,7 UV-I 394 W/m 13,0 C 19,5 C 11,3 km/h (2 Bft) 100,00 %
05.09.2017 13:46 19,6 C 18,9 C 65 % 1019,7 hPa 0,0 l/m 9,4 km/h (2 Bft) W 271 0 min 0,000 mm 2,1 UV-I 296 W/m 12,8 C 18,4 C 14,5 km/h (3 Bft) 100,00 %
05.09.2017 13:48 19,5 C 18,9 C 65 % 1019,7 hPa 0,0 l/m 12,4 km/h (3 Bft) SW 226 0 min 0,000 mm 2,0 UV-I 263 W/m 12,7 C 17,3 C 22,5 km/h (4 Bft) 97,87 %
05.09.2017 13:50 19,4 C 18,9 C 64 % 1019,7 hPa 0,0 l/m 7,3 km/h (2 Bft) W-SW 245 0 min 0,000 mm 3,1 UV-I 312 W/m 12,4 C 19,0 C 12,9 km/h (3 Bft) 97,87 %
05.09.2017 13:52 19,4 C 18,9 C 64 % 1019,7 hPa 0,0 l/m 10,0 km/h (2 Bft) W 276 2 min 0,000 mm 4,4 UV-I 829 W/m 12,4 C 18,0 C 19,3 km/h (3 Bft) 95,74 %
05.09.2017 13:54 19,6 C 18,9 C 64 % 1019,7 hPa 0,0 l/m 12,1 km/h (2 Bft) W-SW 245 2 min 0,000 mm 4,5 UV-I 829 W/m 12,6 C 17,5 C 17,7 km/h (3 Bft) 96,00 %
05.09.2017 13:56 19,8 C 19,4 C 64 % 1019,6 hPa 0,0 l/m 13,3 km/h (3 Bft) SW 225 2 min 0,000 mm 4,5 UV-I 797 W/m 12,8 C 17,4 C 25,7 km/h (4 Bft) 97,87 %
05.09.2017 13:58 19,9 C 19,4 C 63 % 1019,6 hPa 0,0 l/m 17,0 km/h (3 Bft) SW 225 2 min 0,000 mm 4,4 UV-I 793 W/m 12,6 C 16,7 C 27,4 km/h (4 Bft) 97,87 %
05.09.2017 14:00 20,1 C 19,4 C 64 % 1019,6 hPa 0,0 l/m 12,3 km/h (3 Bft) W-SW 240 2 min 0,407 mm 4,4 UV-I 782 W/m 13,1 C 18,1 C 20,9 km/h (4 Bft) 97,87 %
05.09.2017 14:02 20,2 C 19,4 C 62 % 1019,7 hPa 0,0 l/m 17,8 km/h (3 Bft) W 265 2 min 0,000 mm 4,3 UV-I 783 W/m 12,7 C 16,9 C 27,4 km/h (4 Bft) 95,74 %
05.09.2017 14:04 20,2 C 19,4 C 64 % 1019,7 hPa 0,0 l/m 14,1 km/h (3 Bft) W-SW 250 2 min 0,000 mm 4,4 UV-I 797 W/m 13,2 C 17,7 C 25,7 km/h (4 Bft) 97,56 %
05.09.2017 14:06 20,1 C 19,4 C 62 % 1019,6 hPa 0,0 l/m 14,9 km/h (3 Bft) W-SW 253 2 min 0,000 mm 4,2 UV-I 583 W/m 12,6 C 17,4 C 22,5 km/h (4 Bft) 98,00 %
05.09.2017 14:08 19,9 C 19,4 C 62 % 1019,6 hPa 0,0 l/m 12,2 km/h (2 Bft) W-SW 249 2 min 0,000 mm 2,7 UV-I 454 W/m 12,4 C 17,9 C 19,3 km/h (3 Bft) 98,00 %
05.09.2017 14:10 19,8 C 19,4 C 63 % 1019,6 hPa 0,0 l/m 10,7 km/h (2 Bft) W-SW 254 0 min 0,000 mm 2,3 UV-I 196 W/m 12,5 C 18,2 C 16,1 km/h (3 Bft) 97,87 %
05.09.2017 14:12 19,6 C 19,4 C 64 % 1019,6 hPa 0,0 l/m 13,6 km/h (3 Bft) SW 223 0 min 0,000 mm 2,3 UV-I 194 W/m 12,6 C 17,1 C 22,5 km/h (4 Bft) 93,62 %
05.09.2017 14:14 19,3 C 19,4 C 64 % 1019,5 hPa 0,0 l/m 15,8 km/h (3 Bft) W-SW 239 0 min 0,000 mm 2,3 UV-I 222 W/m 12,3 C 16,2 C 22,5 km/h (4 Bft) 94,74 %
05.09.2017 14:16 19,1 C 19,4 C 65 % 1019,5 hPa 0,0 l/m 15,4 km/h (3 Bft) W-SW 257 0 min 0,000 mm 2,3 UV-I 226 W/m 12,4 C 16,1 C 24,1 km/h (4 Bft) 98,00 %
05.09.2017 14:18 19,1 C 19,4 C 66 % 1019,4 hPa 0,0 l/m 11,8 km/h (2 Bft) W 268 0 min 0,000 mm 2,5 UV-I 254 W/m 12,6 C 17,1 C 20,9 km/h (4 Bft) 97,87 %
05.09.2017 14:20 19,0 C 19,4 C 66 % 1019,4 hPa 0,0 l/m 13,2 km/h (3 Bft) SW 217 0 min 0,000 mm 2,6 UV-I 292 W/m 12,5 C 16,5 C 19,3 km/h (3 Bft) 95,74 %
05.09.2017 14:22 18,9 C 19,4 C 66 % 1019,4 hPa 0,0 l/m 13,3 km/h (3 Bft) W-SW 243 0 min 0,000 mm 2,6 UV-I 297 W/m 12,4 C 16,4 C 20,9 km/h (4 Bft) 100,00 %
05.09.2017 14:24 18,9 C 19,4 C 66 % 1019,3 hPa 0,0 l/m 12,8 km/h (3 Bft) W 270 0 min 0,000 mm 2,8 UV-I 325 W/m 12,4 C 16,5 C 20,9 km/h (4 Bft) 100,00 %
05.09.2017 14:26 18,9 C 19,4 C 66 % 1019,3 hPa 0,0 l/m 12,5 km/h (3 Bft) W-SW 244 0 min 0,000 mm 3,3 UV-I 339 W/m 12,4 C 16,6 C 19,3 km/h (3 Bft) 97,87 %
05.09.2017 14:28 19,1 C 19,4 C 67 % 1019,3 hPa 0,0 l/m 11,7 km/h (2 Bft) W-SW 246 2 min 0,000 mm 3,5 UV-I 415 W/m 12,8 C 17,1 C 19,3 km/h (3 Bft) 100,00 %
05.09.2017 14:30 19,2 C 19,4 C 66 % 1019,3 hPa 0,0 l/m 15,1 km/h (3 Bft) W-SW 239 2 min 0,000 mm 3,7 UV-I 445 W/m 12,7 C 16,3 C 25,7 km/h (4 Bft) 100,00 %
05.09.2017 14:32 19,3 C 19,4 C 65 % 1019,3 hPa 0,0 l/m 16,1 km/h (3 Bft) W 267 2 min 0,000 mm 4,0 UV-I 720 W/m 12,6 C 16,1 C 22,5 km/h (4 Bft) 100,00 %
05.09.2017 14:34 19,5 C 19,4 C 67 % 1019,2 hPa 0,0 l/m 14,7 km/h (3 Bft) W-SW 238 2 min 0,000 mm 3,8 UV-I 711 W/m 13,2 C 16,7 C 22,5 km/h (4 Bft) 100,00 %
05.09.2017 14:36 19,7 C 19,4 C 65 % 1019,3 hPa 0,0 l/m 13,0 km/h (3 Bft) W-SW 242 2 min 0,000 mm 3,9 UV-I 728 W/m 12,9 C 17,4 C 22,5 km/h (4 Bft) 100,00 %
05.09.2017 14:38 19,8 C 19,4 C 64 % 1019,2 hPa 0,0 l/m 17,5 km/h (3 Bft) W 261 2 min 0,000 mm 3,9 UV-I 712 W/m 12,8 C 16,4 C 24,1 km/h (4 Bft) 100,00 %
05.09.2017 14:40 19,8 C 19,4 C 64 % 1019,2 hPa 0,0 l/m 12,6 km/h (3 Bft) W-SW 246 2 min 0,000 mm 3,8 UV-I 690 W/m 12,8 C 17,6 C 22,5 km/h (4 Bft) 97,87 %
05.09.2017 14:42 19,9 C 19,4 C 64 % 1019,2 hPa 0,0 l/m 11,9 km/h (2 Bft) W-SW 250 2 min 0,000 mm 3,8 UV-I 683 W/m 12,9 C 17,9 C 24,1 km/h (4 Bft) 100,00 %
05.09.2017 14:44 19,9 C 19,4 C 64 % 1019,1 hPa 0,0 l/m 13,7 km/h (3 Bft) S-SW 199 2 min 0,000 mm 3,8 UV-I 683 W/m 12,9 C 17,5 C 20,9 km/h (4 Bft) 100,00 %
05.09.2017 14:46 19,8 C 19,4 C 63 % 1019,1 hPa 0,0 l/m 16,6 km/h (3 Bft) S-SW 205 2 min 0,000 mm 3,8 UV-I 689 W/m 12,5 C 16,6 C 27,4 km/h (4 Bft) 97,87 %
05.09.2017 14:48 19,7 C 19,4 C 64 % 1019,2 hPa 0,0 l/m 12,4 km/h (3 Bft) S 190 2 min 0,000 mm 3,8 UV-I 695 W/m 12,7 C 17,6 C 19,3 km/h (3 Bft) 100,00 %
05.09.2017 14:50 19,9 C 19,4 C 66 % 1019,1 hPa 0,0 l/m 11,8 km/h (2 Bft) W-SW 240 2 min 0,000 mm 3,7 UV-I 683 W/m 13,4 C 18,0 C 19,3 km/h (3 Bft) 100,00 %
05.09.2017 14:52 19,9 C 19,4 C 64 % 1019,2 hPa 0,0 l/m 18,6 km/h (3 Bft) SW 217 2 min 0,000 mm 3,7 UV-I 679 W/m 12,9 C 16,3 C 24,1 km/h (4 Bft) 100,00 %
05.09.2017 14:54 20,0 C 19,4 C 65 % 1019,2 hPa 0,0 l/m 9,7 km/h (2 Bft) W-SW 242 2 min 0,000 mm 3,6 UV-I 677 W/m 13,2 C 18,7 C 17,7 km/h (3 Bft) 100,00 %
05.09.2017 14:56 20,1 C 19,4 C 64 % 1019,2 hPa 0,0 l/m 11,6 km/h (2 Bft) S 187 2 min 0,000 mm 3,6 UV-I 695 W/m 13,1 C 18,3 C 17,7 km/h (3 Bft) 98,00 %
05.09.2017 14:58 20,2 C 19,4 C 64 % 1019,1 hPa 0,0 l/m 10,2 km/h (2 Bft) W-SW 251 2 min 0,000 mm 3,5 UV-I 711 W/m 13,2 C 18,8 C 19,3 km/h (3 Bft) 100,00 %
05.09.2017 15:00 20,3 C 19,4 C 63 % 1019,1 hPa 0,0 l/m 15,1 km/h (3 Bft) W-SW 257 2 min 0,000 mm 2,8 UV-I 596 W/m 13,0 C 17,6 C 24,1 km/h (4 Bft) 100,00 %
05.09.2017 15:02 20,1 C 19,4 C 63 % 1019,1 hPa 0,0 l/m 13,2 km/h (3 Bft) W-SW 254 0 min 0,381 mm 2,4 UV-I 295 W/m 12,8 C 17,8 C 17,7 km/h (3 Bft) 100,00 %
05.09.2017 15:04 19,8 C 19,4 C 64 % 1019,1 hPa 0,0 l/m 14,2 km/h (3 Bft) W-SW 247 0 min 0,000 mm 1,9 UV-I 259 W/m 12,8 C 17,2 C 20,9 km/h (4 Bft) 100,00 %
05.09.2017 15:06 19,7 C 19,4 C 64 % 1019,1 hPa 0,0 l/m 13,1 km/h (3 Bft) SW 230 0 min 0,000 mm 1,6 UV-I 236 W/m 12,7 C 17,4 C 17,7 km/h (3 Bft) 100,00 %
05.09.2017 15:08 19,5 C 19,4 C 65 % 1019,0 hPa 0,0 l/m 12,6 km/h (3 Bft) SW 232 0 min 0,000 mm 1,4 UV-I 226 W/m 12,7 C 17,3 C 17,7 km/h (3 Bft) 98,00 %
05.09.2017 15:10 19,3 C 19,4 C 66 % 1018,9 hPa 0,0 l/m 11,1 km/h (2 Bft) W-SW 246 0 min 0,000 mm 1,4 UV-I 232 W/m 12,8 C 17,5 C 17,7 km/h (3 Bft) 95,74 %
05.09.2017 15:12 19,3 C 19,4 C 67 % 1018,9 hPa 0,0 l/m 10,3 km/h (2 Bft) W-SW 244 0 min 0,000 mm 1,4 UV-I 248 W/m 13,0 C 17,8 C 16,1 km/h (3 Bft) 100,00 %
05.09.2017 15:14 19,3 C 19,4 C 67 % 1018,9 hPa 0,0 l/m 10,5 km/h (2 Bft) W-SW 243 0 min 0,000 mm 1,3 UV-I 227 W/m 13,0 C 17,7 C 17,7 km/h (3 Bft) 100,00 %
05.09.2017 15:16 19,3 C 19,4 C 67 % 1018,9 hPa 0,0 l/m 13,4 km/h (3 Bft) SW 233 0 min 0,000 mm 1,3 UV-I 264 W/m 13,0 C 16,8 C 20,9 km/h (4 Bft) 100,00 %
05.09.2017 15:18 19,3 C 19,4 C 66 % 1018,9 hPa 0,0 l/m 15,2 km/h (3 Bft) W-SW 253 0 min 0,000 mm 1,8 UV-I 330 W/m 12,8 C 16,4 C 24,1 km/h (4 Bft) 100,00 %
05.09.2017 15:20 19,4 C 19,4 C 67 % 1018,8 hPa 0,0 l/m 15,6 km/h (3 Bft) W 269 2 min 0,000 mm 2,1 UV-I 544 W/m 13,1 C 16,4 C 24,1 km/h (4 Bft) 100,00 %
05.09.2017 15:22 19,6 C 19,4 C 67 % 1018,9 hPa 0,0 l/m 14,1 km/h (3 Bft) SW 227 2 min 0,000 mm 1,8 UV-I 463 W/m 13,3 C 17,0 C 22,5 km/h (4 Bft) 100,00 %
05.09.2017 15:24 19,6 C 19,4 C 67 % 1018,9 hPa 0,0 l/m 15,0 km/h (3 Bft) S-SW 213 0 min 0,000 mm 1,4 UV-I 258 W/m 13,3 C 16,8 C 20,9 km/h (4 Bft) 100,00 %
05.09.2017 15:26 19,4 C 19,4 C 66 % 1018,8 hPa 0,0 l/m 17,9 km/h (3 Bft) W-SW 239 0 min 0,000 mm 1,4 UV-I 252 W/m 12,9 C 15,9 C 27,4 km/h (4 Bft) 100,00 %
05.09.2017 15:28 19,3 C 19,4 C 67 % 1018,8 hPa 0,0 l/m 15,1 km/h (3 Bft) SW 232 0 min 0,000 mm 1,4 UV-I 251 W/m 13,0 C 16,4 C 24,1 km/h (4 Bft) 100,00 %
05.09.2017 15:30 19,2 C 19,4 C 67 % 1018,8 hPa 0,0 l/m 13,3 km/h (3 Bft) SW 224 0 min 0,000 mm 1,3 UV-I 251 W/m 12,9 C 16,7 C 20,9 km/h (4 Bft) 97,96 %
05.09.2017 15:32 19,2 C 19,4 C 68 % 1018,7 hPa 0,0 l/m 16,2 km/h (3 Bft) W-SW 246 0 min 0,000 mm 1,4 UV-I 286 W/m 13,1 C 16,0 C 25,7 km/h (4 Bft) 100,00 %
05.09.2017 15:34 19,2 C 19,4 C 68 % 1018,8 hPa 0,0 l/m 16,7 km/h (3 Bft) W 277 0 min 0,000 mm 1,8 UV-I 315 W/m 13,1 C 15,9 C 24,1 km/h (4 Bft) 100,00 %
05.09.2017 15:36 19,3 C 19,4 C 67 % 1018,7 hPa 0,0 l/m 13,1 km/h (3 Bft) W 259 0 min 0,000 mm 1,8 UV-I 316 W/m 13,0 C 16,9 C 20,9 km/h (4 Bft) 100,00 %
05.09.2017 15:38 19,4 C 19,4 C 68 % 1018,7 hPa 0,0 l/m 16,8 km/h (3 Bft) W-SW 250 2 min 0,000 mm 2,2 UV-I 419 W/m 13,3 C 16,1 C 27,4 km/h (4 Bft) 97,87 %
05.09.2017 15:40 19,6 C 19,4 C 67 % 1018,7 hPa 0,0 l/m 16,0 km/h (3 Bft) W 260 2 min 0,000 mm 2,0 UV-I 406 W/m 13,3 C 16,5 C 20,9 km/h (4 Bft) 95,74 %
05.09.2017 15:42 19,6 C 19,4 C 67 % 1018,7 hPa 0,0 l/m 12,4 km/h (3 Bft) W-SW 257 0 min 0,000 mm 2,0 UV-I 270 W/m 13,3 C 17,5 C 22,5 km/h (4 Bft) 98,11 %
05.09.2017 15:44 19,7 C 19,4 C 66 % 1018,6 hPa 0,0 l/m 17,7 km/h (3 Bft) W-SW 245 2 min 0,000 mm 2,6 UV-I 520 W/m 13,2 C 16,3 C 24,1 km/h (4 Bft) 97,87 %
05.09.2017 15:46 19,8 C 19,4 C 67 % 1018,6 hPa 0,0 l/m 12,6 km/h (3 Bft) W-SW 253 2 min 0,000 mm 2,6 UV-I 724 W/m 13,5 C 17,6 C 19,3 km/h (3 Bft) 94,74 %
05.09.2017 15:48 20,1 C 19,4 C 67 % 1018,6 hPa 0,0 l/m 13,2 km/h (3 Bft) SW 223 2 min 0,000 mm 2,4 UV-I 721 W/m 13,8 C 17,8 C 20,9 km/h (4 Bft) 93,62 %
05.09.2017 15:50 20,2 C 19,4 C 66 % 1018,5 hPa 0,0 l/m 15,0 km/h (3 Bft) SW 214 2 min 0,000 mm 2,2 UV-I 612 W/m 13,6 C 17,5 C 25,7 km/h (4 Bft) 96,00 %
05.09.2017 15:52 20,1 C 19,4 C 64 % 1018,6 hPa 0,0 l/m 13,0 km/h (3 Bft) W-SW 239 0 min 0,000 mm 1,8 UV-I 252 W/m 13,1 C 17,9 C 24,1 km/h (4 Bft) 96,00 %
05.09.2017 15:54 19,8 C 19,4 C 66 % 1018,7 hPa 0,0 l/m 17,4 km/h (3 Bft) W 259 0 min 0,000 mm 1,6 UV-I 216 W/m 13,3 C 16,5 C 24,1 km/h (4 Bft) 97,87 %
05.09.2017 15:56 19,6 C 19,4 C 66 % 1018,7 hPa 0,0 l/m 13,2 km/h (3 Bft) W-SW 242 0 min 0,000 mm 1,7 UV-I 231 W/m 13,1 C 17,2 C 22,5 km/h (4 Bft) 97,87 %
05.09.2017 15:58 19,4 C 19,4 C 67 % 1018,6 hPa 0,0 l/m 11,9 km/h (2 Bft) SW 227 0 min 0,000 mm 1,6 UV-I 241 W/m 13,1 C 17,4 C 19,3 km/h (3 Bft) 95,74 %
05.09.2017 16:00 19,3 C 19,4 C 67 % 1018,6 hPa 0,0 l/m 13,8 km/h (3 Bft) W-SW 240 0 min 0,254 mm 1,6 UV-I 230 W/m 13,0 C 16,7 C 25,7 km/h (4 Bft) 97,87 %
05.09.2017 16:02 19,3 C 19,4 C 67 % 1018,6 hPa 0,0 l/m 17,3 km/h (3 Bft) W 278 0 min 0,000 mm 1,4 UV-I 233 W/m 13,0 C 15,9 C 22,5 km/h (4 Bft) 95,74 %
05.09.2017 16:04 19,2 C 19,4 C 67 % 1018,6 hPa 0,0 l/m 15,3 km/h (3 Bft) W 263 0 min 0,000 mm 1,4 UV-I 250 W/m 12,9 C 16,2 C 24,1 km/h (4 Bft) 93,62 %
05.09.2017 16:06 19,2 C 19,4 C 67 % 1018,6 hPa 0,0 l/m 15,6 km/h (3 Bft) W-SW 248 0 min 0,000 mm 1,5 UV-I 257 W/m 12,9 C 16,1 C 25,7 km/h (4 Bft) 97,87 %
05.09.2017 16:08 19,3 C 19,4 C 68 % 1018,7 hPa 0,0 l/m 15,1 km/h (3 Bft) SW 226 0 min 0,000 mm 1,8 UV-I 258 W/m 13,2 C 16,4 C 29,0 km/h (5 Bft) 98,00 %
05.09.2017 16:10 19,6 C 19,4 C 66 % 1018,6 hPa 0,0 l/m 17,7 km/h (3 Bft) W-SW 244 0 min 0,000 mm 1,3 UV-I 294 W/m 13,1 C 16,1 C 25,7 km/h (4 Bft) 97,87 %
05.09.2017 16:12 19,6 C 19,4 C 65 % 1018,6 hPa 0,0 l/m 17,4 km/h (3 Bft) W-SW 238 2 min 0,000 mm 1,2 UV-I 443 W/m 12,8 C 16,2 C 25,7 km/h (4 Bft) 100,00 %
05.09.2017 16:14 19,5 C 19,4 C 65 % 1018,6 hPa 0,0 l/m 14,0 km/h (3 Bft) W-SW 244 0 min 0,000 mm 1,0 UV-I 211 W/m 12,7 C 16,9 C 19,3 km/h (3 Bft) 97,87 %
05.09.2017 16:16 19,4 C 19,4 C 66 % 1018,6 hPa 0,0 l/m 10,7 km/h (2 Bft) SW 232 0 min 0,000 mm 1,0 UV-I 216 W/m 12,9 C 17,7 C 19,3 km/h (3 Bft) 100,00 %
05.09.2017 16:18 19,3 C 19,4 C 67 % 1018,6 hPa 0,0 l/m 17,3 km/h (3 Bft) W-SW 244 0 min 0,000 mm 1,4 UV-I 220 W/m 13,0 C 15,9 C 29,0 km/h (5 Bft) 100,00 %
05.09.2017 16:20 19,4 C 19,4 C 66 % 1018,7 hPa 0,0 l/m 17,7 km/h (3 Bft) SW 230 0 min 0,000 mm 1,3 UV-I 274 W/m 12,9 C 15,9 C 25,7 km/h (4 Bft) 100,00 %
05.09.2017 16:22 19,3 C 19,4 C 66 % 1018,6 hPa 0,0 l/m 14,4 km/h (3 Bft) W-SW 240 0 min 0,000 mm 1,4 UV-I 248 W/m 12,8 C 16,6 C 22,5 km/h (4 Bft) 100,00 %
05.09.2017 16:24 19,3 C 19,4 C 66 % 1018,6 hPa 0,0 l/m 15,0 km/h (3 Bft) W-SW 258 0 min 0,000 mm 1,3 UV-I 248 W/m 12,8 C 16,4 C 22,5 km/h (4 Bft) 97,87 %
05.09.2017 16:26 19,3 C 19,4 C 67 % 1018,4 hPa 0,0 l/m 11,0 km/h (2 Bft) S-SW 213 0 min 0,000 mm 1,4 UV-I 267 W/m 13,0 C 17,5 C 17,7 km/h (3 Bft) 97,87 %
05.09.2017 16:28 19,5 C 19,4 C 67 % 1018,5 hPa 0,0 l/m 11,8 km/h (2 Bft) W 259 2 min 0,000 mm 1,7 UV-I 489 W/m 13,2 C 17,5 C 19,3 km/h (3 Bft) 97,87 %
05.09.2017 16:30 19,7 C 19,4 C 67 % 1018,5 hPa 0,0 l/m 9,6 km/h (2 Bft) W-SW 249 2 min 0,000 mm 1,7 UV-I 514 W/m 13,4 C 18,4 C 16,1 km/h (3 Bft) 100,00 %
05.09.2017 16:32 19,9 C 19,4 C 66 % 1018,4 hPa 0,0 l/m 8,9 km/h (2 Bft) S-SW 209 2 min 0,000 mm 1,7 UV-I 493 W/m 13,4 C 18,9 C 14,5 km/h (3 Bft) 100,00 %
05.09.2017 16:34 20,1 C 19,4 C 64 % 1018,5 hPa 0,0 l/m 19,2 km/h (3 Bft) W-SW 252 2 min 0,000 mm 1,6 UV-I 467 W/m 13,1 C 16,5 C 27,4 km/h (4 Bft) 100,00 %
05.09.2017 16:36 20,2 C 19,4 C 65 % 1018,5 hPa 0,0 l/m 14,9 km/h (3 Bft) W-SW 248 2 min 0,000 mm 1,6 UV-I 452 W/m 13,4 C 17,5 C 25,7 km/h (4 Bft) 97,87 %
05.09.2017 16:38 20,1 C 19,4 C 64 % 1018,5 hPa 0,0 l/m 14,3 km/h (3 Bft) W 265 2 min 0,000 mm 1,6 UV-I 441 W/m 13,1 C 17,5 C 24,1 km/h (4 Bft) 97,37 %
05.09.2017 16:40 20,1 C 19,4 C 66 % 1018,4 hPa 0,0 l/m 13,1 km/h (3 Bft) SW 223 2 min 0,000 mm 1,5 UV-I 437 W/m 13,5 C 17,8 C 19,3 km/h (3 Bft) 100,00 %
05.09.2017 16:42 20,1 C 19,4 C 66 % 1018,5 hPa 0,0 l/m 12,1 km/h (2 Bft) W-SW 257 2 min 0,000 mm 1,5 UV-I 425 W/m 13,5 C 18,1 C 17,7 km/h (3 Bft) 100,00 %
05.09.2017 16:44 20,1 C 19,4 C 66 % 1018,6 hPa 0,0 l/m 18,1 km/h (3 Bft) W-SW 254 2 min 0,000 mm 1,5 UV-I 419 W/m 13,5 C 16,7 C 29,0 km/h (5 Bft) 100,00 %
05.09.2017 16:46 20,1 C 19,4 C 65 % 1018,5 hPa 0,0 l/m 17,8 km/h (3 Bft) SW 236 2 min 0,000 mm 1,4 UV-I 409 W/m 13,3 C 16,8 C 24,1 km/h (4 Bft) 98,00 %
05.09.2017 16:48 19,9 C 19,4 C 65 % 1018,5 hPa 0,0 l/m 18,4 km/h (3 Bft) SW 229 2 min 0,000 mm 1,4 UV-I 397 W/m 13,1 C 16,4 C 27,4 km/h (4 Bft) 100,00 %
05.09.2017 16:50 19,8 C 19,4 C 66 % 1018,5 hPa 0,0 l/m 16,9 km/h (3 Bft) W-SW 242 2 min 0,000 mm 1,3 UV-I 399 W/m 13,3 C 16,6 C 22,5 km/h (4 Bft) 97,87 %
05.09.2017 16:52 19,8 C 19,4 C 67 % 1018,4 hPa 0,0 l/m 15,5 km/h (3 Bft) W-SW 250 2 min 0,000 mm 1,3 UV-I 397 W/m 13,5 C 16,9 C 24,1 km/h (4 Bft) 98,00 %
05.09.2017 16:54 19,9 C 19,4 C 66 % 1018,5 hPa 0,0 l/m 15,2 km/h (3 Bft) W 265 2 min 0,000 mm 1,3 UV-I 396 W/m 13,4 C 17,1 C 22,5 km/h (4 Bft) 95,74 %
05.09.2017 16:56 19,9 C 19,4 C 67 % 1018,5 hPa 0,0 l/m 11,1 km/h (2 Bft) SW 229 2 min 0,000 mm 1,3 UV-I 399 W/m 13,6 C 18,2 C 16,1 km/h (3 Bft) 97,87 %
05.09.2017 16:58 19,9 C 19,4 C 67 % 1018,4 hPa 0,0 l/m 13,0 km/h (3 Bft) SW 225 2 min 0,000 mm 1,1 UV-I 298 W/m 13,6 C 17,6 C 20,9 km/h (4 Bft) 97,92 %
05.09.2017 17:00 19,9 C 19,4 C 67 % 1018,4 hPa 0,0 l/m 13,1 km/h (3 Bft) W 267 0 min 0,000 mm 1,1 UV-I 151 W/m 13,6 C 17,6 C 16,1 km/h (3 Bft) 97,87 %
05.09.2017 17:02 20,0 C 19,4 C 68 % 1018,5 hPa 0,0 l/m 13,0 km/h (3 Bft) W-SW 239 2 min 0,279 mm 1,1 UV-I 409 W/m 13,9 C 17,8 C 24,1 km/h (4 Bft) 95,12 %
05.09.2017 17:04 20,0 C 19,4 C 66 % 1018,4 hPa 0,0 l/m 14,2 km/h (3 Bft) SW 215 2 min 0,000 mm 1,1 UV-I 427 W/m 13,4 C 17,4 C 24,1 km/h (4 Bft) 97,87 %
05.09.2017 17:06 20,0 C 19,4 C 67 % 1018,4 hPa 0,0 l/m 14,8 km/h (3 Bft) SW 225 2 min 0,000 mm 1,0 UV-I 408 W/m 13,7 C 17,3 C 24,1 km/h (4 Bft) 96,00 %
05.09.2017 17:08 20,0 C 19,4 C 67 % 1018,4 hPa 0,0 l/m 11,1 km/h (2 Bft) W-NW 284 2 min 0,000 mm 1,0 UV-I 343 W/m 13,7 C 18,3 C 16,1 km/h (3 Bft) 93,62 %
05.09.2017 17:10 20,0 C 19,4 C 66 % 1018,4 hPa 0,0 l/m 14,7 km/h (3 Bft) W-SW 248 2 min 0,000 mm 1,0 UV-I 426 W/m 13,4 C 17,3 C 19,3 km/h (3 Bft) 97,37 %
05.09.2017 17:12 20,0 C 19,4 C 67 % 1018,4 hPa 0,0 l/m 14,9 km/h (3 Bft) W-SW 258 2 min 0,000 mm 1,0 UV-I 419 W/m 13,7 C 17,3 C 24,1 km/h (4 Bft) 96,23 %
05.09.2017 17:14 20,0 C 19,4 C 67 % 1018,4 hPa 0,0 l/m 15,6 km/h (3 Bft) W 259 2 min 0,000 mm 1,0 UV-I 377 W/m 13,7 C 17,1 C 24,1 km/h (4 Bft) 95,74 %
05.09.2017 17:16 20,1 C 19,4 C 67 % 1018,3 hPa 0,0 l/m 12,1 km/h (2 Bft) W-SW 247 2 min 0,000 mm 0,9 UV-I 356 W/m 13,8 C 18,1 C 20,9 km/h (4 Bft) 95,74 %
05.09.2017 17:18 20,1 C 19,4 C 67 % 1018,3 hPa 0,0 l/m 15,4 km/h (3 Bft) W-SW 254 2 min 0,000 mm 0,9 UV-I 360 W/m 13,8 C 17,3 C 20,9 km/h (4 Bft) 97,87 %
05.09.2017 17:20 20,2 C 19,4 C 66 % 1018,4 hPa 0,0 l/m 13,2 km/h (3 Bft) W-SW 240 2 min 0,000 mm 0,9 UV-I 356 W/m 13,6 C 17,9 C 24,1 km/h (4 Bft) 97,87 %
05.09.2017 17:22 20,1 C 19,4 C 67 % 1018,4 hPa 0,0 l/m 16,6 km/h (3 Bft) W 263 0 min 0,000 mm 0,7 UV-I 152 W/m 13,8 C 17,0 C 24,1 km/h (4 Bft) 98,00 %
05.09.2017 17:24 19,8 C 19,4 C 67 % 1018,4 hPa 0,0 l/m 14,1 km/h (3 Bft) W 266 0 min 0,000 mm 0,6 UV-I 117 W/m 13,5 C 17,2 C 24,1 km/h (4 Bft) 93,62 %
05.09.2017 17:26 19,7 C 19,4 C 68 % 1018,4 hPa 0,0 l/m 12,4 km/h (3 Bft) W 273 0 min 0,000 mm 0,6 UV-I 129 W/m 13,6 C 17,6 C 22,5 km/h (4 Bft) 97,87 %
05.09.2017 17:28 19,6 C 19,4 C 69 % 1018,4 hPa 0,0 l/m 8,5 km/h (2 Bft) SW 219 2 min 0,000 mm 0,6 UV-I 239 W/m 13,8 C 18,7 C 19,3 km/h (3 Bft) 97,37 %
05.09.2017 17:30 19,6 C 19,4 C 68 % 1018,4 hPa 0,0 l/m 11,8 km/h (2 Bft) W-SW 250 2 min 0,000 mm 0,6 UV-I 359 W/m 13,5 C 17,6 C 19,3 km/h (3 Bft) 95,83 %
05.09.2017 17:32 19,6 C 19,4 C 68 % 1018,4 hPa 0,0 l/m 9,8 km/h (2 Bft) W-SW 237 2 min 0,000 mm 0,6 UV-I 195 W/m 13,5 C 18,3 C 17,7 km/h (3 Bft) 92,00 %
05.09.2017 17:34 19,6 C 19,4 C 69 % 1018,4 hPa 0,0 l/m 12,6 km/h (3 Bft) W-SW 248 0 min 0,000 mm 0,5 UV-I 111 W/m 13,8 C 17,4 C 22,5 km/h (4 Bft) 93,62 %
05.09.2017 17:36 19,4 C 19,4 C 69 % 1018,4 hPa 0,0 l/m 9,1 km/h (2 Bft) W-SW 244 0 min 0,000 mm 0,5 UV-I 106 W/m 13,6 C 18,3 C 14,5 km/h (3 Bft) 95,74 %
05.09.2017 17:38 19,3 C 19,4 C 69 % 1018,4 hPa 0,0 l/m 7,1 km/h (2 Bft) W 274 0 min 0,000 mm 0,5 UV-I 109 W/m 13,5 C 19,0 C 9,7 km/h (2 Bft) 95,74 %
05.09.2017 17:40 19,3 C 19,4 C 69 % 1018,4 hPa 0,0 l/m 6,9 km/h (2 Bft) W-SW 253 0 min 0,000 mm 0,3 UV-I 96 W/m 13,5 C 19,1 C 12,9 km/h (3 Bft) 95,74 %
05.09.2017 17:42 19,2 C 19,4 C 70 % 1018,4 hPa 0,0 l/m 5,4 km/h (1 Bft) W-SW 248 0 min 0,000 mm 0,0 UV-I 112 W/m 13,6 C 19,2 C 8,0 km/h (2 Bft) 96,00 %
05.09.2017 17:44 19,2 C 19,4 C 71 % 1018,4 hPa 0,0 l/m 6,5 km/h (2 Bft) W-SW 254 0 min 0,000 mm 0,0 UV-I 122 W/m 13,8 C 19,2 C 11,3 km/h (2 Bft) 94,74 %
05.09.2017 17:46 19,2 C 19,4 C 71 % 1018,5 hPa 0,0 l/m 8,0 km/h (2 Bft) W-SW 258 0 min 0,000 mm 0,0 UV-I 123 W/m 13,8 C 18,5 C 14,5 km/h (3 Bft) 93,62 %
05.09.2017 17:48 19,2 C 19,4 C 71 % 1018,4 hPa 0,0 l/m 7,9 km/h (2 Bft) W-SW 248 0 min 0,000 mm 0,5 UV-I 139 W/m 13,8 C 18,6 C 12,9 km/h (3 Bft) 94,00 %
05.09.2017 17:50 19,2 C 19,4 C 71 % 1018,4 hPa 0,0 l/m 7,7 km/h (2 Bft) W-SW 252 0 min 0,000 mm 0,5 UV-I 151 W/m 13,8 C 18,6 C 12,9 km/h (3 Bft) 95,74 %
05.09.2017 17:52 19,2 C 19,4 C 71 % 1018,4 hPa 0,0 l/m 7,6 km/h (2 Bft) W 265 2 min 0,000 mm 0,5 UV-I 163 W/m 13,8 C 18,7 C 12,9 km/h (3 Bft) 95,74 %
05.09.2017 17:54 19,2 C 19,4 C 71 % 1018,4 hPa 0,0 l/m 7,3 km/h (2 Bft) W 261 0 min 0,000 mm 0,0 UV-I 98 W/m 13,8 C 18,8 C 14,5 km/h (3 Bft) 95,74 %
05.09.2017 17:56 19,2 C 19,4 C 71 % 1018,4 hPa 0,0 l/m 5,6 km/h (1 Bft) SW 236 0 min 0,000 mm 0,0 UV-I 132 W/m 13,8 C 19,2 C 11,3 km/h (2 Bft) 93,62 %
05.09.2017 17:58 19,2 C 19,4 C 71 % 1018,4 hPa 0,0 l/m 6,7 km/h (2 Bft) W 276 0 min 0,000 mm 0,0 UV-I 81 W/m 13,8 C 19,1 C 11,3 km/h (2 Bft) 96,00 %
05.09.2017 18:00 19,2 C 19,4 C 71 % 1018,4 hPa 0,0 l/m 5,1 km/h (1 Bft) W 263 2 min 0,000 mm 0,0 UV-I 166 W/m 13,8 C 19,2 C 6,4 km/h (2 Bft) 96,00 %
05.09.2017 18:02 19,3 C 19,4 C 71 % 1018,4 hPa 0,0 l/m 6,6 km/h (2 Bft) W-NW 282 2 min 0,178 mm 0,0 UV-I 227 W/m 13,9 C 19,2 C 11,3 km/h (2 Bft) 94,74 %
05.09.2017 18:04 19,4 C 19,4 C 70 % 1018,4 hPa 0,0 l/m 5,4 km/h (1 Bft) W 277 2 min 0,000 mm 0,0 UV-I 246 W/m 13,8 C 19,4 C 6,4 km/h (2 Bft) 98,00 %
05.09.2017 18:06 19,6 C 19,4 C 70 % 1018,4 hPa 0,0 l/m 2,9 km/h (1 Bft) W 266 2 min 0,000 mm 0,0 UV-I 244 W/m 14,0 C 19,6 C 4,8 km/h (1 Bft) 97,87 %
05.09.2017 18:08 19,7 C 19,4 C 70 % 1018,4 hPa 0,0 l/m 4,9 km/h (1 Bft) W-SW 254 2 min 0,000 mm 0,0 UV-I 215 W/m 14,1 C 19,7 C 9,7 km/h (2 Bft) 95,74 %
05.09.2017 18:10 19,7 C 19,4 C 71 % 1018,4 hPa 0,0 l/m 4,6 km/h (1 Bft) W-NW 298 2 min 0,000 mm 0,0 UV-I 145 W/m 14,3 C 19,7 C 6,4 km/h (2 Bft) 95,74 %
05.09.2017 18:12 19,7 C 19,4 C 69 % 1018,4 hPa 0,0 l/m 6,1 km/h (2 Bft) W 263 0 min 0,000 mm 0,0 UV-I 63 W/m 13,8 C 19,7 C 9,7 km/h (2 Bft) 100,00 %
05.09.2017 18:14 19,6 C 19,4 C 70 % 1018,3 hPa 0,0 l/m 5,2 km/h (1 Bft) W-SW 251 0 min 0,000 mm 0,0 UV-I 62 W/m 14,0 C 19,6 C 9,7 km/h (2 Bft) 100,00 %
05.09.2017 18:16 19,3 C 19,4 C 71 % 1018,3 hPa 0,0 l/m 4,6 km/h (1 Bft) W 267 0 min 0,000 mm 0,0 UV-I 66 W/m 13,9 C 19,3 C 6,4 km/h (2 Bft) 98,00 %
05.09.2017 18:18 19,2 C 19,4 C 72 % 1018,3 hPa 0,0 l/m 7,0 km/h (2 Bft) W-SW 237 0 min 0,000 mm 0,0 UV-I 70 W/m 14,0 C 18,9 C 11,3 km/h (2 Bft) 100,00 %
05.09.2017 18:20 19,1 C 19,4 C 71 % 1018,3 hPa 0,0 l/m 8,8 km/h (2 Bft) W-SW 253 0 min 0,000 mm 0,0 UV-I 72 W/m 13,7 C 18,1 C 14,5 km/h (3 Bft) 100,00 %
05.09.2017 18:22 19,1 C 19,4 C 72 % 1018,3 hPa 0,0 l/m 6,9 km/h (2 Bft) W-SW 253 0 min 0,000 mm 0,0 UV-I 77 W/m 13,9 C 18,9 C 11,3 km/h (2 Bft) 97,87 %
05.09.2017 18:24 19,0 C 19,4 C 72 % 1018,3 hPa 0,0 l/m 7,7 km/h (2 Bft) W-SW 254 0 min 0,000 mm 0,0 UV-I 74 W/m 13,8 C 18,4 C 12,9 km/h (3 Bft) 97,87 %
05.09.2017 18:26 18,9 C 19,4 C 72 % 1018,3 hPa 0,0 l/m 8,3 km/h (2 Bft) W-SW 256 0 min 0,000 mm 0,0 UV-I 78 W/m 13,7 C 18,1 C 12,9 km/h (3 Bft) 100,00 %
05.09.2017 18:28 18,9 C 19,4 C 73 % 1018,3 hPa 0,0 l/m 6,1 km/h (2 Bft) W-SW 238 0 min 0,000 mm 0,0 UV-I 99 W/m 13,9 C 18,9 C 11,3 km/h (2 Bft) 97,87 %
05.09.2017 18:30 18,9 C 19,4 C 73 % 1018,3 hPa 0,0 l/m 5,9 km/h (2 Bft) W-SW 248 2 min 0,000 mm 0,0 UV-I 111 W/m 13,9 C 18,9 C 11,3 km/h (2 Bft) 100,00 %
05.09.2017 18:32 18,9 C 19,4 C 73 % 1018,3 hPa 0,0 l/m 7,0 km/h (2 Bft) W-SW 250 0 min 0,000 mm 0,0 UV-I 85 W/m 13,9 C 18,6 C 11,3 km/h (2 Bft) 97,87 %
05.09.2017 18:34 18,9 C 19,4 C 73 % 1018,2 hPa 0,0 l/m 6,2 km/h (2 Bft) W 259 0 min 0,000 mm 0,0 UV-I 88 W/m 13,9 C 18,9 C 9,7 km/h (2 Bft) 97,87 %
05.09.2017 18:36 18,9 C 19,4 C 74 % 1018,2 hPa 0,0 l/m 5,3 km/h (1 Bft) W-SW 257 2 min 0,000 mm 0,0 UV-I 132 W/m 14,2 C 18,9 C 11,3 km/h (2 Bft) 100,00 %
05.09.2017 18:38 19,0 C 19,4 C 74 % 1018,2 hPa 0,0 l/m 5,2 km/h (1 Bft) W-SW 255 2 min 0,000 mm 0,0 UV-I 138 W/m 14,3 C 19,0 C 11,3 km/h (2 Bft) 98,00 %
05.09.2017 18:40 19,1 C 19,4 C 73 % 1018,2 hPa 0,0 l/m 4,9 km/h (1 Bft) W-SW 255 2 min 0,000 mm 0,0 UV-I 128 W/m 14,1 C 19,1 C 8,0 km/h (2 Bft) 97,87 %
05.09.2017 18:42 19,1 C 19,4 C 73 % 1018,2 hPa 0,0 l/m 5,1 km/h (1 Bft) SW 226 2 min 0,000 mm 0,0 UV-I 118 W/m 14,1 C 19,1 C 6,4 km/h (2 Bft) 100,00 %
05.09.2017 18:44 19,2 C 19,4 C 73 % 1018,2 hPa 0,0 l/m 4,0 km/h (1 Bft) SW 226 2 min 0,000 mm 0,0 UV-I 111 W/m 14,2 C 19,2 C 6,4 km/h (2 Bft) 100,00 %
05.09.2017 18:46 19,2 C 19,4 C 73 % 1018,2 hPa 0,0 l/m 3,9 km/h (1 Bft) W-SW 244 2 min 0,000 mm 0,0 UV-I 109 W/m 14,2 C 19,2 C 8,0 km/h (2 Bft) 100,00 %
05.09.2017 18:48 19,2 C 19,4 C 73 % 1018,2 hPa 0,0 l/m 3,3 km/h (1 Bft) W-SW 244 2 min 0,000 mm 0,0 UV-I 111 W/m 14,2 C 19,2 C 4,8 km/h (1 Bft) 100,00 %
05.09.2017 18:50 19,2 C 19,4 C 73 % 1018,2 hPa 0,0 l/m 3,5 km/h (1 Bft) SW 233 2 min 0,000 mm 0,0 UV-I 113 W/m 14,2 C 19,2 C 8,0 km/h (2 Bft) 100,00 %
05.09.2017 18:52 19,2 C 19,4 C 73 % 1018,2 hPa 0,0 l/m 2,6 km/h (1 Bft) SW 233 2 min 0,000 mm 0,0 UV-I 74 W/m 14,2 C 19,2 C 4,8 km/h (1 Bft) 100,00 %
05.09.2017 18:54 19,2 C 19,4 C 74 % 1018,2 hPa 0,0 l/m 3,1 km/h (1 Bft) SW 233 2 min 0,000 mm 0,0 UV-I 84 W/m 14,4 C 19,2 C 4,8 km/h (1 Bft) 100,00 %
05.09.2017 18:56 19,1 C 19,4 C 74 % 1018,2 hPa 0,0 l/m 3,9 km/h (1 Bft) W-SW 241 2 min 0,000 mm 0,0 UV-I 71 W/m 14,4 C 19,1 C 6,4 km/h (2 Bft) 100,00 %
05.09.2017 18:58 19,1 C 19,4 C 74 % 1018,2 hPa 0,0 l/m 3,9 km/h (1 Bft) W 267 0 min 0,000 mm 0,0 UV-I 52 W/m 14,4 C 19,1 C 6,4 km/h (2 Bft) 100,00 %
05.09.2017 19:00 19,0 C 19,4 C 74 % 1018,2 hPa 0,0 l/m 5,1 km/h (1 Bft) SW 221 0 min 0,076 mm 0,0 UV-I 43 W/m 14,3 C 19,0 C 6,4 km/h (2 Bft) 100,00 %
05.09.2017 19:02 19,0 C 19,4 C 74 % 1018,2 hPa 0,0 l/m 5,1 km/h (1 Bft) W 264 0 min 0,000 mm 0,0 UV-I 38 W/m 14,3 C 19,0 C 9,7 km/h (2 Bft) 100,00 %
05.09.2017 19:04 18,9 C 19,4 C 74 % 1018,2 hPa 0,0 l/m 5,1 km/h (1 Bft) W 269 0 min 0,000 mm 0,0 UV-I 34 W/m 14,2 C 18,9 C 6,4 km/h (2 Bft) 100,00 %
05.09.2017 19:06 18,8 C 19,4 C 75 % 1018,2 hPa 0,0 l/m 4,5 km/h (1 Bft) W-SW 258 0 min 0,000 mm 0,0 UV-I 30 W/m 14,3 C 18,8 C 9,7 km/h (2 Bft) 100,00 %
05.09.2017 19:08 18,7 C 19,4 C 74 % 1018,2 hPa 0,0 l/m 8,0 km/h (2 Bft) W 267 0 min 0,000 mm 0,0 UV-I 26 W/m 14,0 C 18,0 C 12,9 km/h (3 Bft) 100,00 %
05.09.2017 19:10 18,7 C 19,4 C 73 % 1018,1 hPa 0,0 l/m 6,5 km/h (2 Bft) W 260 0 min 0,000 mm 0,0 UV-I 25 W/m 13,8 C 18,7 C 12,9 km/h (3 Bft) 100,00 %
05.09.2017 19:12 18,6 C 19,4 C 74 % 1018,1 hPa 0,0 l/m 6,0 km/h (2 Bft) W-SW 244 0 min 0,000 mm 0,0 UV-I 23 W/m 13,9 C 18,6 C 11,3 km/h (2 Bft) 100,00 %
05.09.2017 19:14 18,6 C 19,4 C 75 % 1018,1 hPa 0,0 l/m 4,4 km/h (1 Bft) W-NW 284 0 min 0,000 mm 0,0 UV-I 20 W/m 14,1 C 18,6 C 6,4 km/h (2 Bft) 97,96 %
05.09.2017 19:16 18,4 C 19,4 C 75 % 1018,2 hPa 0,0 l/m 5,1 km/h (1 Bft) W-SW 246 0 min 0,000 mm 0,0 UV-I 19 W/m 13,9 C 18,4 C 12,9 km/h (3 Bft) 100,00 %
05.09.2017 19:18 18,4 C 19,4 C 75 % 1018,1 hPa 0,0 l/m 4,3 km/h (1 Bft) W 267 0 min 0,000 mm 0,0 UV-I 18 W/m 13,9 C 18,4 C 6,4 km/h (2 Bft) 97,87 %
05.09.2017 19:20 18,3 C 19,4 C 76 % 1018,1 hPa 0,0 l/m 2,6 km/h (1 Bft) W 267 0 min 0,000 mm 0,0 UV-I 15 W/m 14,0 C 18,3 C 4,8 km/h (1 Bft) 97,14 %
05.09.2017 19:22 18,3 C 19,4 C 76 % 1018,2 hPa 0,0 l/m 3,6 km/h (1 Bft) W 267 0 min 0,000 mm 0,0 UV-I 14 W/m 14,0 C 18,3 C 4,8 km/h (1 Bft) 98,00 %
05.09.2017 19:24 18,2 C 19,4 C 76 % 1018,1 hPa 0,0 l/m 3,2 km/h (1 Bft) W 267 2 min 0,000 mm 0,0 UV-I 12 W/m 13,9 C 18,2 C 4,8 km/h (1 Bft) 97,96 %
05.09.2017 19:26 18,1 C 19,4 C 77 % 1018,1 hPa 0,0 l/m 2,9 km/h (1 Bft) W 267 2 min 0,000 mm 0,0 UV-I 11 W/m 14,0 C 18,1 C 4,8 km/h (1 Bft) 100,00 %
05.09.2017 19:28 18,1 C 19,4 C 77 % 1018,1 hPa 0,0 l/m 2,7 km/h (1 Bft) W 267 0 min 0,000 mm 0,0 UV-I 10 W/m 14,0 C 18,1 C 4,8 km/h (1 Bft) 100,00 %
05.09.2017 19:30 18,0 C 19,4 C 77 % 1018,1 hPa 0,0 l/m 2,0 km/h (1 Bft) W 267 0 min 0,000 mm 0,0 UV-I 9 W/m 13,9 C 18,0 C 3,2 km/h (1 Bft) 95,83 %
05.09.2017 19:32 18,0 C 19,4 C 78 % 1018,1 hPa 0,0 l/m 0,8 km/h (0 Bft) W 267 0 min 0,000 mm 0,0 UV-I 8 W/m 14,1 C 18,0 C 3,2 km/h (1 Bft) 95,74 %
05.09.2017 19:34 17,9 C 19,4 C 78 % 1018,1 hPa 0,0 l/m 1,4 km/h (1 Bft) W 267 0 min 0,000 mm 0,0 UV-I 7 W/m 14,0 C 17,9 C 3,2 km/h (1 Bft) 97,87 %
05.09.2017 19:36 17,8 C 19,4 C 78 % 1018,2 hPa 0,0 l/m 0,1 km/h (0 Bft) W 267 0 min 0,000 mm 0,0 UV-I 7 W/m 13,9 C 17,8 C 1,6 km/h (1 Bft) 95,74 %
05.09.2017 19:38 17,8 C 19,4 C 78 % 1018,2 hPa 0,0 l/m 0,2 km/h (0 Bft) W 267 0 min 0,000 mm 0,0 UV-I 6 W/m 13,9 C 17,8 C 1,6 km/h (1 Bft) 98,00 %
05.09.2017 19:40 17,7 C 19,4 C 79 % 1018,2 hPa 0,0 l/m 1,3 km/h (1 Bft) W 267 0 min 0,000 mm 0,0 UV-I 5 W/m 14,0 C 17,7 C 1,6 km/h (1 Bft) 97,87 %
05.09.2017 19:42 17,6 C 19,4 C 79 % 1018,1 hPa 0,0 l/m 0,8 km/h (0 Bft) W 267 0 min 0,000 mm 0,0 UV-I 5 W/m 13,9 C 17,6 C 3,2 km/h (1 Bft) 97,22 %
05.09.2017 19:44 17,6 C 19,4 C 80 % 1018,2 hPa 0,0 l/m 0,9 km/h (0 Bft) W 267 0 min 0,000 mm 0,0 UV-I 5 W/m 14,1 C 17,6 C 3,2 km/h (1 Bft) 97,87 %
05.09.2017 19:46 17,6 C 19,4 C 80 % 1018,2 hPa 0,0 l/m 0,0 km/h (0 Bft) W 267 0 min 0,000 mm 0,0 UV-I 5 W/m 14,1 C 17,6 C 0,0 km/h (0 Bft) 98,00 %
05.09.2017 19:48 17,5 C 19,4 C 79 % 1018,2 hPa 0,0 l/m 0,3 km/h (0 Bft) W 267 0 min 0,000 mm 0,0 UV-I 5 W/m 13,8 C 17,5 C 1,6 km/h (1 Bft) 95,74 %
05.09.2017 19:50 17,5 C 19,4 C 80 % 1018,2 hPa 0,0 l/m 0,1 km/h (0 Bft) W 267 0 min 0,000 mm 0,0 UV-I 2 W/m 14,0 C 17,5 C 1,6 km/h (1 Bft) 94,00 %
05.09.2017 19:52 17,5 C 19,4 C 80 % 1018,3 hPa 0,0 l/m 0,6 km/h (0 Bft) W 267 0 min 0,000 mm 0,0 UV-I 0 W/m 14,0 C 17,5 C 1,6 km/h (1 Bft) 95,83 %
05.09.2017 19:54 17,4 C 19,4 C 80 % 1018,3 hPa 0,0 l/m 0,8 km/h (0 Bft) W 267 0 min 0,000 mm 0,0 UV-I 0 W/m 13,9 C 17,4 C 1,6 km/h (1 Bft) 97,87 %
05.09.2017 19:56 17,4 C 19,4 C 82 % 1018,3 hPa 0,0 l/m 0,1 km/h (0 Bft) W 267 0 min 0,000 mm 0,0 UV-I 0 W/m 14,3 C 17,4 C 3,2 km/h (1 Bft) 97,37 %
05.09.2017 19:58 17,2 C 19,4 C 82 % 1018,4 hPa 0,0 l/m 0,8 km/h (0 Bft) W 267 0 min 0,000 mm 0,0 UV-I 0 W/m 14,1 C 17,2 C 3,2 km/h (1 Bft) 93,62 %
05.09.2017 20:00 17,0 C 19,4 C 83 % 1018,4 hPa 0,0 l/m 0,0 km/h (0 Bft) W 267 0 min 0,000 mm 0,0 UV-I 0 W/m 14,1 C 17,0 C 0,0 km/h (0 Bft) 97,87 %
05.09.2017 20:02 16,8 C 19,4 C 84 % 1018,4 hPa 0,0 l/m 0,0 km/h (0 Bft) W 267 0 min 0,025 mm 0,0 UV-I 0 W/m 14,1 C 16,8 C 0,0 km/h (0 Bft) 95,83 %
05.09.2017 20:04 16,7 C 19,4 C 84 % 1018,4 hPa 0,0 l/m 0,1 km/h (0 Bft) W 267 0 min 0,000 mm 0,0 UV-I 0 W/m 14,0 C 16,7 C 1,6 km/h (1 Bft) 98,11 %
05.09.2017 20:06 16,6 C 19,4 C 85 % 1018,4 hPa 0,0 l/m 0,5 km/h (0 Bft) W 267 0 min 0,000 mm 0,0 UV-I 0 W/m 14,1 C 16,6 C 1,6 km/h (1 Bft) 98,00 %
05.09.2017 20:08 16,4 C 19,4 C 86 % 1018,4 hPa 0,0 l/m 0,1 km/h (0 Bft) W 267 0 min 0,000 mm 0,0 UV-I 0 W/m 14,1 C 16,4 C 1,6 km/h (1 Bft) 100,00 %
05.09.2017 20:10 16,4 C 19,4 C 85 % 1018,5 hPa 0,0 l/m 0,0 km/h (0 Bft) W 267 0 min 0,000 mm 0,0 UV-I 0 W/m 13,9 C 16,4 C 0,0 km/h (0 Bft) 100,00 %
05.09.2017 20:12 16,3 C 19,4 C 86 % 1018,5 hPa 0,0 l/m 0,1 km/h (0 Bft) W 267 0 min 0,000 mm 0,0 UV-I 0 W/m 14,0 C 16,3 C 1,6 km/h (1 Bft) 97,87 %
05.09.2017 20:14 16,3 C 19,4 C 86 % 1018,5 hPa 0,0 l/m 0,4 km/h (0 Bft) W 267 0 min 0,000 mm 0,0 UV-I 0 W/m 14,0 C 16,3 C 1,6 km/h (1 Bft) 100,00 %
05.09.2017 20:16 16,2 C 19,4 C 86 % 1018,5 hPa 0,0 l/m 0,1 km/h (0 Bft) W 267 0 min 0,000 mm 0,0 UV-I 0 W/m 13,9 C 16,2 C 1,6 km/h (1 Bft) 100,00 %
05.09.2017 20:18 16,1 C 19,4 C 86 % 1018,6 hPa 0,0 l/m 0,0 km/h (0 Bft) W 267 0 min 0,000 mm 0,0 UV-I 0 W/m 13,8 C 16,1 C 1,6 km/h (1 Bft) 100,00 %
05.09.2017 20:20 16,0 C 19,4 C 86 % 1018,6 hPa 0,0 l/m 0,0 km/h (0 Bft) W 267 0 min 0,000 mm 0,0 UV-I 0 W/m 13,7 C 16,0 C 0,0 km/h (0 Bft) 100,00 %
05.09.2017 20:22 15,9 C 19,4 C 87 % 1018,6 hPa 0,0 l/m 0,0 km/h (0 Bft) W 267 0 min 0,000 mm 0,0 UV-I 0 W/m 13,7 C 15,9 C 0,0 km/h (0 Bft) 97,87 %
05.09.2017 20:24 15,8 C 19,4 C 87 % 1018,6 hPa 0,0 l/m 0,0 km/h (0 Bft) W 267 0 min 0,000 mm 0,0 UV-I 0 W/m 13,6 C 15,8 C 0,0 km/h (0 Bft) 97,87 %
05.09.2017 20:26 15,7 C 19,4 C 87 % 1018,6 hPa 0,0 l/m 0,0 km/h (0 Bft) W 267 0 min 0,000 mm 0,0 UV-I 0 W/m 13,5 C 15,7 C 1,6 km/h (1 Bft) 100,00 %
05.09.2017 20:28 15,6 C 19,4 C 88 % 1018,6 hPa 0,0 l/m 0,3 km/h (0 Bft) W 267 0 min 0,000 mm 0,0 UV-I 0 W/m 13,6 C 15,6 C 1,6 km/h (1 Bft) 100,00 %
05.09.2017 20:30 15,6 C 19,4 C 88 % 1018,6 hPa 0,0 l/m 0,2 km/h (0 Bft) W 267 0 min 0,000 mm 0,0 UV-I 0 W/m 13,6 C 15,6 C 1,6 km/h (1 Bft) 95,74 %
05.09.2017 20:32 15,5 C 19,4 C 88 % 1018,7 hPa 0,0 l/m 1,1 km/h (1 Bft) W 267 0 min 0,000 mm 0,0 UV-I 0 W/m 13,5 C 15,5 C 3,2 km/h (1 Bft) 97,37 %
05.09.2017 20:34 15,5 C 19,4 C 88 % 1018,8 hPa 0,0 l/m 0,1 km/h (0 Bft) W 267 0 min 0,000 mm 0,0 UV-I 0 W/m 13,5 C 15,5 C 1,6 km/h (1 Bft) 97,87 %
05.09.2017 20:36 15,4 C 19,4 C 88 % 1018,7 hPa 0,0 l/m 0,3 km/h (0 Bft) W 267 0 min 0,000 mm 0,0 UV-I 0 W/m 13,4 C 15,4 C 3,2 km/h (1 Bft) 95,74 %
05.09.2017 20:38 15,4 C 19,4 C 88 % 1018,7 hPa 0,0 l/m 0,1 km/h (0 Bft) W 267 0 min 0,000 mm 0,0 UV-I 0 W/m 13,4 C 15,4 C 1,6 km/h (1 Bft) 98,18 %
05.09.2017 20:40 15,4 C 19,4 C 88 % 1018,7 hPa 0,0 l/m 1,5 km/h (1 Bft) W 267 0 min 0,000 mm 0,0 UV-I 0 W/m 13,4 C 15,4 C 3,2 km/h (1 Bft) 100,00 %
05.09.2017 20:42 15,4 C 19,4 C 88 % 1018,8 hPa 0,0 l/m 1,2 km/h (1 Bft) W 267 0 min 0,000 mm 0,0 UV-I 0 W/m 13,4 C 15,4 C 3,2 km/h (1 Bft) 100,00 %
05.09.2017 20:44 15,3 C 19,4 C 88 % 1018,8 hPa 0,0 l/m 2,7 km/h (1 Bft) W 267 0 min 0,000 mm 0,0 UV-I 0 W/m 13,3 C 15,3 C 4,8 km/h (1 Bft) 100,00 %
05.09.2017 20:46 15,3 C 19,4 C 88 % 1018,8 hPa 0,0 l/m 2,0 km/h (1 Bft) W 267 0 min 0,000 mm 0,0 UV-I 0 W/m 13,3 C 15,3 C 3,2 km/h (1 Bft) 100,00 %
05.09.2017 20:48 15,2 C 19,4 C 89 % 1018,8 hPa 0,0 l/m 1,1 km/h (1 Bft) W 267 0 min 0,000 mm 0,0 UV-I 0 W/m 13,4 C 15,2 C 3,2 km/h (1 Bft) 100,00 %
05.09.2017 20:50 15,2 C 19,4 C 88 % 1018,8 hPa 0,0 l/m 1,1 km/h (1 Bft) W 267 0 min 0,000 mm 0,0 UV-I 0 W/m 13,2 C 15,2 C 3,2 km/h (1 Bft) 100,00 %
05.09.2017 20:52 15,1 C 19,4 C 89 % 1018,8 hPa 0,0 l/m 1,7 km/h (1 Bft) W 267 0 min 0,000 mm 0,0 UV-I 0 W/m 13,3 C 15,1 C 3,2 km/h (1 Bft) 100,00 %
05.09.2017 20:54 15,1 C 19,4 C 89 % 1018,8 hPa 0,0 l/m 0,5 km/h (0 Bft) W 267 0 min 0,000 mm 0,0 UV-I 0 W/m 13,3 C 15,1 C 3,2 km/h (1 Bft) 97,87 %
05.09.2017 20:56 15,1 C 19,4 C 89 % 1018,8 hPa 0,0 l/m 1,4 km/h (1 Bft) W 267 0 min 0,000 mm 0,0 UV-I 0 W/m 13,3 C 15,1 C 3,2 km/h (1 Bft) 100,00 %
05.09.2017 20:58 15,2 C 19,4 C 90 % 1018,8 hPa 0,0 l/m 2,7 km/h (1 Bft) W 267 0 min 0,000 mm 0,0 UV-I 0 W/m 13,6 C 15,2 C 3,2 km/h (1 Bft) 100,00 %
05.09.2017 21:00 15,2 C 19,4 C 89 % 1018,8 hPa 0,0 l/m 2,3 km/h (1 Bft) W 267 0 min 0,000 mm 0,0 UV-I 0 W/m 13,4 C 15,2 C 3,2 km/h (1 Bft) 100,00 %
05.09.2017 21:02 15,2 C 19,4 C 89 % 1018,8 hPa 0,0 l/m 2,7 km/h (1 Bft) W 267 0 min 0,000 mm 0,0 UV-I 0 W/m 13,4 C 15,2 C 3,2 km/h (1 Bft) 100,00 %
05.09.2017 21:04 15,1 C 19,4 C 89 % 1018,8 hPa 0,0 l/m 1,7 km/h (1 Bft) W 267 0 min 0,000 mm 0,0 UV-I 0 W/m 13,3 C 15,1 C 3,2 km/h (1 Bft) 97,87 %
05.09.2017 21:06 15,1 C 19,4 C 89 % 1018,8 hPa 0,0 l/m 1,7 km/h (1 Bft) W-SW 252 0 min 0,000 mm 0,0 UV-I 0 W/m 13,3 C 15,1 C 3,2 km/h (1 Bft) 100,00 %
05.09.2017 21:08 14,9 C 19,4 C 89 % 1018,8 hPa 0,0 l/m 1,1 km/h (1 Bft) W-SW 252 0 min 0,000 mm 0,0 UV-I 0 W/m 13,1 C 14,9 C 1,6 km/h (1 Bft) 100,00 %
05.09.2017 21:10 14,9 C 19,4 C 90 % 1018,8 hPa 0,0 l/m 0,7 km/h (0 Bft) W-SW 252 0 min 0,000 mm 0,0 UV-I 0 W/m 13,3 C 14,9 C 3,2 km/h (1 Bft) 97,37 %
05.09.2017 21:12 14,8 C 19,4 C 90 % 1018,8 hPa 0,0 l/m 0,4 km/h (0 Bft) W-SW 252 0 min 0,000 mm 0,0 UV-I 0 W/m 13,2 C 14,8 C 1,6 km/h (1 Bft) 97,87 %
05.09.2017 21:14 14,8 C 19,4 C 90 % 1018,8 hPa 0,0 l/m 0,4 km/h (0 Bft) W-SW 252 0 min 0,000 mm 0,0 UV-I 0 W/m 13,2 C 14,8 C 1,6 km/h (1 Bft) 97,87 %
05.09.2017 21:16 14,8 C 19,4 C 90 % 1018,7 hPa 0,0 l/m 0,4 km/h (0 Bft) W-SW 252 0 min 0,000 mm 0,0 UV-I 0 W/m 13,2 C 14,8 C 1,6 km/h (1 Bft) 97,87 %
05.09.2017 21:18 14,7 C 19,4 C 91 % 1018,7 hPa 0,0 l/m 0,6 km/h (0 Bft) W-SW 252 0 min 0,000 mm 0,0 UV-I 0 W/m 13,2 C 14,7 C 1,6 km/h (1 Bft) 97,87 %
05.09.2017 21:20 14,7 C 19,4 C 91 % 1018,7 hPa 0,0 l/m 0,5 km/h (0 Bft) W-SW 252 0 min 0,000 mm 0,0 UV-I 0 W/m 13,2 C 14,7 C 3,2 km/h (1 Bft) 97,87 %
05.09.2017 21:22 14,7 C 19,4 C 90 % 1018,7 hPa 0,0 l/m 0,2 km/h (0 Bft) W-SW 252 0 min 0,000 mm 0,0 UV-I 0 W/m 13,1 C 14,7 C 1,6 km/h (1 Bft) 97,87 %
05.09.2017 21:24 14,7 C 19,4 C 91 % 1018,7 hPa 0,0 l/m 0,1 km/h (0 Bft) W-SW 252 0 min 0,000 mm 0,0 UV-I 0 W/m 13,2 C 14,7 C 1,6 km/h (1 Bft) 97,92 %
05.09.2017 21:26 14,6 C 19,4 C 91 % 1018,7 hPa 0,0 l/m 0,1 km/h (0 Bft) W-SW 252 0 min 0,000 mm 0,0 UV-I 0 W/m 13,1 C 14,6 C 1,6 km/h (1 Bft) 97,87 %
05.09.2017 21:28 14,6 C 19,4 C 91 % 1018,7 hPa 0,0 l/m 0,0 km/h (0 Bft) W-SW 252 0 min 0,000 mm 0,0 UV-I 0 W/m 13,1 C 14,6 C 0,0 km/h (0 Bft) 95,74 %
05.09.2017 21:30 14,6 C 19,4 C 91 % 1018,7 hPa 0,0 l/m 2,6 km/h (1 Bft) W-SW 252 0 min 0,000 mm 0,0 UV-I 0 W/m 13,1 C 14,6 C 4,8 km/h (1 Bft) 97,87 %
05.09.2017 21:32 14,5 C 19,4 C 91 % 1018,7 hPa 0,0 l/m 1,8 km/h (1 Bft) W-SW 252 0 min 0,000 mm 0,0 UV-I 0 W/m 13,0 C 14,5 C 3,2 km/h (1 Bft) 96,00 %
05.09.2017 21:34 14,5 C 19,4 C 91 % 1018,7 hPa 0,0 l/m 1,9 km/h (1 Bft) W-SW 248 0 min 0,000 mm 0,0 UV-I 0 W/m 13,0 C 14,5 C 3,2 km/h (1 Bft) 95,74 %
05.09.2017 21:36 14,5 C 19,4 C 92 % 1018,7 hPa 0,0 l/m 1,4 km/h (1 Bft) W-SW 248 0 min 0,000 mm 0,0 UV-I 0 W/m 13,2 C 14,5 C 3,2 km/h (1 Bft) 94,00 %
05.09.2017 21:38 14,5 C 19,4 C 91 % 1018,7 hPa 0,0 l/m 0,5 km/h (0 Bft) W-SW 248 0 min 0,000 mm 0,0 UV-I 0 W/m 13,0 C 14,5 C 1,6 km/h (1 Bft) 95,74 %
05.09.2017 21:40 14,4 C 19,4 C 91 % 1018,7 hPa 0,0 l/m 1,8 km/h (1 Bft) W-SW 248 0 min 0,000 mm 0,0 UV-I 0 W/m 12,9 C 14,4 C 3,2 km/h (1 Bft) 94,29 %
05.09.2017 21:42 14,4 C 19,4 C 91 % 1018,7 hPa 0,0 l/m 1,4 km/h (1 Bft) W-SW 248 0 min 0,000 mm 0,0 UV-I 0 W/m 12,9 C 14,4 C 3,2 km/h (1 Bft) 94,00 %
05.09.2017 21:44 14,4 C 19,4 C 91 % 1018,7 hPa 0,0 l/m 0,9 km/h (0 Bft) W-SW 248 0 min 0,000 mm 0,0 UV-I 0 W/m 12,9 C 14,4 C 1,6 km/h (1 Bft) 96,00 %
05.09.2017 21:46 14,4 C 19,4 C 91 % 1018,7 hPa 0,0 l/m 1,8 km/h (1 Bft) W-SW 248 0 min 0,000 mm 0,0 UV-I 0 W/m 12,9 C 14,4 C 3,2 km/h (1 Bft) 92,00 %
05.09.2017 21:48 14,3 C 19,4 C 91 % 1018,7 hPa 0,0 l/m 2,2 km/h (1 Bft) W-SW 248 0 min 0,000 mm 0,0 UV-I 0 W/m 12,8 C 14,3 C 3,2 km/h (1 Bft) 93,62 %
05.09.2017 21:50 14,3 C 19,4 C 92 % 1018,7 hPa 0,0 l/m 1,0 km/h (0 Bft) W-SW 248 0 min 0,000 mm 0,0 UV-I 0 W/m 13,0 C 14,3 C 3,2 km/h (1 Bft) 95,74 %
05.09.2017 21:52 14,4 C 19,4 C 92 % 1018,7 hPa 0,0 l/m 0,6 km/h (0 Bft) W-SW 248 0 min 0,000 mm 0,0 UV-I 0 W/m 13,1 C 14,4 C 1,6 km/h (1 Bft) 95,74 %
05.09.2017 21:54 14,4 C 19,4 C 92 % 1018,8 hPa 0,0 l/m 0,2 km/h (0 Bft) W-SW 248 0 min 0,000 mm 0,0 UV-I 0 W/m 13,1 C 14,4 C 1,6 km/h (1 Bft) 94,74 %
05.09.2017 21:56 14,5 C 19,4 C 92 % 1018,7 hPa 0,0 l/m 0,0 km/h (0 Bft) W-SW 248 0 min 0,000 mm 0,0 UV-I 0 W/m 13,2 C 14,5 C 0,0 km/h (0 Bft) 95,74 %
05.09.2017 21:58 14,6 C 19,4 C 92 % 1018,7 hPa 0,0 l/m 0,0 km/h (0 Bft) W-SW 248 0 min 0,000 mm 0,0 UV-I 0 W/m 13,3 C 14,6 C 0,0 km/h (0 Bft) 93,62 %
05.09.2017 22:00 14,6 C 19,4 C 92 % 1018,7 hPa 0,0 l/m 0,0 km/h (0 Bft) W-SW 248 0 min 0,000 mm 0,0 UV-I 0 W/m 13,3 C 14,6 C 0,0 km/h (0 Bft) 91,49 %
05.09.2017 22:02 14,6 C 19,4 C 92 % 1018,7 hPa 0,0 l/m 0,0 km/h (0 Bft) W-SW 248 0 min 0,000 mm 0,0 UV-I 0 W/m 13,3 C 14,6 C 1,6 km/h (1 Bft) 96,00 %
05.09.2017 22:04 14,5 C 19,4 C 91 % 1018,7 hPa 0,0 l/m 0,3 km/h (0 Bft) W-SW 248 0 min 0,000 mm 0,0 UV-I 0 W/m 13,0 C 14,5 C 1,6 km/h (1 Bft) 94,00 %
05.09.2017 22:06 14,4 C 19,4 C 91 % 1018,7 hPa 0,0 l/m 0,4 km/h (0 Bft) W-SW 248 0 min 0,000 mm 0,0 UV-I 0 W/m 12,9 C 14,4 C 1,6 km/h (1 Bft) 93,62 %
05.09.2017 22:08 14,4 C 19,4 C 91 % 1018,7 hPa 0,0 l/m 0,3 km/h (0 Bft) W-SW 248 0 min 0,000 mm 0,0 UV-I 0 W/m 12,9 C 14,4 C 1,6 km/h (1 Bft) 94,00 %
05.09.2017 22:10 14,3 C 19,4 C 91 % 1018,7 hPa 0,0 l/m 0,5 km/h (0 Bft) W-SW 248 0 min 0,000 mm 0,0 UV-I 0 W/m 12,8 C 14,3 C 1,6 km/h (1 Bft) 93,75 %
05.09.2017 22:12 14,3 C 19,4 C 92 % 1018,7 hPa 0,0 l/m 0,5 km/h (0 Bft) W-SW 248 0 min 0,000 mm 0,0 UV-I 0 W/m 13,0 C 14,3 C 1,6 km/h (1 Bft) 97,87 %
05.09.2017 22:14 14,2 C 19,4 C 92 % 1018,7 hPa 0,0 l/m 0,2 km/h (0 Bft) W-SW 248 0 min 0,000 mm 0,0 UV-I 0 W/m 12,9 C 14,2 C 1,6 km/h (1 Bft) 100,00 %
05.09.2017 22:16 14,2 C 19,4 C 92 % 1018,7 hPa 0,0 l/m 0,3 km/h (0 Bft) W-SW 248 0 min 0,000 mm 0,0 UV-I 0 W/m 12,9 C 14,2 C 1,6 km/h (1 Bft) 98,00 %
05.09.2017 22:18 14,2 C 19,4 C 92 % 1018,6 hPa 0,0 l/m 1,1 km/h (1 Bft) W-SW 248 0 min 0,000 mm 0,0 UV-I 0 W/m 12,9 C 14,2 C 3,2 km/h (1 Bft) 100,00 %
05.09.2017 22:20 14,2 C 19,4 C 92 % 1018,7 hPa 0,0 l/m 1,7 km/h (1 Bft) W-SW 248 0 min 0,000 mm 0,0 UV-I 0 W/m 12,9 C 14,2 C 3,2 km/h (1 Bft) 100,00 %
05.09.2017 22:22 14,2 C 19,4 C 92 % 1018,7 hPa 0,0 l/m 1,6 km/h (1 Bft) W-SW 248 0 min 0,000 mm 0,0 UV-I 0 W/m 12,9 C 14,2 C 3,2 km/h (1 Bft) 95,74 %
05.09.2017 22:24 14,2 C 19,4 C 92 % 1018,6 hPa 0,0 l/m 1,6 km/h (1 Bft) SW 215 0 min 0,000 mm 0,0 UV-I 0 W/m 12,9 C 14,2 C 3,2 km/h (1 Bft) 97,87 %
05.09.2017 22:26 14,2 C 19,4 C 92 % 1018,6 hPa 0,0 l/m 1,9 km/h (1 Bft) SW 215 0 min 0,000 mm 0,0 UV-I 0 W/m 12,9 C 14,2 C 4,8 km/h (1 Bft) 100,00 %
05.09.2017 22:28 14,2 C 19,4 C 92 % 1018,6 hPa 0,0 l/m 2,1 km/h (1 Bft) SW 215 0 min 0,000 mm 0,0 UV-I 0 W/m 12,9 C 14,2 C 4,8 km/h (1 Bft) 100,00 %
05.09.2017 22:30 14,2 C 19,4 C 92 % 1018,7 hPa 0,0 l/m 2,3 km/h (1 Bft) SW 215 0 min 0,000 mm 0,0 UV-I 0 W/m 12,9 C 14,2 C 4,8 km/h (1 Bft) 98,00 %
05.09.2017 22:32 14,2 C 19,4 C 92 % 1018,6 hPa 0,0 l/m 3,0 km/h (1 Bft) SW 215 0 min 0,000 mm 0,0 UV-I 0 W/m 12,9 C 14,2 C 4,8 km/h (1 Bft) 100,00 %
05.09.2017 22:34 14,2 C 19,4 C 92 % 1018,6 hPa 0,0 l/m 2,6 km/h (1 Bft) SW 215 0 min 0,000 mm 0,0 UV-I 0 W/m 12,9 C 14,2 C 4,8 km/h (1 Bft) 97,87 %
05.09.2017 22:36 14,2 C 19,4 C 92 % 1018,6 hPa 0,0 l/m 2,5 km/h (1 Bft) SW 215 0 min 0,000 mm 0,0 UV-I 0 W/m 12,9 C 14,2 C 4,8 km/h (1 Bft) 100,00 %
05.09.2017 22:38 14,2 C 19,4 C 93 % 1018,6 hPa 0,0 l/m 2,3 km/h (1 Bft) S-SW 207 0 min 0,000 mm 0,0 UV-I 0 W/m 13,1 C 14,2 C 3,2 km/h (1 Bft) 100,00 %
05.09.2017 22:40 14,3 C 19,4 C 93 % 1018,6 hPa 0,0 l/m 2,8 km/h (1 Bft) S-SW 207 0 min 0,000 mm 0,0 UV-I 0 W/m 13,2 C 14,3 C 6,4 km/h (2 Bft) 100,00 %
05.09.2017 22:42 14,3 C 19,4 C 93 % 1018,6 hPa 0,0 l/m 1,7 km/h (1 Bft) S-SW 207 0 min 0,000 mm 0,0 UV-I 0 W/m 13,2 C 14,3 C 3,2 km/h (1 Bft) 100,00 %
05.09.2017 22:44 14,3 C 19,4 C 93 % 1018,6 hPa 0,0 l/m 1,4 km/h (1 Bft) S-SW 207 0 min 0,000 mm 0,0 UV-I 0 W/m 13,2 C 14,3 C 3,2 km/h (1 Bft) 100,00 %
05.09.2017 22:46 14,3 C 19,4 C 93 % 1018,6 hPa 0,0 l/m 1,6 km/h (1 Bft) S-SW 207 0 min 0,000 mm 0,0 UV-I 0 W/m 13,2 C 14,3 C 3,2 km/h (1 Bft) 100,00 %
05.09.2017 22:48 14,3 C 19,4 C 93 % 1018,6 hPa 0,0 l/m 0,9 km/h (0 Bft) S-SW 207 0 min 0,000 mm 0,0 UV-I 0 W/m 13,2 C 14,3 C 3,2 km/h (1 Bft) 100,00 %
05.09.2017 22:50 14,3 C 19,4 C 92 % 1018,5 hPa 0,0 l/m 1,8 km/h (1 Bft) S-SW 207 0 min 0,000 mm 0,0 UV-I 0 W/m 13,0 C 14,3 C 4,8 km/h (1 Bft) 100,00 %
05.09.2017 22:52 14,2 C 19,4 C 93 % 1018,5 hPa 0,0 l/m 2,1 km/h (1 Bft) S-SW 207 0 min 0,000 mm 0,0 UV-I 0 W/m 13,1 C 14,2 C 4,8 km/h (1 Bft) 100,00 %
05.09.2017 22:54 14,2 C 19,4 C 93 % 1018,5 hPa 0,0 l/m 1,6 km/h (1 Bft) S-SW 207 0 min 0,000 mm 0,0 UV-I 0 W/m 13,1 C 14,2 C 3,2 km/h (1 Bft) 100,00 %
05.09.2017 22:56 14,2 C 19,4 C 93 % 1018,5 hPa 0,0 l/m 2,5 km/h (1 Bft) S-SW 207 0 min 0,000 mm 0,0 UV-I 0 W/m 13,1 C 14,2 C 4,8 km/h (1 Bft) 100,00 %
05.09.2017 22:58 14,3 C 19,4 C 93 % 1018,5 hPa 0,0 l/m 1,4 km/h (1 Bft) S-SW 207 0 min 0,000 mm 0,0 UV-I 0 W/m 13,2 C 14,3 C 3,2 km/h (1 Bft) 100,00 %
05.09.2017 23:00 14,3 C 19,4 C 93 % 1018,5 hPa 0,0 l/m 1,2 km/h (1 Bft) S-SW 207 0 min 0,000 mm 0,0 UV-I 0 W/m 13,2 C 14,3 C 3,2 km/h (1 Bft) 97,87 %
05.09.2017 23:02 14,3 C 19,4 C 93 % 1018,5 hPa 0,0 l/m 1,3 km/h (1 Bft) S-SW 207 0 min 0,000 mm 0,0 UV-I 0 W/m 13,2 C 14,3 C 3,2 km/h (1 Bft) 100,00 %
05.09.2017 23:04 14,3 C 19,4 C 93 % 1018,4 hPa 0,0 l/m 1,4 km/h (1 Bft) S-SW 207 0 min 0,000 mm 0,0 UV-I 0 W/m 13,2 C 14,3 C 4,8 km/h (1 Bft) 100,00 %
05.09.2017 23:06 14,2 C 19,4 C 93 % 1018,4 hPa 0,0 l/m 2,0 km/h (1 Bft) S-SW 207 0 min 0,000 mm 0,0 UV-I 0 W/m 13,1 C 14,2 C 3,2 km/h (1 Bft) 97,87 %
05.09.2017 23:08 14,2 C 19,4 C 92 % 1018,4 hPa 0,0 l/m 1,8 km/h (1 Bft) S-SW 207 0 min 0,000 mm 0,0 UV-I 0 W/m 12,9 C 14,2 C 3,2 km/h (1 Bft) 100,00 %
05.09.2017 23:10 14,2 C 19,4 C 92 % 1018,4 hPa 0,0 l/m 2,2 km/h (1 Bft) S-SW 207 0 min 0,000 mm 0,0 UV-I 0 W/m 12,9 C 14,2 C 4,8 km/h (1 Bft) 100,00 %
05.09.2017 23:12 14,2 C 19,4 C 93 % 1018,4 hPa 0,0 l/m 2,5 km/h (1 Bft) S-SW 206 0 min 0,000 mm 0,0 UV-I 0 W/m 13,1 C 14,2 C 4,8 km/h (1 Bft) 100,00 %
05.09.2017 23:14 14,2 C 19,4 C 93 % 1018,4 hPa 0,0 l/m 2,7 km/h (1 Bft) S-SW 206 0 min 0,000 mm 0,0 UV-I 0 W/m 13,1 C 14,2 C 4,8 km/h (1 Bft) 100,00 %
05.09.2017 23:16 14,2 C 19,4 C 93 % 1018,4 hPa 0,0 l/m 2,2 km/h (1 Bft) S-SW 206 0 min 0,000 mm 0,0 UV-I 0 W/m 13,1 C 14,2 C 3,2 km/h (1 Bft) 100,00 %
05.09.2017 23:18 14,2 C 19,4 C 93 % 1018,3 hPa 0,0 l/m 2,0 km/h (1 Bft) S-SW 206 0 min 0,000 mm 0,0 UV-I 0 W/m 13,1 C 14,2 C 3,2 km/h (1 Bft) 97,37 %
05.09.2017 23:20 14,2 C 19,4 C 93 % 1018,3 hPa 0,0 l/m 2,4 km/h (1 Bft) S-SW 206 0 min 0,000 mm 0,0 UV-I 0 W/m 13,1 C 14,2 C 3,2 km/h (1 Bft) 100,00 %
05.09.2017 23:22 14,2 C 19,4 C 93 % 1018,3 hPa 0,0 l/m 2,6 km/h (1 Bft) S-SW 206 0 min 0,000 mm 0,0 UV-I 0 W/m 13,1 C 14,2 C 3,2 km/h (1 Bft) 100,00 %
05.09.2017 23:24 14,2 C 19,4 C 93 % 1018,3 hPa 0,0 l/m 2,2 km/h (1 Bft) S-SW 206 0 min 0,000 mm 0,0 UV-I 0 W/m 13,1 C 14,2 C 3,2 km/h (1 Bft) 100,00 %
05.09.2017 23:26 14,2 C 19,4 C 93 % 1018,3 hPa 0,0 l/m 2,0 km/h (1 Bft) S-SW 206 0 min 0,000 mm 0,0 UV-I 0 W/m 13,1 C 14,2 C 3,2 km/h (1 Bft) 100,00 %
05.09.2017 23:28 14,3 C 19,4 C 93 % 1018,3 hPa 0,0 l/m 2,2 km/h (1 Bft) S-SW 206 0 min 0,000 mm 0,0 UV-I 0 W/m 13,2 C 14,3 C 3,2 km/h (1 Bft) 100,00 %
05.09.2017 23:30 14,3 C 19,4 C 93 % 1018,3 hPa 0,0 l/m 1,5 km/h (1 Bft) S-SW 206 0 min 0,000 mm 0,0 UV-I 0 W/m 13,2 C 14,3 C 3,2 km/h (1 Bft) 100,00 %
05.09.2017 23:32 14,3 C 19,4 C 93 % 1018,3 hPa 0,0 l/m 2,1 km/h (1 Bft) S-SW 206 0 min 0,000 mm 0,0 UV-I 0 W/m 13,2 C 14,3 C 3,2 km/h (1 Bft) 100,00 %
05.09.2017 23:34 14,3 C 19,4 C 93 % 1018,3 hPa 0,0 l/m 1,3 km/h (1 Bft) S-SW 206 0 min 0,000 mm 0,0 UV-I 0 W/m 13,2 C 14,3 C 3,2 km/h (1 Bft) 100,00 %
05.09.2017 23:36 14,3 C 19,4 C 93 % 1018,3 hPa 0,0 l/m 1,1 km/h (1 Bft) S-SW 206 0 min 0,000 mm 0,0 UV-I 0 W/m 13,2 C 14,3 C 3,2 km/h (1 Bft) 100,00 %
05.09.2017 23:38 14,3 C 19,4 C 93 % 1018,2 hPa 0,0 l/m 0,7 km/h (0 Bft) S-SW 206 0 min 0,000 mm 0,0 UV-I 0 W/m 13,2 C 14,3 C 1,6 km/h (1 Bft) 100,00 %
05.09.2017 23:40 14,3 C 19,4 C 92 % 1018,2 hPa 0,0 l/m 1,5 km/h (1 Bft) S-SW 206 0 min 0,000 mm 0,0 UV-I 0 W/m 13,0 C 14,3 C 3,2 km/h (1 Bft) 97,87 %
05.09.2017 23:42 14,3 C 19,4 C 92 % 1018,2 hPa 0,0 l/m 1,9 km/h (1 Bft) S-SW 206 0 min 0,000 mm 0,0 UV-I 0 W/m 13,0 C 14,3 C 3,2 km/h (1 Bft) 93,62 %
05.09.2017 23:44 14,3 C 19,4 C 92 % 1018,3 hPa 0,0 l/m 1,3 km/h (1 Bft) S-SW 206 0 min 0,000 mm 0,0 UV-I 0 W/m 13,0 C 14,3 C 3,2 km/h (1 Bft) 93,62 %
05.09.2017 23:46 14,2 C 19,4 C 92 % 1018,3 hPa 0,0 l/m 2,3 km/h (1 Bft) S-SW 206 0 min 0,000 mm 0,0 UV-I 0 W/m 12,9 C 14,2 C 4,8 km/h (1 Bft) 97,87 %
05.09.2017 23:48 14,2 C 19,4 C 92 % 1018,3 hPa 0,0 l/m 1,5 km/h (1 Bft) S-SW 206 0 min 0,000 mm 0,0 UV-I 0 W/m 12,9 C 14,2 C 3,2 km/h (1 Bft) 97,87 %
05.09.2017 23:50 14,2 C 19,4 C 92 % 1018,2 hPa 0,0 l/m 2,0 km/h (1 Bft) S-SW 206 0 min 0,000 mm 0,0 UV-I 0 W/m 12,9 C 14,2 C 4,8 km/h (1 Bft) 97,87 %
05.09.2017 23:52 14,1 C 19,4 C 92 % 1018,2 hPa 0,0 l/m 1,7 km/h (1 Bft) S-SW 206 0 min 0,000 mm 0,0 UV-I 0 W/m 12,8 C 14,1 C 3,2 km/h (1 Bft) 96,00 %
05.09.2017 23:54 14,1 C 19,4 C 92 % 1018,2 hPa 0,0 l/m 2,2 km/h (1 Bft) S-SW 206 0 min 0,000 mm 0,0 UV-I 0 W/m 12,8 C 14,1 C 3,2 km/h (1 Bft) 97,87 %
05.09.2017 23:56 14,1 C 19,4 C 92 % 1018,1 hPa 0,0 l/m 1,8 km/h (1 Bft) S-SW 206 0 min 0,000 mm 0,0 UV-I 0 W/m 12,8 C 14,1 C 3,2 km/h (1 Bft) 95,74 %
05.09.2017 23:58 14,1 C 19,4 C 92 % 1018,1 hPa 0,0 l/m 1,9 km/h (1 Bft) S-SW 206 0 min 0,000 mm 0,0 UV-I 0 W/m 12,8 C 14,1 C 3,2 km/h (1 Bft) 97,87 %
_ Min-Zeit 06:38 04:40 14:02 19:10 - 03:18 - - - - - - 06:38 06:38 03:18 02:12
Minimum _ 8,1 C 18,3 C 62 % 1018,1 hPa - 0,0 km/h (0 Bft) - - - - - - 7,3 C 8,1 C 0,0 km/h (0 Bft) 91,49 %
_ Max-Zeit 15:00 13:56 06:44 07:58 00:00 16:34 - - 06:38 14:00 12:22 12:24 18:54 13:10 16:08 00:34
Maximum _ 20,3 C 19,4 C 96 % 1020,8 hPa 0,0 l/m 19,2 km/h
W-SW (3 Bft)
- - 2 min 0,407 mm 4,6 UV-I 982 W/m 14,4 C 19,8 C 29,0 km/h
W-SW (5 Bft)
100,00 %
Durchschnitt _ 14,7 C 19,0 C 82 % 1019,5 hPa #0,0 l/m 5,1 km/h (1 Bft) W-SW - #8:22 h #2,946 mm 2,2 UV-I 333 W/m 11,5 C 14,2 C 8,8 km/h (2 Bft) 97,92 %